[[{"header":{"parameterUnit":"m.s-1","parameterCategory":1,"la1":30.6,"la2":29.2853,"lo1":-89.7004,"lo2":-87.6739,"dy":0.0162,"dx":0.0183,"nx":112,"ny":82,"refTime":"2025-03-10T06:00:00:Z","depth":0,"parameterNumber":2,"parameterNumberName":"U-component_of_WINDS"},"data":[0.0,0.0,0.0,0.0,0.0,0.0,0.0,0.0,0.0,0.0,0.0,0.0,0.0,0.0,0.0,0.0,0.0,0.0,0.0,0.0,0.0,0.0,0.0,0.0,0.0,0.0,0.0,0.0,0.0,0.0,0.0,0.0,0.0,0.0,0.0,0.0,0.0,0.0,0.0,0.0,0.0,0.0,0.0,0.0,0.0,0.0,0.0,0.0,0.0,0.0,0.0,0.0,0.0,0.0,0.0,0.0,0.0,0.0,0.0,0.0,0.0,0.0,0.0,0.0,0.0,0.0,0.0,0.0,0.0,0.0,0.0,0.0,0.0,0.0,0.0,0.0,0.0,0.0,0.0,0.0,0.0,0.0,0.0,0.0,0.0,0.0,0.0,0.0,0.0,0.0,-4.8781,-5.103,-5.333,-5.4355,-5.3472,-5.3348,-5.1157,-4.6116,0.0,0.0,0.0,0.0,0.0,0.0,0.0,0.0,0.0,0.0,0.0,0.0,0.0,0.0,0.0,0.0,0.0,0.0,0.0,0.0,0.0,0.0,0.0,0.0,0.0,0.0,0.0,0.0,0.0,0.0,0.0,0.0,0.0,0.0,0.0,0.0,0.0,0.0,0.0,0.0,0.0,0.0,0.0,0.0,0.0,0.0,0.0,0.0,0.0,0.0,0.0,0.0,0.0,0.0,0.0,0.0,0.0,0.0,0.0,0.0,0.0,0.0,0.0,0.0,0.0,0.0,0.0,0.0,0.0,0.0,0.0,0.0,0.0,0.0,0.0,0.0,0.0,0.0,0.0,0.0,0.0,0.0,0.0,0.0,0.0,0.0,0.0,0.0,0.0,0.0,0.0,0.0,0.0,0.0,0.0,0.0,0.0,0.0,0.0,0.0,0.0,0.0,0.0,0.0,-4.703,-5.1624,-5.3136,-5.3451,-5.2574,-5.2496,-5.0564,-4.6078,0.0,0.0,0.0,0.0,0.0,0.0,0.0,0.0,0.0,0.0,0.0,0.0,0.0,0.0,0.0,0.0,0.0,0.0,0.0,0.0,0.0,0.0,0.0,0.0,0.0,0.0,0.0,0.0,0.0,0.0,0.0,0.0,0.0,0.0,0.0,0.0,0.0,0.0,0.0,0.0,0.0,0.0,0.0,0.0,0.0,0.0,0.0,0.0,0.0,0.0,0.0,0.0,0.0,0.0,0.0,0.0,0.0,0.0,0.0,0.0,0.0,0.0,0.0,0.0,0.0,0.0,0.0,0.0,0.0,0.0,0.0,0.0,0.0,0.0,0.0,0.0,0.0,0.0,0.0,0.0,0.0,0.0,0.0,0.0,0.0,0.0,0.0,0.0,0.0,0.0,0.0,0.0,0.0,0.0,0.0,0.0,0.0,0.0,0.0,0.0,0.0,0.0,0.0,-4.6987,-4.8753,-5.2014,-5.2712,-5.279,-5.2387,-5.1922,-5.0001,-4.6093,-4.5028,0.0,0.0,0.0,0.0,0.0,0.0,0.0,0.0,0.0,0.0,0.0,0.0,0.0,0.0,0.0,0.0,0.0,0.0,0.0,0.0,0.0,0.0,0.0,0.0,0.0,0.0,0.0,0.0,0.0,0.0,0.0,0.0,0.0,0.0,0.0,0.0,0.0,0.0,0.0,0.0,0.0,0.0,0.0,0.0,0.0,0.0,0.0,0.0,0.0,0.0,0.0,0.0,0.0,0.0,0.0,0.0,0.0,0.0,0.0,0.0,0.0,0.0,0.0,0.0,0.0,0.0,0.0,0.0,0.0,0.0,0.0,0.0,0.0,0.0,0.0,0.0,0.0,0.0,0.0,0.0,0.0,0.0,0.0,0.0,0.0,0.0,0.0,0.0,0.0,0.0,0.0,0.0,0.0,0.0,0.0,0.0,0.0,0.0,0.0,0.0,0.0,0.0,-4.9046,-5.0697,-5.1979,-5.2115,-5.2103,-5.2085,-5.092,-4.8877,-4.579,-4.364,0.0,0.0,0.0,0.0,0.0,0.0,0.0,0.0,0.0,0.0,0.0,0.0,0.0,0.0,0.0,0.0,0.0,0.0,0.0,0.0,0.0,0.0,0.0,0.0,0.0,0.0,0.0,0.0,0.0,0.0,0.0,0.0,0.0,0.0,0.0,0.0,0.0,0.0,0.0,0.0,0.0,0.0,0.0,0.0,0.0,0.0,0.0,0.0,0.0,0.0,0.0,0.0,0.0,0.0,0.0,0.0,0.0,0.0,0.0,0.0,0.0,0.0,0.0,0.0,0.0,0.0,0.0,0.0,0.0,0.0,0.0,0.0,0.0,0.0,0.0,0.0,0.0,0.0,0.0,0.0,0.0,0.0,0.0,0.0,0.0,0.0,0.0,0.0,0.0,0.0,0.0,0.0,0.0,0.0,0.0,0.0,0.0,0.0,0.0,0.0,0.0,0.0,-4.8094,-5.1144,-5.128,-5.128,-5.1268,-5.1198,-4.896,-4.6744,-4.4802,-4.16,0.0,0.0,0.0,0.0,0.0,0.0,0.0,0.0,0.0,0.0,0.0,0.0,0.0,0.0,0.0,0.0,0.0,0.0,0.0,0.0,0.0,0.0,0.0,0.0,0.0,0.0,0.0,0.0,0.0,0.0,0.0,0.0,0.0,0.0,0.0,0.0,0.0,0.0,0.0,0.0,0.0,0.0,0.0,0.0,0.0,0.0,0.0,0.0,0.0,0.0,0.0,0.0,0.0,0.0,0.0,0.0,0.0,0.0,0.0,0.0,0.0,0.0,0.0,0.0,0.0,0.0,0.0,0.0,0.0,0.0,0.0,0.0,0.0,0.0,0.0,0.0,0.0,0.0,0.0,0.0,0.0,0.0,0.0,0.0,0.0,0.0,0.0,0.0,0.0,0.0,0.0,0.0,0.0,0.0,0.0,0.0,0.0,0.0,0.0,0.0,0.0,0.0,-4.7395,-4.9998,0.0,-5.1202,-5.1196,-5.1165,-4.9281,-4.7129,-4.4818,0.0,0.0,0.0,0.0,0.0,0.0,0.0,0.0,0.0,0.0,0.0,0.0,0.0,0.0,0.0,0.0,0.0,0.0,0.0,0.0,0.0,0.0,0.0,0.0,0.0,0.0,0.0,0.0,0.0,0.0,0.0,0.0,0.0,0.0,0.0,0.0,0.0,0.0,0.0,0.0,0.0,0.0,0.0,0.0,0.0,0.0,0.0,0.0,0.0,0.0,0.0,0.0,0.0,0.0,0.0,0.0,0.0,0.0,0.0,0.0,0.0,0.0,0.0,0.0,0.0,0.0,0.0,0.0,0.0,0.0,0.0,0.0,0.0,0.0,0.0,0.0,0.0,0.0,0.0,0.0,0.0,0.0,0.0,0.0,0.0,0.0,0.0,0.0,0.0,0.0,0.0,0.0,0.0,0.0,0.0,0.0,0.0,0.0,0.0,0.0,0.0,0.0,-4.4112,-4.7337,-4.9881,0.0,-5.1202,-5.1202,-5.1202,-4.9085,-4.6666,-4.4076,0.0,0.0,0.0,0.0,0.0,0.0,0.0,0.0,0.0,0.0,0.0,0.0,0.0,0.0,0.0,0.0,0.0,0.0,0.0,0.0,0.0,0.0,0.0,0.0,0.0,0.0,0.0,0.0,0.0,0.0,0.0,0.0,0.0,0.0,0.0,0.0,0.0,0.0,0.0,0.0,0.0,0.0,0.0,0.0,0.0,0.0,0.0,0.0,0.0,0.0,0.0,0.0,0.0,0.0,0.0,0.0,0.0,0.0,0.0,0.0,0.0,0.0,0.0,0.0,0.0,0.0,0.0,0.0,0.0,0.0,0.0,0.0,0.0,0.0,0.0,0.0,0.0,0.0,0.0,0.0,0.0,0.0,0.0,0.0,0.0,0.0,0.0,0.0,0.0,0.0,0.0,0.0,0.0,0.0,0.0,0.0,0.0,0.0,0.0,0.0,0.0,0.0,-4.3374,-4.7997,-5.1202,-5.1202,-5.1202,-5.1202,-5.1183,-4.7997,-4.4904,0.0,0.0,0.0,0.0,0.0,0.0,0.0,0.0,0.0,0.0,0.0,0.0,0.0,0.0,0.0,0.0,0.0,0.0,0.0,0.0,0.0,0.0,0.0,0.0,0.0,0.0,0.0,0.0,0.0,0.0,0.0,0.0,0.0,0.0,0.0,0.0,0.0,0.0,0.0,0.0,0.0,0.0,0.0,0.0,0.0,0.0,0.0,0.0,0.0,0.0,0.0,0.0,0.0,0.0,0.0,0.0,0.0,0.0,0.0,0.0,0.0,0.0,0.0,0.0,0.0,0.0,0.0,0.0,0.0,0.0,0.0,0.0,0.0,0.0,0.0,0.0,0.0,0.0,0.0,0.0,0.0,0.0,0.0,0.0,0.0,0.0,0.0,0.0,0.0,0.0,0.0,0.0,0.0,0.0,0.0,0.0,0.0,0.0,0.0,0.0,0.0,0.0,0.0,-4.2539,-4.7628,-5.1202,-5.1202,-5.1202,-5.095,-5.0328,-4.7653,-4.4656,-4.1481,0.0,0.0,0.0,0.0,0.0,0.0,0.0,0.0,0.0,0.0,0.0,0.0,0.0,0.0,0.0,0.0,0.0,0.0,0.0,0.0,0.0,0.0,0.0,0.0,0.0,0.0,0.0,0.0,0.0,0.0,0.0,0.0,0.0,0.0,0.0,0.0,0.0,0.0,0.0,0.0,0.0,0.0,0.0,0.0,0.0,0.0,0.0,0.0,0.0,0.0,0.0,0.0,0.0,0.0,0.0,0.0,0.0,0.0,0.0,0.0,0.0,0.0,0.0,0.0,0.0,0.0,0.0,0.0,0.0,0.0,0.0,0.0,0.0,0.0,0.0,0.0,0.0,0.0,0.0,0.0,0.0,0.0,0.0,0.0,0.0,0.0,0.0,0.0,0.0,0.0,0.0,0.0,0.0,0.0,0.0,0.0,0.0,0.0,0.0,0.0,0.0,0.0,-4.2155,-4.7183,-5.0801,-5.1152,-5.0881,-5.0464,-4.9945,-4.7822,-4.4773,-4.0674,0.0,0.0,0.0,0.0,0.0,0.0,0.0,0.0,0.0,0.0,0.0,0.0,0.0,0.0,0.0,0.0,0.0,0.0,0.0,0.0,0.0,0.0,0.0,0.0,0.0,0.0,0.0,0.0,0.0,0.0,0.0,0.0,0.0,0.0,0.0,0.0,0.0,0.0,0.0,0.0,0.0,0.0,0.0,0.0,0.0,0.0,0.0,0.0,0.0,0.0,0.0,0.0,0.0,0.0,0.0,0.0,0.0,0.0,0.0,0.0,0.0,0.0,0.0,0.0,0.0,0.0,0.0,0.0,0.0,0.0,0.0,0.0,0.0,0.0,0.0,0.0,0.0,0.0,0.0,0.0,0.0,0.0,0.0,0.0,0.0,0.0,0.0,0.0,0.0,0.0,0.0,0.0,0.0,0.0,0.0,0.0,0.0,0.0,0.0,0.0,0.0,0.0,-4.186,-4.6582,-5.0096,-5.0879,-5.0257,-4.9762,-4.9665,-4.8139,-4.5064,-4.0126,0.0,0.0,0.0,0.0,0.0,0.0,0.0,0.0,0.0,0.0,0.0,0.0,0.0,0.0,0.0,0.0,0.0,0.0,0.0,0.0,0.0,0.0,0.0,0.0,0.0,0.0,0.0,0.0,0.0,0.0,0.0,0.0,0.0,0.0,0.0,0.0,0.0,0.0,0.0,0.0,0.0,0.0,0.0,0.0,0.0,0.0,0.0,0.0,0.0,0.0,0.0,0.0,0.0,0.0,0.0,0.0,0.0,0.0,0.0,0.0,-4.9247,0.0,0.0,0.0,0.0,0.0,0.0,0.0,0.0,0.0,0.0,0.0,0.0,0.0,0.0,0.0,0.0,0.0,0.0,0.0,0.0,0.0,0.0,0.0,0.0,0.0,0.0,0.0,0.0,0.0,0.0,0.0,0.0,0.0,0.0,0.0,0.0,0.0,0.0,0.0,0.0,0.0,-4.0303,-4.5349,-4.903,-4.9206,-4.9074,-4.8677,-4.7996,-4.6922,-4.4676,-4.0888,-3.7776,0.0,0.0,0.0,0.0,0.0,0.0,0.0,0.0,0.0,0.0,0.0,0.0,0.0,0.0,0.0,0.0,0.0,0.0,0.0,0.0,0.0,0.0,0.0,0.0,0.0,0.0,0.0,0.0,0.0,0.0,0.0,0.0,0.0,0.0,0.0,0.0,0.0,0.0,0.0,0.0,0.0,0.0,0.0,0.0,0.0,0.0,0.0,0.0,0.0,0.0,0.0,0.0,0.0,0.0,0.0,0.0,0.0,0.0,0.0,0.0,-5.0048,0.0,0.0,0.0,0.0,0.0,0.0,0.0,0.0,0.0,0.0,0.0,0.0,0.0,0.0,0.0,0.0,0.0,0.0,0.0,0.0,0.0,0.0,0.0,0.0,0.0,0.0,0.0,0.0,0.0,0.0,0.0,0.0,0.0,0.0,0.0,0.0,0.0,0.0,0.0,0.0,-4.0312,-4.4917,-4.8289,-4.87,-4.8337,-4.7897,-4.7449,-4.6571,-4.4595,-4.1155,-3.8509,0.0,0.0,0.0,0.0,0.0,0.0,0.0,0.0,0.0,0.0,0.0,0.0,0.0,0.0,0.0,0.0,0.0,0.0,0.0,0.0,0.0,0.0,0.0,0.0,0.0,0.0,0.0,0.0,0.0,0.0,0.0,0.0,0.0,0.0,0.0,0.0,0.0,0.0,0.0,0.0,0.0,0.0,0.0,0.0,0.0,0.0,0.0,0.0,0.0,0.0,0.0,0.0,0.0,-5.3242,-5.3689,-5.4272,-5.4414,-5.456,-5.4567,-5.3098,-5.2216,-5.1726,-4.9969,0.0,0.0,0.0,0.0,0.0,0.0,0.0,0.0,0.0,0.0,0.0,0.0,0.0,0.0,0.0,0.0,0.0,0.0,0.0,0.0,0.0,0.0,0.0,0.0,-4.4488,-4.3474,0.0,0.0,0.0,0.0,0.0,0.0,0.0,0.0,0.0,0.0,0.0,0.0,-4.0896,-4.4721,-4.7578,-4.8281,-4.7669,-4.7186,-4.7186,-4.6523,-4.477,-4.1626,-3.9816,-3.7063,0.0,0.0,0.0,0.0,0.0,0.0,0.0,0.0,0.0,0.0,0.0,0.0,0.0,0.0,0.0,0.0,0.0,0.0,0.0,0.0,0.0,0.0,0.0,0.0,0.0,0.0,0.0,0.0,0.0,0.0,0.0,0.0,-5.1819,-5.1934,0.0,0.0,0.0,0.0,0.0,0.0,0.0,0.0,0.0,0.0,0.0,0.0,0.0,-5.3215,-5.385,-5.541,-5.5943,-5.544,-5.6958,-5.742,-5.6925,-5.7689,-5.8033,-5.7994,-5.7022,0.0,-5.3522,-5.1785,0.0,0.0,0.0,0.0,0.0,0.0,0.0,0.0,0.0,0.0,0.0,0.0,0.0,0.0,0.0,0.0,0.0,0.0,0.0,0.0,0.0,0.0,-4.8896,-4.7435,-4.7613,-4.7359,0.0,-4.1679,-3.8781,-3.5946,-3.6181,0.0,0.0,0.0,0.0,0.0,0.0,0.0,-4.0973,-4.4236,-4.6503,-4.662,-4.6463,-4.6367,-4.6367,-4.6254,-4.5321,-4.3299,-4.1598,-3.9386,-3.6541,-3.3464,0.0,0.0,0.0,0.0,0.0,0.0,0.0,0.0,0.0,0.0,0.0,0.0,0.0,0.0,0.0,0.0,0.0,0.0,0.0,0.0,0.0,0.0,0.0,0.0,0.0,0.0,0.0,0.0,0.0,-5.1192,-5.3183,-5.2692,-5.3364,-5.3332,0.0,0.0,0.0,0.0,0.0,0.0,0.0,0.0,0.0,-5.2818,-5.4453,-5.5511,-5.5906,-5.7107,-5.7574,-5.7253,-5.8478,-5.8664,-5.793,-5.8307,-5.8245,-5.7804,-5.6932,-5.6026,-5.5024,-5.2889,-5.1733,-5.1073,0.0,0.0,0.0,0.0,-4.7432,-4.6573,-4.8505,-4.8017,0.0,-4.6475,0.0,0.0,0.0,0.0,0.0,0.0,0.0,0.0,0.0,0.0,-5.0046,-4.9794,-4.9638,-4.9091,-4.7471,-4.5573,-4.2984,0.0,-3.8806,-3.8141,-3.4232,0.0,0.0,0.0,0.0,-4.0854,-4.1713,-4.4445,-4.63,-4.63,-4.6274,-4.6261,-4.6261,-4.5762,-4.4933,-4.3693,-4.1977,-4.005,-3.7916,-3.5486,-3.3326,0.0,0.0,0.0,0.0,0.0,0.0,0.0,0.0,0.0,0.0,0.0,0.0,0.0,0.0,0.0,0.0,0.0,0.0,0.0,0.0,0.0,0.0,0.0,0.0,0.0,0.0,0.0,0.0,-5.2817,-5.4741,-5.3664,-5.4814,-5.4762,0.0,0.0,0.0,0.0,0.0,0.0,-5.2845,-5.4308,-5.5145,-5.5145,-5.6761,-5.7638,-5.7638,-5.8492,-5.8838,-5.8607,-5.9204,-5.9088,-5.83,-5.83,-5.8002,-5.7438,-5.655,-5.6253,-5.6148,-5.4,-5.2597,-5.1609,-4.9591,-4.8677,-4.8541,-4.9148,-4.8591,-4.7921,-5.0479,-5.0389,-4.9072,-4.8681,0.0,-4.5386,-4.411,0.0,0.0,0.0,0.0,-4.6591,-4.7899,-4.9323,-5.0534,-5.0965,-5.0573,-4.9792,-4.874,-4.8017,-4.6239,0.0,-4.1498,-4.0737,-3.6444,0.0,0.0,0.0,0.0,-4.1244,-4.2552,-4.4621,-4.6046,-4.628,-4.6105,-4.5968,-4.5968,-4.5129,-4.4237,-4.3418,-4.2104,-4.0581,-3.8822,-3.7342,-3.5449,-3.3038,0.0,0.0,0.0,0.0,0.0,0.0,0.0,0.0,0.0,0.0,0.0,0.0,0.0,0.0,0.0,0.0,0.0,0.0,0.0,0.0,0.0,0.0,0.0,0.0,0.0,0.0,0.0,0.0,0.0,-5.4626,-5.728,0.0,0.0,0.0,0.0,-5.4097,-5.4902,-5.5404,-5.5404,-5.6343,-5.6876,-5.6868,-5.8492,-5.9377,-5.9377,-6.0242,-6.0262,-5.9435,-5.9473,-5.9088,-5.83,-5.83,-5.828,-5.8195,-5.7321,-5.6947,-5.6836,-5.537,-5.4271,-5.339,-5.2432,-5.1564,-5.0825,-5.0864,-5.0914,-5.0973,-5.1148,-5.0686,-5.0163,-5.0945,-4.943,-4.7281,-4.732,-4.6635,0.0,0.0,-4.792,-4.985,-4.9948,-5.0651,-5.1141,-5.0358,-5.0124,-4.9655,-4.8016,-4.7625,-4.6788,0.0,-4.4211,-4.345,-3.9138,0.0,-3.9331,-3.8533,-3.9234,-4.0776,-4.3313,-4.4465,-4.5382,-4.6202,-4.5558,-4.5068,-4.5068,-4.4252,-4.3386,-4.2519,-4.2383,-4.154,-3.9801,-3.8845,-3.7525,-3.5744,-3.3176,0.0,0.0,0.0,0.0,0.0,0.0,0.0,0.0,0.0,0.0,0.0,0.0,0.0,0.0,0.0,0.0,0.0,0.0,0.0,0.0,0.0,0.0,0.0,0.0,0.0,0.0,0.0,0.0,-5.703,-5.94,0.0,-5.6683,-5.7394,-5.7478,-5.6073,-5.681,-5.7343,-5.7343,-5.8154,-5.8607,-5.8607,-5.9723,-6.0339,-6.0339,-6.0089,-5.9819,-5.9492,-5.8973,-5.8588,-5.828,-5.7723,-5.7453,-5.7415,-5.653,-5.5857,-5.5348,-5.4844,-5.4177,-5.334,-5.1994,-5.1274,-5.1002,-5.1002,-5.1031,-5.1069,-5.1069,-5.0899,-5.0655,-5.0441,-4.9717,-4.8852,-4.834,-4.7932,-4.7772,-4.8379,-4.9235,-4.9975,-4.9975,-5.0277,-5.0338,-4.9462,-4.8874,-4.8328,-4.7723,-4.7159,-4.6495,-4.5558,-4.5168,-4.3977,-4.0758,-4.0912,-4.0815,-3.8884,-4.0249,-4.181,-4.2747,-4.3626,-4.427,-4.4582,-4.4348,-4.4153,-4.4153,-4.3352,-4.2732,-4.2411,-4.1865,-4.1032,-3.9841,-3.8954,-3.7681,-3.5936,-3.3874,-3.1693,0.0,0.0,0.0,0.0,0.0,0.0,0.0,0.0,0.0,0.0,0.0,0.0,0.0,0.0,0.0,0.0,0.0,0.0,0.0,0.0,0.0,0.0,0.0,0.0,0.0,0.0,-5.8607,-5.8338,-6.1015,-6.1656,-5.8531,-5.9492,-5.9607,-5.7897,-5.8623,-5.9146,-5.9146,-5.9646,-5.9935,-5.9935,-6.0204,-6.0358,-6.0358,-5.9511,-5.8954,-5.8646,-5.8127,-5.7703,-5.7396,-5.6819,-5.6714,-5.6945,-5.578,-5.5145,-5.4838,-5.3972,-5.334,-5.2786,-5.173,-5.1136,-5.0903,-5.0903,-5.0939,-5.0966,-5.099,-5.1002,-5.0905,-5.0381,-5.0195,-5.0015,-4.9178,-4.8908,-4.8942,-4.9268,-4.9396,-4.9428,-4.9428,-4.9529,-4.9418,-4.8523,-4.7916,-4.7452,-4.7213,-4.6444,-4.5813,-4.5849,-4.5402,-4.4367,-4.2339,-4.2201,-4.1732,-3.9743,-4.0873,-4.2064,-4.2357,-4.2903,-4.3372,-4.3666,-4.343,-4.3255,-4.3255,-4.2181,-4.1518,-4.1518,-4.0737,-4.0005,-3.9411,-3.8555,-3.7391,-3.5936,-3.3881,-3.1973,-3.0241,0.0,0.0,0.0,0.0,0.0,0.0,0.0,0.0,0.0,0.0,0.0,0.0,0.0,0.0,0.0,0.0,0.0,0.0,0.0,0.0,0.0,0.0,0.0,-5.3318,-5.6934,-5.93,-5.8538,-6.2096,-6.3,-5.8835,-6.0642,-6.1373,-5.9642,-6.0296,-6.0757,-6.0757,-6.0788,-6.0769,-6.0731,-5.9935,-5.9492,-5.9454,-5.8665,-5.7838,-5.7003,-5.6964,-5.6541,-5.5742,-5.5703,-5.6175,-5.6907,-5.5222,-5.4934,-5.5434,-5.2933,-5.1885,-5.1865,-5.1865,-5.1395,-5.0712,-5.0712,-5.0775,-5.091,-5.0966,-5.099,-5.099,-5.099,-5.0926,-5.0724,-5.0001,-4.9673,-4.9396,-4.8687,-4.8494,-4.8499,-4.846,-4.8554,-4.8444,-4.7563,-4.7365,-4.7151,-4.6407,-4.5479,-4.4829,-4.4942,-4.4932,-4.466,-4.3801,-4.2962,-4.2103,-4.1226,-4.1109,0.0,-4.2259,-4.2357,-4.2689,-4.3528,-4.2864,-4.2357,-4.2357,-4.0795,-3.98,-3.98,-3.904,-3.8591,-3.8552,-3.7752,-3.6853,-3.5913,-3.33,-3.1948,-3.1948,0.0,0.0,0.0,0.0,0.0,0.0,0.0,0.0,0.0,0.0,0.0,0.0,0.0,0.0,0.0,0.0,0.0,0.0,0.0,0.0,0.0,-5.3306,-5.5222,-5.5857,-5.9088,-6.142,-6.1559,-6.3657,-6.4048,-6.1385,-6.1751,-6.15,-5.9828,-5.9938,-6.0072,-6.0072,-6.0307,-6.0148,-5.9503,-5.9494,-5.9223,-5.8646,-5.778,-5.7253,-5.6983,-5.6368,-5.6272,-5.6618,-5.5992,-5.6175,-5.6907,-5.5222,-5.426,-5.378,-5.2442,-5.1568,-5.1029,-5.1029,-5.0894,-5.0712,-5.0712,-5.0721,-5.0758,-5.0773,-5.0791,-5.0791,-5.0791,-5.0331,-4.9775,-4.9566,-4.9039,-4.8465,-4.8274,-4.828,-4.8218,-4.7584,-4.7577,-4.7544,-4.6663,-4.6449,-4.6222,-4.5387,-4.5004,-4.464,-4.4097,-4.3507,-4.304,-4.2806,-4.2552,-4.2103,-4.1226,-4.1109,0.0,-4.142,-4.1459,-4.1558,-4.1792,-4.1597,-4.1459,-4.1459,-4.0444,-3.98,-3.98,-3.904,-3.8318,-3.7672,-3.7378,-3.679,-3.5844,-3.3856,-3.283,0.0,0.0,0.0,0.0,0.0,0.0,0.0,0.0,0.0,0.0,0.0,0.0,0.0,0.0,0.0,0.0,0.0,0.0,0.0,0.0,0.0,0.0,-5.4848,-5.6783,-5.7532,-5.976,-6.1515,-6.1999,-6.3226,-6.3432,-6.1852,-6.1702,-6.1172,-5.9904,-5.9791,-5.9639,-5.9276,-5.9444,-5.9168,-5.8296,-5.8259,-5.8014,-5.7553,-5.6709,-5.6299,-5.6299,-5.6115,-5.6115,-5.6299,-5.6267,-5.6522,-5.6887,-5.4838,-5.3876,-5.3626,-5.2049,-5.1125,0.0,0.0,0.0,0.0,0.0,-5.1202,-5.1202,-5.1202,-5.0971,-5.0635,-5.0269,-4.9798,-4.926,-4.8567,-4.8009,-4.7528,-4.7163,-4.7116,-4.7044,-4.6545,-4.6578,-4.6601,-4.6137,-4.5737,-4.5355,-4.489,-4.4228,-4.3582,-4.314,-4.2407,0.0,-4.1869,-4.1869,-4.1674,-4.1187,-4.1109,-4.1109,-4.1109,-4.1109,-4.1109,-4.1109,-4.1109,-4.1109,-4.1109,-3.9997,0.0,0.0,0.0,-3.7113,-3.6255,-3.6152,0.0,0.0,0.0,0.0,0.0,0.0,0.0,0.0,-3.2314,-3.2179,0.0,0.0,0.0,0.0,0.0,0.0,0.0,0.0,0.0,0.0,0.0,0.0,0.0,0.0,0.0,0.0,-5.627,-5.7973,-5.8508,-5.9486,-6.0376,-6.089,-6.1707,-6.1879,-6.0959,-6.0884,-6.0543,-5.9732,-5.9599,-5.9202,-5.8424,0.0,0.0,0.0,0.0,-5.6427,-5.6358,-5.5702,-5.5396,-5.5454,-5.6167,-5.6167,-5.5588,-5.6468,-5.6849,-5.6714,-5.426,-5.3587,-5.401,-5.1674,-5.0712,-5.0712,-5.0712,-5.0712,-5.0808,-5.1606,-5.1846,-5.1769,-5.1865,0.0,0.0,-4.9644,-4.926,-4.8836,-4.7355,-4.6827,-4.6586,-4.5825,-4.5594,-4.5594,-4.5594,-4.5708,-4.5796,-4.5739,-4.5165,-4.4579,-4.4499,-4.3286,-4.2195,-4.2163,-4.1588,-4.1109,-4.1109,-4.1109,-4.1109,-4.1109,-4.1109,-4.1109,-4.1109,-4.1109,-4.1109,-4.1109,0.0,0.0,-4.109,-3.947,-3.8494,-3.8591,-3.6958,-3.5655,-3.4878,-3.4784,-3.4746,-3.4731,-3.4669,-3.4988,-3.5702,-3.5701,-3.5704,-3.5646,-3.3421,-3.3209,0.0,0.0,0.0,0.0,0.0,0.0,0.0,0.0,0.0,0.0,0.0,0.0,0.0,0.0,0.0,-5.6595,-5.7752,-5.8511,-5.9003,-5.9266,-5.9716,-6.0491,-6.1319,-6.1375,-6.0214,-6.0099,-5.9782,-5.8961,-5.8308,-5.7861,-5.7693,-5.7321,-5.6747,-5.5883,-5.5999,-5.5898,-5.5549,-5.5751,-5.5984,-5.6268,0.0,0.0,-5.7204,-5.6341,-5.5953,-5.5838,-5.401,-5.2895,-5.2308,-5.1164,-5.0712,-5.0712,-5.0712,-5.0712,-5.0808,-5.1606,-5.1491,-5.101,-5.1673,-5.0914,-4.9625,-4.9452,-4.849,-4.7317,-4.7,-4.6413,0.0,-4.5652,-4.5594,-4.5594,-4.5594,-4.5708,-4.564,-4.4931,-4.4682,-4.4248,-4.2902,-4.2389,-4.2016,-4.1361,-4.1178,-4.1109,-4.1109,-4.1109,-4.1109,-4.1109,-4.1109,-4.1109,-4.1109,-4.1109,-4.1109,-4.1109,-4.0464,-4.0346,-4.1031,-3.8921,-3.7849,-3.8552,-3.6958,-3.591,-3.576,-3.5681,-3.5618,-3.5566,-3.5491,-3.5538,-3.5695,-3.5709,-3.5704,-3.5704,-3.5858,-3.6091,0.0,0.0,0.0,0.0,0.0,0.0,0.0,0.0,0.0,0.0,0.0,-5.1768,-5.395,0.0,-5.6486,-5.7881,-5.8679,-5.9099,-5.8969,-5.8966,-5.9115,-5.9563,-5.9937,-5.995,-5.9369,-5.9311,-5.8977,-5.8159,-5.7732,-5.7138,-5.6302,-5.6032,-5.551,-5.467,-5.5377,-5.564,-5.5398,-5.5624,-5.5832,-5.6004,-5.6168,-5.624,-5.6255,-5.6321,-5.5876,-5.503,-5.376,-5.2712,-5.1846,-5.1029,-5.0712,-5.0712,-5.0712,-5.0952,-5.1356,-5.175,-5.1664,-5.1298,-5.1298,-5.0471,-4.926,-4.8413,-4.7586,-4.6817,-4.6374,-4.5951,-4.5594,-4.5594,-4.5594,-4.5594,-4.5594,-4.5335,-4.4951,-4.4587,-4.3908,-4.3117,-4.2277,-4.187,-4.1515,-4.1075,-4.104,-4.1109,-4.1109,-4.1109,-4.1109,-4.1109,-4.1109,-4.1109,-4.1109,-4.1109,-4.1109,-4.1109,-4.0327,-4.0151,-4.1031,-3.916,-3.7757,-3.7331,-3.6477,-3.5993,-3.5996,-3.5976,-3.5926,-3.5849,-3.5774,-3.5722,-3.5708,-3.5692,-3.6129,-3.6961,-3.7367,-3.7555,0.0,0.0,0.0,0.0,0.0,0.0,0.0,0.0,-5.1603,-5.2395,-5.3221,-5.4479,-5.6752,-5.7812,-5.8457,-5.8791,-5.932,-5.9486,-5.8885,-5.8739,-5.8716,-5.8716,-5.8716,-5.8716,-5.8716,-5.8568,-5.8215,-5.7565,-5.7212,-5.6432,-5.5076,-5.4853,-5.4481,-5.3831,-5.4838,-5.5373,-5.5274,-5.5541,-5.5616,-5.5499,-5.5764,-5.5598,-5.5072,-5.6167,-5.5786,-5.4184,-5.3164,-5.2318,-5.1625,-5.0971,-5.0712,-5.0712,-5.0712,-5.1106,-5.1692,-5.1846,-5.1692,-5.1356,-5.0875,-4.9913,-4.8682,-4.7336,-4.6797,-4.6528,-4.5806,-4.5594,-4.5594,-4.5594,-4.5594,-4.5556,-4.5402,-4.4816,-4.4251,-4.4051,-4.3017,-4.2053,-4.193,-4.1479,-4.108,-4.102,-4.1066,-4.1109,-4.1109,-4.1109,-4.1109,-4.1109,-4.1109,-4.1109,-4.1109,-4.1109,-4.1109,-4.1109,-4.0327,-3.9956,-4.033,-3.9437,-3.8115,-3.6363,-3.6404,-3.6425,-3.6269,-3.625,-3.6131,-3.5895,-3.5838,-3.5778,-3.5698,-3.5698,-3.6381,-3.7709,-3.7864,-3.8212,-5.3164,-5.1741,-5.0587,-4.9644,-5.0529,-5.1788,0.0,0.0,-5.4288,-5.5096,-5.5942,-5.6885,-5.7942,-5.8559,-5.918,-5.9965,-5.963,-5.9252,-5.9159,-5.8905,-5.8716,-5.8716,-5.8716,-5.8716,-5.8716,-5.8048,-5.7602,-5.7509,-5.6134,-5.5206,-5.502,-5.4333,-5.3887,-5.3813,-5.4613,-5.4858,-5.4429,-5.5604,-5.5958,-5.5499,-5.5534,-5.5664,-5.5852,-5.5616,-5.4714,-5.326,-5.1664,-5.0923,-5.0827,-5.075,-5.0712,-5.0712,-5.0712,-5.077,-5.0914,-5.1645,-5.0971,-4.9779,-5.0462,-4.9144,-4.7163,-4.6962,-4.6374,-4.5729,-4.5633,-4.5594,-4.5594,-4.5594,-4.5594,-4.5421,-4.4643,-4.4374,-4.3935,-4.2537,-4.2139,-4.1917,-4.1259,-4.1113,-4.1108,-4.1085,-4.1087,-4.1109,-4.1109,-4.1109,-4.1109,-4.1109,-4.1109,-4.1109,-4.1109,-4.1109,-4.1109,-4.1109,-4.0327,-3.9237,-3.7836,-3.8971,-3.9015,-3.7264,-3.7889,-3.7968,-3.7187,-3.7148,-3.6756,-3.5914,-3.5838,-3.5778,-3.5698,-3.5698,-3.58,-3.5994,-3.6709,-3.8295,-5.5607,-5.4184,0.0,0.0,-5.3972,-5.4838,-5.4684,-5.5722,-5.6819,-5.7146,-5.7877,-5.8723,-5.9588,-5.9929,-6.0112,0.0,-6.0038,-5.9687,-5.9252,-5.9083,-5.874,-5.8068,-5.8011,-5.8196,-5.8661,-5.7973,-5.7323,-5.684,-5.5689,-5.4816,-5.4333,-5.398,-5.4017,-5.4481,-5.5317,-5.5655,-5.5473,-5.6009,-5.5935,-5.5212,-5.513,-5.5164,-5.5299,-5.4982,-5.3953,-5.2385,-5.1202,-5.0712,-5.0712,-5.0712,-5.0712,-5.0712,-5.0712,-5.0712,-5.075,-5.1087,-5.0433,-4.9375,-4.924,-4.8182,-4.6817,-4.6317,-4.5893,-4.5594,-4.5594,-4.5594,-4.5594,-4.5594,-4.5594,-4.5402,-4.4528,-4.3978,-4.3349,-4.2183,-4.1669,-4.1381,-4.1062,-4.1059,-4.1109,-4.1109,-4.1109,-4.1109,-4.1109,-4.1109,-4.1109,-4.1109,-4.1109,-4.1109,-4.1109,-4.1109,-4.0915,-4.0451,-4.049,-3.9887,-3.8195,-3.9193,-3.9371,-3.8123,-3.8398,-3.8203,-3.7344,-3.7305,-3.6875,-3.5972,-3.5892,-3.5831,-3.5768,-3.5728,-3.6193,-3.7154,-3.7502,-3.8798,-5.6376,0.0,0.0,-5.5549,-5.6703,-5.7484,-5.6607,-5.7742,-5.8992,-5.8992,-5.9454,-6.005,-6.0685,-6.08,-6.0722,-6.0494,-6.0368,-6.0097,-5.9587,-5.9225,-5.8671,-5.7748,-5.7428,-5.7481,-5.7992,-5.7305,-5.658,-5.5986,-5.515,-5.4407,-5.3831,-5.4017,-5.4407,-5.4983,-5.5856,-5.619,-5.5949,-5.5949,-5.5522,-5.4667,-5.4418,-5.4356,-5.4442,-5.3981,-5.3087,-5.1865,-5.1048,-5.0712,-5.0712,-5.0712,-5.0712,-5.0712,-5.0712,-5.0712,-5.0712,-5.0712,-4.999,-4.8913,-4.8067,-4.724,-4.6432,-4.5806,-4.5594,-4.5594,-4.5594,-4.5594,-4.5594,-4.5594,-4.5594,-4.5344,-4.4239,-4.359,-4.2931,-4.1859,-4.1295,-4.1016,-4.1014,-4.1068,-4.1109,-4.1109,-4.1109,-4.1109,-4.1109,-4.1109,-4.1109,-4.1109,-4.1091,-4.1093,-4.1093,-4.1094,-4.0883,-4.0282,-4.075,-4.0518,-3.9078,-3.9743,-3.9862,-3.9003,-3.918,-3.8926,-3.8047,-3.8027,-3.7617,-3.6738,-3.6623,-3.6569,-3.6512,-3.6433,-3.7017,-3.8193,-3.8193,-3.9011,0.0,0.0,-5.5665,-5.5684,-5.7588,-5.9204,-5.8396,-5.9511,-6.0723,-6.0723,-6.0742,-6.0762,-6.08,-6.08,-6.08,-6.0788,-6.052,-6.0293,-6.0265,-5.9262,-5.8396,-5.8031,-5.7245,-5.6631,0.0,-5.5596,-5.5076,-5.5039,-5.4296,-5.3831,-5.3813,-5.4556,-5.4983,-5.5001,-5.5856,-5.5893,-5.5057,-5.5039,-5.463,-5.3831,-5.3301,-5.3236,-5.3499,-5.2457,-5.1942,-5.1865,-5.1048,-5.0712,-5.0712,-5.0712,-5.0712,-5.0712,-5.0712,-5.0712,-5.0712,-5.0712,-4.9606,-4.8029,-4.7212,-4.6374,-4.5633,-4.5614,-4.5594,-4.5594,-4.5594,-4.5594,-4.5594,-4.5594,-4.5594,-4.5229,-4.3566,-4.3165,-4.2802,-4.1203,-4.0914,-4.1028,-4.108,-4.1108,-4.1109,-4.1109,-4.1109,-4.1109,-4.1109,-4.1109,-4.1109,-4.1109,-4.1094,-4.1098,-4.1098,-4.1103,-4.1087,-4.1068,-4.1087,-4.0757,-3.9939,-4.0603,-4.0722,-3.9902,-4.0644,-4.0723,-3.9863,-3.9824,-3.9414,-3.8535,-3.8397,-3.8324,-3.8324,-3.8195,-3.816,-3.8193,-3.8193,-3.8682,0.0,0.0,-5.755,-5.8088,-5.93,-6.0281,-6.0012,-6.0396,-6.08,-6.08,-6.0339,-5.9935,-5.9935,-5.9492,-5.9319,-5.9858,-5.9845,-5.9684,-5.9467,-5.9584,-5.8931,-5.6903,-5.6726,0.0,0.0,0.0,0.0,-5.5001,-5.4258,-5.4035,-5.4574,-5.4853,-5.528,-5.5837,-5.6153,-5.5893,-5.502,-5.5001,-5.441,-5.3265,-5.2949,-5.2672,-5.2434,-5.2062,-5.1606,-5.1087,-5.0827,-5.0712,-5.0712,-5.0712,-5.0712,-5.0712,-5.0712,-5.0712,-5.0558,-4.9394,-4.8606,-4.8067,-4.7798,-4.6778,-4.5594,-4.5594,-4.5594,-4.5594,-4.5594,-4.5594,-4.5594,-4.5594,-4.5594,-4.5351,-4.4307,-4.3679,-4.3061,-4.2046,-4.1421,-4.1074,-4.1106,-4.1109,-4.1109,-4.1109,-4.1109,-4.1109,-4.1109,-4.1093,-4.1098,-4.1102,-4.11,-4.11,-4.1104,-4.1106,-4.1108,-4.1091,-4.1091,-4.1014,-4.0781,-4.1015,-4.1054,-4.0781,-4.1035,-4.0801,-3.9941,-3.9902,-3.9471,-3.8543,-3.8486,-3.8419,-3.8323,-3.8282,-3.8542,-3.9056,-3.9056,-3.9539,-5.5992,-5.7203,-5.8569,-5.9685,-6.0396,-6.08,-6.08,-6.08,-6.0704,-6.0396,-5.9665,-5.9069,-5.9069,-5.8146,-5.7742,-5.8896,-5.9069,-5.9107,-5.9166,-5.9409,-5.8844,-5.6877,-5.6421,-5.5794,0.0,0.0,0.0,-5.4556,-5.4091,-5.4035,-5.4556,-5.4853,-5.5261,-5.5819,-5.5837,-5.5577,-5.502,-5.4522,-5.3671,-5.2466,-5.2328,-5.1986,-5.1471,-5.1471,-5.1183,-5.0712,-5.0712,-5.0712,-5.0712,-5.0712,-5.0712,-5.0712,-5.0712,-5.0712,-5.0539,-4.9086,-4.8375,-4.8009,-4.7413,-4.649,-4.5594,-4.5594,-4.5594,-4.5594,-4.5594,-4.5594,-4.5603,-4.5651,-4.5668,-4.5495,-4.4763,-4.4009,-4.324,-4.2484,-4.1683,-4.1109,-4.1109,-4.1109,-4.1109,-4.1109,-4.1091,-4.1093,-4.1093,-4.1098,-4.1104,-4.1108,-4.1107,-4.1105,-4.1108,-4.113,-4.1131,-4.1132,-4.1132,-4.1152,-4.1191,-4.1191,-4.1191,-4.1191,-4.1191,-4.0937,-4.0349,-4.0329,-4.0027,-3.9406,-3.9368,-3.9319,-3.9232,-3.9214,-3.9453,-3.9965,-3.9965,-4.0255,-5.6618,-5.7723,-5.8819,-6.0396,-6.08,-6.0781,-6.0742,-6.0704,-6.0416,-5.955,-5.8704,-5.8088,0.0,0.0,-5.6184,-5.7896,-5.8242,-5.8588,-5.9396,-5.8838,-5.822,0.0,0.0,0.0,0.0,0.0,0.0,-5.3814,0.0,-5.3794,-5.3869,-5.4612,-5.504,-5.506,-5.504,-5.5022,-5.5004,-5.3654,-5.2485,-5.1488,-5.1474,-5.1193,-5.0712,-5.0712,-5.0712,-5.0712,-5.0712,-5.0712,-5.0712,-5.0712,-5.0712,-5.0712,-5.0712,-5.0712,-5.0596,-4.9663,-4.8817,-4.7855,-4.6191,-4.5594,-4.5594,-4.5594,-4.5594,-4.5594,-4.5594,-4.5603,-4.5646,-4.5764,-4.5794,-4.5654,-4.4957,-4.4132,-4.3309,-4.2559,-4.1725,-4.1109,-4.1109,-4.1109,-4.1109,-4.1109,-4.1095,-4.1099,-4.1099,-4.1104,-4.1108,-4.1092,-4.1112,-4.1112,-4.1112,-4.1152,-4.1191,-4.1191,-4.1191,-4.1191,-4.1191,-4.1191,-4.1191,-4.1191,-4.1191,-4.1169,-4.1091,-4.1108,-4.1068,-4.1007,-4.0932,-4.0903,-4.0898,-4.0831,-4.0797,-4.0797,-4.0797,-4.0797,-5.7684,-5.9031,-6.0262,-6.0685,-6.08,-6.0627,-5.9973,-5.9377,-5.8684,-5.7819,-5.6472,-5.528,0.0,0.0,0.0,-5.6184,-5.7453,0.0,-5.9396,-5.9319,0.0,-5.7355,0.0,-5.5912,-5.5235,-5.4676,0.0,0.0,-5.3768,-5.3802,-5.5002,-5.5264,-5.55,-5.5737,-5.5499,-5.52,-5.4845,-5.3466,-5.2354,-5.1501,-5.1083,-5.0826,-5.0712,-5.0712,-5.0712,-5.0712,-5.0712,-5.0712,-5.0712,-5.0712,-5.0712,-5.0712,-5.0712,-5.0712,-5.0519,-4.899,-4.8298,-4.7855,-4.6191,-4.5594,-4.5594,-4.5594,-4.5594,-4.5594,-4.5594,-4.5668,-4.5757,-4.5793,-4.5841,-4.5845,-4.5775,-4.4623,-4.3478,-4.337,-4.2199,-4.1097,-4.1097,-4.1097,-4.1097,-4.1097,-4.1098,-4.1101,-4.1108,-4.109,-4.1111,-4.1172,-4.1172,-4.1172,-4.1172,-4.1191,-4.1191,-4.1191,-4.1191,-4.1191,-4.1191,-4.1191,-4.1191,-4.1191,-4.1147,-4.1116,-4.1109,-4.1059,-4.0987,-4.0924,-4.0902,-4.0888,-4.0825,-4.0809,-4.0797,-4.0797,-4.0797,-4.0797,-5.8611,-5.9781,-6.08,-6.08,-6.0512,-6.0012,-5.9165,-5.8338,-5.7376,-5.6145,-5.4857,0.0,0.0,0.0,0.0,0.0,0.0,0.0,-5.828,-5.8396,-5.805,0.0,-5.6495,0.0,-5.5531,-5.4842,-5.4623,0.0,-5.4281,-5.4245,-5.5133,-5.519,-5.5271,-5.5458,-5.5287,-5.4764,-5.3878,-5.3086,-5.2172,-5.1157,-5.0835,-5.0712,-5.0712,-5.0712,-5.0712,-5.0712,0.0,-5.0712,-5.0712,-5.0712,-5.0712,-5.0712,-5.0712,-5.0712,-5.0539,-4.9163,-4.8432,-4.7913,-4.6624,-4.5913,-4.5594,-4.5594,-4.5594,-4.5612,-4.5668,-4.5734,-4.5815,-4.5908,-4.5964,-4.6009,-4.6147,-4.5187,-4.418,-4.425,-4.3225,-4.2233,-4.2235,-4.2236,-4.2138,-4.173,-4.1359,-4.1108,-4.1132,-4.1132,-4.1152,-4.1191,-4.1191,-4.1191,-4.1191,-4.1191,-4.1191,-4.1191,-4.1191,-4.1191,-4.1191,-4.1191,-4.1191,-4.1168,-4.1117,-4.1074,-4.1009,-4.0986,-4.0924,-4.0862,-4.0856,-4.0843,-4.0797,-4.0797,-4.0797,-4.0797,-4.0797,-4.0797,-5.9526,-6.025,-6.0827,-6.0793,-6.0146,-5.9261,-5.8338,-5.7376,-5.6195,-5.4491,0.0,0.0,-5.2722,0.0,-5.2423,-5.4068,0.0,-5.603,-5.7041,-5.708,-5.7003,-5.7003,-5.6233,-5.5703,-5.5703,-5.4806,-5.4541,-5.5294,-5.5078,-5.4909,-5.4866,-5.4866,-5.4866,-5.4866,-5.4909,-5.4218,-5.2784,-5.2765,-5.2066,-5.0712,-5.0712,-5.0712,-5.0712,-5.0712,-5.0712,-5.0712,-5.0712,0.0,-5.0712,-5.0712,-5.0712,-5.0712,-5.0712,-5.0712,-5.0596,-4.9721,-4.8913,-4.8163,-4.7336,-4.649,-4.5748,-4.5633,-4.5612,-4.5654,-4.5764,-4.5815,-4.5872,-4.6041,-4.6109,-4.6147,-4.6273,-4.5656,-4.4995,-4.5001,-4.4322,-4.37,-4.3705,-4.3706,-4.3472,-4.2713,-4.1951,-4.1464,-4.1523,-4.1445,-4.1406,-4.1504,-4.1348,-4.123,-4.1348,-4.1269,-4.1191,-4.1191,-4.1191,-4.1191,-4.1191,-4.1191,-4.1168,-4.1091,-4.108,-4.1014,-4.0897,-4.0893,-4.0862,-4.0797,-4.0797,-4.0797,-4.0797,-4.0797,-4.0797,-4.0797,-4.0797,-4.0797,-6.0557,-6.0848,-6.0943,-6.0839,-6.0146,-5.9108,-5.7558,-5.6049,0.0,0.0,0.0,-5.0914,-5.0183,-5.1068,0.0,-5.326,0.0,0.0,0.0,0.0,-5.7003,0.0,0.0,0.0,0.0,0.0,0.0,0.0,0.0,-5.5449,-5.5236,-5.5204,-5.5204,-5.5204,-5.5437,-5.4759,-5.314,-5.3102,-5.2296,-5.0712,-5.0712,-5.0712,-5.0712,-5.0712,-5.0712,-5.0712,-5.0712,0.0,-5.0712,-5.0712,-5.0712,-5.0712,-5.0712,-5.0712,-5.0596,-4.9721,-4.9298,-4.9048,-4.8202,-4.7355,-4.6567,-4.5825,-4.5676,-4.5771,-4.58,-4.5919,-4.6064,-4.6091,-4.6178,-4.6273,-4.6298,-4.5641,-4.5001,-4.5003,-4.4327,-4.3708,-4.3708,-4.3709,-4.367,-4.3494,-4.3358,-4.3241,-4.3262,-4.2676,-4.2441,-4.3164,-4.209,-4.1445,-4.2109,-4.1601,-4.1191,-4.1191,-4.1191,-4.1191,-4.1191,-4.1146,-4.1115,-4.1109,-4.099,-4.0924,-4.0907,-4.084,-4.0815,-4.0797,-4.0797,-4.0797,-4.0797,-4.0797,-4.0797,-4.0797,-4.0797,-4.0797,-6.0918,-6.1055,-6.0877,-6.0392,-5.9226,-5.7761,-5.6088,0.0,0.0,0.0,0.0,-5.0577,-5.0144,-5.1087,0.0,0.0,0.0,0.0,0.0,0.0,0.0,0.0,0.0,0.0,0.0,0.0,0.0,0.0,0.0,-5.564,-5.5527,-5.5516,-5.5516,-5.5516,-5.5226,-5.4472,-5.3222,-5.275,-5.1914,-5.0712,-5.0712,-5.0712,-5.0712,-5.0712,-5.0712,-5.0712,-5.0712,0.0,-5.0712,-5.0712,-5.0712,-5.0712,-5.0712,-5.0712,-5.0654,-5.0231,-4.9779,-4.9336,-4.8913,-4.7976,-4.6954,-4.6989,-4.6464,-4.5815,-4.5911,-4.6016,-4.6109,-4.6181,-4.6245,-4.6302,-4.6306,-4.5997,-4.5689,-4.5676,-4.5368,-4.5058,-4.5058,-4.4707,-4.4374,-4.4374,-4.4003,-4.3691,-4.3691,-4.3359,-4.3223,-4.3633,-4.2637,-4.1953,-4.2344,-4.1699,-4.1191,-4.1191,-4.1191,-4.1191,-4.1191,-4.117,-4.1117,-4.1059,-4.1,-4.0915,-4.0851,-4.0827,-4.0797,-4.0797,-4.0797,-4.0797,-4.0797,-4.0797,-4.0797,-4.0797,-4.0797,-4.0797,-6.0857,-6.1046,-6.0896,-6.0048,-5.8423,-5.6557,-5.4679,-5.3041,0.0,0.0,0.0,-5.0712,-5.0712,-5.1221,-5.1692,0.0,0.0,0.0,0.0,0.0,0.0,0.0,0.0,0.0,0.0,0.0,0.0,0.0,0.0,0.0,-5.5703,-5.5703,-5.5703,-5.5703,-5.4914,-5.4087,-5.3222,-5.2327,-5.151,-5.0712,-5.0712,-5.0712,-5.0712,-5.0712,-5.0712,-5.0712,-5.0712,0.0,0.0,-5.077,-5.0808,-5.0933,-5.077,-5.0712,-5.0712,-5.0712,-5.0269,-4.9673,-4.972,-4.8775,-4.7683,-4.8418,-4.7372,-4.5935,-4.6275,-4.6268,-4.6153,-4.6273,-4.63,-4.6303,-4.6291,-4.6294,-4.6299,-4.6306,-4.6308,-4.6308,-4.6308,-4.5762,-4.5273,-4.5273,-4.4726,-4.4258,-4.4258,-4.4101,-4.4043,-4.4238,-4.3359,-4.2754,-4.293,-4.2246,-4.1738,-4.1738,-4.1406,-4.1191,-4.1191,-4.117,-4.1114,-4.1016,-4.0963,-4.0902,-4.0803,-4.0797,-4.0797,-4.0797,-4.0797,-4.0797,-4.0797,-4.0797,-4.0797,-4.0797,-4.0797,-4.0797,-6.0311,-6.0862,-6.122,-6.0222,-5.8568,-5.6545,-5.4069,0.0,0.0,0.0,-5.0144,-5.0712,-5.0712,-5.077,0.0,0.0,0.0,0.0,0.0,0.0,0.0,0.0,0.0,0.0,0.0,0.0,0.0,0.0,0.0,0.0,-5.5703,-5.5703,-5.5703,-5.5703,-5.4914,-5.4087,-5.3222,-5.2327,-5.151,-5.0712,-5.0712,-5.0712,-5.0712,-5.0712,-5.0712,-5.0712,-5.0712,0.0,0.0,-5.0991,-5.1125,-5.1712,-5.0991,-5.0712,-5.0712,-5.0712,-5.0654,-5.0596,-5.0717,-5.0144,-4.9391,-4.9664,-4.8082,-4.6216,-4.703,-4.6805,-4.6277,-4.63,-4.63,-4.6303,-4.6291,-4.6297,-4.6303,-4.6308,-4.6308,-4.6308,-4.6308,-4.623,-4.6172,-4.6172,-4.6113,-4.6055,-4.6055,-4.5391,-4.5156,-4.5937,-4.4648,-4.3867,-4.4668,-4.4004,-4.3476,-4.3476,-4.2109,-4.1191,-4.1191,-4.1081,-4.1006,-4.0994,-4.0888,-4.0802,-4.0797,-4.0797,-4.0797,-4.0797,-4.0797,-4.0797,-4.0797,-4.0797,-4.0797,-4.0797,-4.0797,-4.0797,-6.0051,-6.091,-6.115,-5.9707,-5.7889,-5.5797,-5.3204,0.0,0.0,-4.9644,-5.0087,-5.0539,-5.001,-5.0346,-5.0625,0.0,-5.0837,0.0,0.0,0.0,0.0,0.0,0.0,0.0,0.0,0.0,0.0,0.0,0.0,0.0,-5.5703,-5.5703,-5.5703,-5.5703,-5.4414,-5.3549,-5.3203,-5.1856,-5.101,-5.0712,-5.0712,-5.0712,-5.0712,-5.0712,-5.0712,-5.0712,-5.0712,0.0,0.0,-5.1029,-5.1164,-5.1808,-5.101,-5.0712,-5.0712,-5.0712,-5.0749,-5.0836,-5.0871,-5.0409,-4.9877,-5.0497,-4.9345,-4.7796,-4.8147,-4.8042,-4.7803,-4.7803,-4.7826,-4.7735,-4.7214,-4.6694,-4.6308,-4.6308,-4.6308,-4.6308,-4.6308,-4.6308,-4.6308,-4.6308,-4.6308,-4.6308,-4.6308,-4.6016,-4.5898,-4.625,-4.5254,-4.4609,-4.4961,-4.4238,-4.3691,-4.3691,-4.3105,-4.2694,-4.2646,-4.2604,-4.2535,-4.2458,-4.2398,-4.2108,-4.1551,-4.1525,-4.1293,-4.0816,-4.0797,-4.0797,-4.0797,-4.0797,-4.0797,-4.0816,-4.1293,-4.1255,-5.8948,-6.0012,-6.0438,-5.894,-5.7103,-5.4994,0.0,0.0,-5.0385,-4.924,-4.9913,-5.0519,-4.9894,-5.0067,-5.0212,0.0,-5.0067,-5.0683,-5.175,0.0,0.0,0.0,0.0,0.0,0.0,0.0,0.0,0.0,0.0,0.0,-5.5703,-5.5703,-5.5703,-5.5703,-5.4068,-5.3203,-5.3203,-5.1529,-5.0712,-5.0712,-5.0712,-5.0712,-5.0712,-5.0712,-5.0712,-5.0712,-5.0712,0.0,0.0,-5.1029,-5.1164,-5.1808,-5.101,-5.0712,-5.0693,-5.074,-5.0827,-5.091,-5.0977,-5.0678,-5.0388,-5.1053,-5.0486,-4.956,-4.9563,-4.9214,-4.8821,-4.8821,-4.8868,-4.87,-4.7826,-4.7147,-4.668,-4.668,-4.6484,-4.6445,-4.6953,-4.666,-4.6387,-4.6621,-4.6484,-4.6308,-4.6308,-4.6308,-4.6308,-4.6308,-4.5781,-4.5371,-4.5369,-4.4821,-4.443,-4.4404,-4.4403,-4.4185,-4.3643,-4.3561,-4.35,-4.3408,-4.3391,-4.3063,-4.2422,-4.2376,-4.2125,-4.1545,-4.1545,-4.1545,-4.1545,-4.1545,-4.1545,-4.1545,-4.2125,-4.2086,-5.6626,-5.7853,-5.8907,-5.8031,-5.6355,-5.4237,0.0,-5.0902,-5.0212,-4.8471,-4.949,-5.0712,-5.0693,-4.999,-4.9683,-5.0558,-4.9971,0.0,0.0,0.0,0.0,0.0,0.0,0.0,0.0,0.0,0.0,0.0,0.0,0.0,-5.5703,-5.5703,-5.5703,-5.5703,-5.4068,-5.3203,-5.3203,-5.1529,-5.0712,-5.0712,-5.0712,-5.0712,-5.0712,-5.0712,-5.0712,0.0,0.0,0.0,0.0,-5.1029,-5.1164,-5.1808,-5.101,-5.0712,-5.0712,-5.085,-5.0894,-5.094,-5.1138,-5.118,-5.1214,-5.136,-5.1394,-5.1377,-5.1367,-5.0217,-4.8909,-4.8909,-4.8899,-4.8709,-4.783,-4.7597,-4.7598,-4.7598,-4.6933,-4.6777,-4.8496,-4.7519,-4.6562,-4.7422,-4.6894,-4.6308,-4.6308,-4.6308,-4.6308,-4.6308,-4.6289,-4.6268,-4.6207,-4.6184,-4.6147,-4.607,-4.6082,-4.5406,-4.3738,-4.3475,-4.3403,-4.3398,-4.3336,-4.3305,-4.3285,-4.3285,-4.3285,-4.3266,-4.3266,-4.3266,-4.3266,-4.3266,-4.3266,-4.3266,-4.3285,-4.3285,-5.5552,-5.6528,-5.7172,-5.6313,-5.505,-5.3493,-5.1556,-5.0894,-5.0366,-4.9221,-4.9894,-5.0519,-4.9913,-5.0067,-5.0385,-5.0654,0.0,0.0,0.0,0.0,0.0,0.0,0.0,0.0,0.0,0.0,0.0,0.0,0.0,0.0,-5.5703,-5.5184,-5.4876,-5.4876,-5.3799,-5.2914,-5.2308,-5.1241,-5.0712,-5.0712,-5.0712,-5.0712,-5.0712,-5.0712,-5.0712,0.0,0.0,0.0,0.0,-5.1029,-5.1164,-5.1808,-5.101,-5.0758,-5.0841,-5.0871,-5.0985,-5.1103,-5.1183,-5.1255,-5.1335,-5.139,-5.1394,-5.1396,-5.1407,-5.1039,-5.061,-5.0618,-5.0212,-4.9725,-4.9453,-4.8926,-4.834,-4.7734,-4.7832,-4.7891,-4.7266,-4.7168,-4.709,-4.6777,-4.6484,-4.6308,-4.6308,-4.6308,-4.6288,-4.624,-4.6237,-4.6207,-4.6139,-4.6134,-4.6125,-4.6102,-4.6067,-4.5827,-4.5289,-4.5196,-4.5143,-4.5054,-4.5015,-4.4755,-4.4207,-4.4188,-4.3904,-4.3305,-4.3305,-4.3305,-4.3305,-4.3305,-4.3614,-4.4168,-4.3576,-4.3614,0.0,-5.4966,-5.5493,-5.4947,-5.3743,-5.241,-5.1347,-5.0681,-5.0113,-4.9528,-5.0087,-5.0539,-4.999,-5.0067,-5.0212,-5.0212,0.0,0.0,0.0,0.0,0.0,0.0,0.0,0.0,0.0,0.0,0.0,0.0,0.0,0.0,-5.4761,-5.428,-5.3857,-5.353,-5.2991,-5.2442,-5.1904,-5.1106,-5.0712,-5.0712,-5.0712,-5.0712,-5.0712,-5.0712,-5.0712,0.0,0.0,0.0,0.0,-5.0914,-5.0991,-5.1404,-5.0942,-5.0836,-5.091,-5.0985,-5.1097,-5.1207,-5.1255,-5.133,-5.1394,-5.1394,-5.14,-5.1407,-5.1395,-5.1397,-5.1399,-5.1405,-5.1035,-5.0585,-5.0273,-4.9805,-4.9258,-4.8711,-4.8496,-4.8281,-4.7851,-4.7422,-4.7051,-4.6836,-4.6523,-4.6406,-4.6738,-4.6502,-4.636,-4.6656,-4.6386,-4.6139,-4.6064,-4.6052,-4.6039,-4.5983,-4.5961,-4.5916,-4.5916,-4.5916,-4.5899,-4.5814,-4.5807,-4.5568,-4.5065,-4.5045,-4.4794,-4.4253,-4.4233,-4.4233,-4.4233,-4.4233,-4.4523,-4.5045,-4.4504,-4.4523,0.0,-5.3093,-5.3815,-5.3815,-5.2506,-5.1183,-5.1106,-5.0364,0.0,-4.9509,-5.0144,-5.0712,-5.0712,-5.0029,-4.951,-4.9567,0.0,0.0,0.0,0.0,0.0,0.0,0.0,0.0,0.0,0.0,0.0,0.0,0.0,0.0,-5.3241,-5.3145,-5.2741,-5.1923,-5.1846,-5.1808,-5.1808,-5.1068,-5.0712,-5.0712,-5.0712,-5.0712,-5.0712,-5.0712,-5.0712,0.0,0.0,0.0,0.0,-5.0712,-5.0721,-5.0731,-5.085,-5.091,-5.0942,-5.1138,-5.1207,-5.1222,-5.136,-5.1394,-5.1394,-5.1394,-5.1408,-5.14,-5.1404,-5.1405,-5.1405,-5.1406,-5.1406,-5.123,-5.0488,-5.0293,-5.0273,-5.0215,-4.9004,-4.8281,-4.9785,-4.8203,-4.6719,-4.7539,-4.6973,-4.666,-4.7539,-4.6942,-4.6646,-4.7444,-4.6836,-4.6216,-4.6099,-4.6083,-4.6005,-4.5821,-4.5807,-4.5807,-4.5807,-4.5807,-4.5807,-4.5807,-4.5807,-4.5807,-4.5807,-4.5807,-4.5807,-4.5807,-4.5807,-4.5807,-4.5807,-4.5807,-4.5807,-4.5807,-4.5807,-4.5807,-4.9833,0.0,-5.2019,-5.2019,-5.1609,-5.1178,0.0,-5.081,0.0,0.0,0.0,0.0,0.0,0.0,0.0,0.0,0.0,0.0,0.0,0.0,0.0,0.0,0.0,0.0,0.0,0.0,0.0,0.0,0.0,-5.3414,-5.3222,-5.2558,-5.2115,-5.1904,-5.1298,-5.0971,-5.0971,-5.0789,-5.0712,-5.0712,-5.0712,-5.0712,-5.0712,-5.0712,-5.0712,0.0,0.0,0.0,-5.0712,-5.0712,-5.0758,-5.0858,-5.0898,-5.0998,-5.1142,-5.1187,-5.1258,-5.136,-5.139,-5.1394,-5.1396,-5.1403,-5.1396,-5.1404,-5.1404,-5.1405,-5.1406,-5.1406,-5.1406,-5.1367,-5.1172,-5.1113,-5.0957,-5.0351,-5.0351,-5.0273,-4.9394,-4.8711,-4.8359,-4.8555,-4.7846,-4.7479,-4.8301,-4.8223,-4.8082,-4.8234,-4.8083,-4.7681,-4.6933,-4.6842,-4.6577,-4.5865,-4.5807,-4.5807,-4.5807,-4.5807,-4.5807,-4.5807,-4.5807,-4.5807,-4.5807,-4.5807,-4.5807,-4.5807,-4.5807,-4.5807,-4.5807,-4.5807,-4.5807,-4.5807,-4.5807,-4.5807,-4.8935,-4.9774,-5.0809,-5.0809,-5.075,-5.0757,-5.0945,0.0,0.0,0.0,0.0,0.0,0.0,0.0,0.0,0.0,0.0,0.0,0.0,0.0,0.0,0.0,0.0,0.0,0.0,0.0,0.0,0.0,0.0,-5.2452,-5.2068,-5.1606,-5.1356,-5.1356,-5.0933,-5.0712,-5.0712,-5.0712,-5.0712,-5.0712,-5.0712,-5.0712,-5.0712,-5.0712,-5.0712,0.0,0.0,0.0,-5.0712,-5.0712,-5.0785,-5.0902,-5.093,-5.1045,-5.1207,-5.1262,-5.1333,-5.1394,-5.1394,-5.1398,-5.1403,-5.1391,-5.14,-5.1405,-5.1405,-5.1406,-5.1406,-5.1406,-5.1406,-5.1406,-5.1406,-5.1406,-5.1289,-5.0859,-5.0801,-5.0605,-4.9687,-4.918,-4.8906,-4.8906,-4.8448,-4.8326,-4.9146,-4.8879,-4.8677,-4.9032,-4.8741,-4.8263,-4.7768,-4.7347,-4.6922,-4.6445,-4.6039,-4.5962,-4.6368,-4.6039,-4.5807,-4.5807,-4.5807,-4.5807,-4.5807,-4.5807,-4.5807,-4.5807,-4.5807,-4.5807,-4.5807,-4.5807,-4.5807,-4.5807,-4.5807,-4.5807,-4.8623,-4.9345,-5.0104,-5.0104,-5.0202,-5.0433,0.0,0.0,0.0,0.0,0.0,0.0,0.0,0.0,0.0,0.0,0.0,0.0,0.0,0.0,0.0,0.0,0.0,0.0,0.0,0.0,0.0,0.0,0.0,-5.1414,-5.075,-5.0712,-5.0712,-5.0712,-5.0712,-5.0712,-5.0712,-5.0712,-5.0712,-5.0712,-5.0712,-5.0712,-5.0712,-5.0712,-5.0712,-5.0712,0.0,0.0,-5.0693,-5.0721,-5.0791,-5.0928,-5.1004,-5.1099,-5.1248,-5.136,-5.1394,-5.1394,-5.1396,-5.1403,-5.1393,-5.1398,-5.1402,-5.1405,-5.1406,-5.1406,-5.1406,-5.1406,-5.1406,-5.1406,-5.1406,-5.1406,-5.1406,-5.1406,-5.0879,-5.0371,-5.037,-4.9687,-4.91,-4.9235,-4.904,-4.9142,-5.0023,-4.9439,-4.9128,-4.9852,-4.929,-4.874,-4.8604,-4.7947,-4.7444,-4.7308,-4.6631,-4.6503,-4.7231,-4.6619,-4.6194,-4.6194,-4.5962,-4.5807,-4.5807,-4.5807,-4.5807,-4.5807,-4.5807,-4.5807,-4.5807,-4.5807,-4.5807,-4.5807,-4.5807,-4.5807,-4.7781,-4.8913,-5.0104,-5.0104,-5.0651,-5.1184,0.0,0.0,0.0,0.0,0.0,0.0,0.0,0.0,0.0,0.0,0.0,0.0,0.0,0.0,0.0,0.0,0.0,0.0,0.0,0.0,0.0,0.0,0.0,-5.0827,-5.0712,-5.0712,-5.0712,-5.0712,-5.0712,-5.0712,-5.0712,-5.0712,-5.0712,-5.0712,-5.0712,-5.0712,-5.0712,-5.0712,-5.0712,-5.0712,0.0,-5.0712,-5.0702,-5.0808,-5.0908,-5.101,-5.1123,-5.1252,-5.1364,-5.1392,-5.1394,-5.1396,-5.1405,-5.1393,-5.1398,-5.1403,-5.1405,-5.1406,-5.1406,-5.1406,-5.1406,-5.1406,-5.1406,-5.1406,-5.1406,-5.1406,-5.1406,-5.1406,-5.1308,-5.1191,-5.1136,-5.0445,-5.0026,-5.0703,-5.0192,-4.9901,-5.0786,-5.0701,-5.0588,-5.0704,-5.0604,-5.026,-4.9591,-4.9378,-4.903,-4.8275,-4.8082,-4.8063,-4.8198,-4.8082,-4.8005,-4.8005,-4.6619,-4.5807,-4.5807,-4.5807,-4.5807,-4.5807,-4.5807,-4.5807,-4.5807,-4.5807,-4.5807,-4.5807,-4.5807,-4.5807,-4.7022,-4.7803,-4.8855,-4.9286,-5.075,-5.195,0.0,0.0,0.0,0.0,0.0,0.0,0.0,0.0,0.0,0.0,0.0,0.0,0.0,0.0,0.0,0.0,0.0,0.0,0.0,0.0,0.0,0.0,0.0,0.0,-5.081,-5.073,-5.0712,-5.0712,-5.0712,-5.0712,-5.0712,-5.0712,-5.0712,-5.0712,-5.0712,-5.0712,-5.0712,-5.0712,-5.0712,-5.0712,0.0,-5.073,-5.0819,-5.0863,-5.0972,-5.1103,-5.1187,-5.1288,-5.1394,-5.1394,-5.1394,-5.1474,-5.1934,-5.1784,-5.1477,-5.195,-5.1777,-5.1484,-5.1953,-5.1777,-5.1504,-5.1973,-5.1758,-5.1406,-5.1406,-5.1406,-5.1406,-5.1406,-5.1365,-5.1335,-5.1301,-5.0962,-5.0755,-5.1129,-5.0831,-5.0633,-5.1022,-5.099,-5.0898,-5.0898,-5.0898,-5.0763,-5.0395,-4.9977,-4.9552,-4.9146,-4.8682,-4.8585,-4.9068,-4.8662,-4.8392,-4.8392,-4.7212,-4.6503,-4.6503,-4.6058,-4.602,-4.6484,-4.6503,-4.6728,-4.7192,-4.7192,-4.7192,-4.7192,-4.7192,-4.7192,-4.7022,-4.753,-4.8328,-4.8954,0.0,-5.1991,-5.1632,0.0,0.0,0.0,0.0,0.0,0.0,0.0,0.0,0.0,0.0,0.0,0.0,0.0,0.0,0.0,0.0,0.0,0.0,0.0,0.0,0.0,0.0,0.0,-5.0894,-5.0801,-5.074,-5.0693,-5.0712,-5.0712,-5.0712,-5.0712,-5.0712,-5.0712,-5.0712,-5.0712,-5.0712,-5.0712,-5.0712,-5.0712,-5.0712,-5.0785,-5.0894,-5.0913,-5.1035,-5.1203,-5.1222,-5.1436,-5.1707,-5.1707,-5.1826,-5.2103,-5.2776,-5.2568,-5.2124,-5.2791,-5.2558,-5.2129,-5.2793,-5.2539,-5.2148,-5.2812,-5.2519,-5.1914,-5.1504,-5.1406,-5.1406,-5.1386,-5.1335,-5.1291,-5.1266,-5.1218,-5.1165,-5.1142,-5.1084,-5.1056,-5.1056,-5.0961,-5.0898,-5.0898,-5.0898,-5.0898,-5.0898,-5.0357,-4.9977,-4.9977,-4.9378,-4.9262,-4.9919,-4.9378,-4.8991,-4.8991,-4.7985,-4.7405,-4.7405,-4.6748,-4.6709,-4.7386,-4.7405,-4.7734,-4.8392,-4.8392,-4.8392,-4.8392,-4.8392,-4.8392,-4.8427,-4.9267,-4.9928,-4.9987,0.0,0.0,0.0,0.0,0.0,0.0,0.0,0.0,0.0,0.0,0.0,0.0,0.0,0.0,0.0,0.0,0.0,0.0,0.0,0.0,0.0,0.0,0.0,0.0,0.0,0.0,-5.0902,-5.0879,-5.0836,-5.0693,-5.0712,-5.0712,-5.0712,-5.0712,-5.0712,-5.0712,-5.0712,-5.0712,-5.0712,-5.0712,-5.0712,-5.0712,-5.0712,-5.0785,-5.0902,-5.0959,-5.1069,-5.1211,-5.1333,-5.19,-5.2607,-5.2607,-5.312,-5.381,-5.3876,-5.3862,-5.3826,-5.3886,-5.3867,-5.3828,-5.3887,-5.3867,-5.3828,-5.3887,-5.3867,-5.3437,-5.1816,-5.1406,-5.1386,-5.1328,-5.1299,-5.1272,-5.1137,-5.1103,-5.1062,-5.0947,-5.0929,-5.0914,-5.0914,-5.0906,-5.0898,-5.0898,-5.0898,-5.0898,-5.0898,-5.084,-5.0801,-5.0801,-5.0763,-5.0743,-5.0801,-5.0763,-5.0724,-5.0724,-4.9204,-4.8314,-4.8314,-4.8256,-4.8237,-4.8314,-4.8314,-4.8333,-4.8392,-4.8392,-4.8392,-4.8392,-4.8392,-4.8392,-4.7315,-4.749,-4.7861,-4.8406,0.0,0.0,0.0,0.0,0.0,0.0,0.0,0.0,0.0,0.0,0.0,0.0,0.0,0.0,0.0,0.0,0.0,0.0,0.0,0.0,0.0,0.0,0.0,0.0,0.0,0.0,-5.0979,-5.0928,-5.0833,-5.0693,-5.0712,-5.0712,-5.0712,-5.0712,-5.0712,-5.0712,-5.0712,-5.0712,-5.0712,-5.0712,-5.0712,-5.0693,-5.0784,-5.0875,-5.0959,-5.1088,-5.1203,-5.1389,-5.1974,-5.2411,-5.2763,-5.3307,-5.3725,-5.4084,-5.4619,-5.4449,-5.4081,-5.4629,-5.4433,-5.4101,-5.4648,-5.4433,-5.4101,-5.4668,-5.4414,-5.3848,-5.3183,-5.2575,-5.229,-5.2782,-5.2412,-5.2062,-5.256,-5.2628,-5.2581,-5.2519,-5.2511,-5.2511,-5.2511,-5.2511,-5.2337,-5.1796,-5.1718,-5.1505,-5.0975,-5.0898,-5.0898,-5.0898,-5.0898,-5.0898,-5.0898,-5.0898,-5.0898,-5.0898,-4.9842,-4.9204,-4.9204,-4.8682,-4.8643,-4.9204,-4.9204,-4.9455,-4.995,-4.995,-4.995,-4.995,-4.995,-4.995,-4.7022,-4.6905,-4.7295,0.0,0.0,0.0,0.0,0.0,0.0,0.0,0.0,0.0,0.0,0.0,0.0,0.0,0.0,0.0,0.0,0.0,0.0,0.0,0.0,0.0,0.0,0.0,0.0,0.0,0.0,0.0,0.0,-5.0985,-5.0875,-5.0776,-5.0721,-5.0712,-5.0712,-5.0712,-5.0712,-5.0712,-5.0712,-5.0712,-5.0693,-5.074,-5.0767,-5.0776,-5.0875,-5.0985,-5.1069,-5.1159,-5.1284,-5.1492,-5.2351,-5.288,-5.321,-5.4088,-5.4586,-5.4907,-5.5498,-5.5328,-5.4921,-5.5527,-5.5312,-5.4922,-5.5527,-5.5293,-5.4941,-5.5547,-5.5273,-5.4824,-5.4782,-5.3892,-5.3166,-5.3732,-5.3282,-5.288,-5.3437,-5.3538,-5.3498,-5.3498,-5.3498,-5.3498,-5.3498,-5.3498,-5.3304,-5.2713,-5.2616,-5.2298,-5.1428,-5.1312,-5.1215,-5.0937,-5.0898,-5.0898,-5.0898,-5.0898,-5.0898,-5.0898,-5.0376,-5.0074,-5.0074,-4.9513,-4.9475,-5.0074,-5.0074,-5.0337,-5.0898,-5.0898,-5.0898,-5.0898,-5.0898,-5.0898,-4.8035,-4.8154,0.0,0.0,0.0,0.0,0.0,0.0,0.0,0.0,0.0,0.0,0.0,0.0,0.0,0.0,0.0,0.0,0.0,0.0,0.0,0.0,0.0,0.0,0.0,0.0,0.0,0.0,0.0,0.0,0.0,-5.1069,-5.0966,-5.0902,-5.0776,-5.0693,-5.0712,-5.0712,-5.0712,-5.0712,-5.0693,-5.0693,-5.0693,-5.0833,-5.0894,-5.0902,-5.0972,-5.1074,-5.1203,-5.1203,-5.1288,-5.1492,-5.237,-5.3249,-5.4127,-5.4986,-5.5858,-5.6593,-5.6593,-5.6599,-5.6601,-5.6601,-5.6601,-5.6601,-5.6601,-5.6601,-5.6601,-5.6601,-5.6601,-5.6581,-5.6518,-5.5218,-5.3916,-5.3849,-5.371,-5.3605,-5.3538,-5.3517,-5.3517,-5.3517,-5.3517,-5.3517,-5.3517,-5.3517,-5.3517,-5.3517,-5.3517,-5.3188,-5.2326,-5.221,-5.1873,-5.1014,-5.0917,-5.0917,-5.0898,-5.0898,-5.0898,-5.0898,-5.0898,-5.0898,-5.0898,-5.0898,-5.0898,-5.0898,-5.0898,-5.0898,-5.0898,-5.0898,-5.0898,-5.0898,-5.0898,-5.0898,-4.6064,-4.6397,0.0,0.0,0.0,0.0,0.0,0.0,0.0,0.0,0.0,0.0,0.0,0.0,0.0,0.0,0.0,0.0,0.0,0.0,0.0,0.0,0.0,0.0,0.0,0.0,0.0,0.0,0.0,0.0,0.0,-5.1159,-5.1081,-5.0902,-5.0866,-5.0793,-5.0693,-5.0712,-5.0712,-5.0693,-5.0793,-5.0784,-5.0693,-5.0833,-5.0894,-5.091,-5.1067,-5.1159,-5.1207,-5.1297,-5.1733,-5.239,-5.3268,-5.4147,-5.5027,-5.5892,-5.637,-5.6593,-5.6597,-5.66,-5.6601,-5.6601,-5.6601,-5.6601,-5.6601,-5.6601,-5.6601,-5.6601,-5.6601,-5.6581,-5.6518,-5.6049,-5.5564,-5.55,-5.4944,-5.458,-5.5131,-5.5258,-5.5258,-5.5258,-5.5258,-5.5258,-5.5258,-5.5258,-5.5064,-5.4503,-5.4407,-5.4097,-5.3227,-5.3111,-5.2782,-5.1912,-5.1815,-5.1563,-5.0956,-5.0898,-5.0898,-5.0898,-5.0898,-5.0898,-5.0898,-5.0898,-5.0898,-5.0898,-5.0898,-5.0898,-5.0898,-5.0898,-5.0898,-5.0898,-5.0898,-5.0898,-4.6573,0.0,0.0,0.0,0.0,0.0,0.0,0.0,0.0,0.0,0.0,0.0,0.0,0.0,0.0,0.0,0.0,0.0,0.0,0.0,0.0,0.0,0.0,0.0,0.0,0.0,0.0,0.0,0.0,0.0,0.0,-5.1238,-5.1113,-5.0951,-5.0905,-5.0852,-5.0693,-5.0712,-5.0712,-5.0693,-5.0852,-5.0858,-5.0775,-5.0956,-5.103,-5.1023,-5.1195,-5.1284,-5.1288,-5.1364,-5.1902,-5.2782,-5.3659,-5.4537,-5.5417,-5.6286,-5.6606,-5.6594,-5.6598,-5.6601,-5.6601,-5.6601,-5.6601,-5.6601,-5.6601,-5.6601,-5.6601,-5.6601,-5.6601,-5.6561,-5.6458,-5.6367,-5.6285,-5.6226,-5.5734,-5.5412,-5.5896,-5.6012,-5.6012,-5.6012,-5.6012,-5.6012,-5.6012,-5.6012,-5.5838,-5.5354,-5.5006,-5.46,-5.4078,-5.371,-5.3304,-5.2763,-5.2732,-5.2492,-5.1989,-5.1931,-5.1931,-5.1931,-5.1931,-5.1776,-5.1428,-5.1072,-5.0898,-5.0898,-5.0898,-5.0898,-5.0898,-5.0898,-5.0898,-5.0898,-5.0898,-5.0898,0.0,0.0,0.0,0.0,0.0,0.0,0.0,0.0,0.0,0.0,0.0,0.0,0.0,0.0,0.0,0.0,0.0,0.0,0.0,0.0,0.0,0.0,0.0,0.0,0.0,0.0,0.0,0.0,0.0,0.0,0.0,-5.1288,-5.1155,-5.1025,-5.0951,-5.085,-5.0721,-5.0721,-5.0721,-5.0721,-5.085,-5.0925,-5.0928,-5.1123,-5.1207,-5.1238,-5.1355,-5.1394,-5.1394,-5.1394,-5.1902,-5.2782,-5.3659,-5.4537,-5.5417,-5.6288,-5.6607,-5.6594,-5.6599,-5.6601,-5.6601,-5.6601,-5.6601,-5.6601,-5.6601,-5.6601,-5.6601,-5.6601,-5.6601,-5.656,-5.6361,-5.632,-5.6294,-5.6212,-5.6094,-5.6012,-5.6012,-5.6012,-5.6012,-5.6012,-5.6012,-5.6012,-5.6012,-5.6012,-5.6012,-5.6012,-5.5374,-5.4909,-5.4909,-5.4213,-5.3691,-5.3633,-5.3614,-5.3594,-5.3498,-5.3498,-5.3498,-5.3498,-5.3498,-5.313,-5.2345,-5.1486,-5.0975,-5.0898,-5.0898,-5.0898,-5.0898,-5.0898,-5.0898,-5.0898,-5.0898,-5.0898,0.0,0.0,0.0,0.0,0.0,0.0,0.0,0.0,0.0,0.0,0.0,0.0,0.0,0.0,0.0,0.0,0.0,0.0,0.0,0.0,0.0,0.0,0.0,0.0,0.0,0.0,0.0,0.0,0.0,0.0,-5.1394,-5.1367,-5.1294,-5.1155,-5.1031,-5.0939,-5.0858,-5.0749,-5.0749,0.0,-5.0939,-5.1039,-5.1142,-5.1187,-5.1255,-5.136,-5.139,-5.1394,-5.1394,-5.1394,-5.1902,-5.2782,-5.3659,-5.4537,-5.5419,-5.6274,-5.6592,-5.6594,-5.6601,-5.6601,-5.6601,-5.6601,-5.6601,-5.6601,-5.6601,-5.6601,-5.6601,-5.6601,-5.6601,-5.6581,-5.6489,-5.6453,-5.6404,-5.623,-5.6094,-5.6012,-5.6012,-5.6012,-5.6012,-5.6012,-5.6012,-5.6012,-5.6012,-5.6012,-5.6012,-5.6012,-5.5857,-5.5741,-5.5741,-5.5586,-5.5219,-5.4581,-5.4523,-5.4233,-5.3556,-5.3498,-5.3498,-5.3498,-5.3498,-5.342,-5.3227,-5.2376,-5.1602,-5.0917,-5.0898,-5.0898,-5.0898,-5.0898,-5.0898,-5.0898,-5.0898,-5.0898,0.0,0.0,0.0,0.0,0.0,0.0,0.0,0.0,0.0,0.0,0.0,0.0,0.0,0.0,0.0,0.0,0.0,0.0,0.0,0.0,0.0,0.0,0.0,0.0,0.0,0.0,0.0,0.0,0.0,-5.1394,-5.1394,-5.1394,-5.1333,-5.1203,-5.1137,-5.1027,-5.0894,-5.0859,-5.0859,-5.0894,-5.1027,-5.1178,-5.1294,-5.1294,-5.133,-5.1394,-5.1394,-5.1394,-5.1394,-5.1394,-5.1902,-5.2782,-5.3659,-5.4537,-5.5419,-5.6276,-5.6593,-5.6594,-5.6601,-5.6601,-5.6601,-5.6601,-5.6601,-5.6601,-5.6601,-5.6601,-5.6601,-5.6601,-5.6601,-5.6581,-5.6518,-5.6508,-5.6467,-5.6286,-5.6168,-5.6071,-5.601,-5.6012,-5.6012,-5.6012,-5.6012,-5.6012,-5.6012,-5.6012,-5.6012,-5.6012,-5.6012,-5.6012,-5.6012,-5.6012,-5.5838,-5.5412,-5.5374,-5.52,-5.4735,-5.4697,-5.4697,-5.4697,-5.4697,-5.4523,-5.4136,-5.3285,-5.2414,-5.1544,-5.1111,-5.0898,-5.0898,-5.0898,-5.0898,-5.0898,-5.0898,-5.0898,0.0,0.0,0.0,0.0,0.0,0.0,0.0,0.0,0.0,0.0,0.0,0.0,0.0,0.0,0.0,0.0,0.0,0.0,0.0,0.0,0.0,0.0,0.0,0.0,0.0,0.0,0.0,0.0,0.0,-5.1394,-5.1394,-5.1394,-5.1357,-5.1245,-5.1211,-5.1128,-5.0956,-5.0985,-5.0985,-5.0956,-5.1147,-5.1294,-5.1394,-5.1394,-5.1394,-5.1394,-5.1394,-5.1394,-5.1394,-5.1394,-5.1824,-5.2587,-5.36,-5.4441,-5.5207,-5.6217,-5.6593,-5.6596,-5.6601,-5.6601,-5.6601,-5.6601,-5.6601,-5.6601,-5.6601,-5.6601,-5.6601,-5.6601,-5.6601,-5.6581,-5.6527,-5.6518,-5.6489,-5.6351,-5.6276,-5.6175,-5.6056,-5.601,-5.6012,-5.6012,-5.6012,-5.6012,-5.6012,-5.6012,-5.6012,-5.6012,-5.6012,-5.6012,-5.6012,-5.6012,-5.6012,-5.6012,-5.6012,-5.6012,-5.6012,-5.6012,-5.6012,-5.6012,-5.6012,-5.5702,-5.5026,-5.4039,-5.3149,-5.2442,-5.1428,-5.0898,-5.0898,-5.0898,-5.0898,-5.0898,-5.0898,-5.0898,0.0,0.0,0.0,0.0,0.0,0.0,0.0,0.0,0.0,0.0,0.0,0.0,0.0,0.0,0.0,0.0,0.0,0.0,0.0,0.0,0.0,0.0,0.0,0.0,0.0,0.0,0.0,0.0,-5.1394,-5.1394,-5.1394,-5.1394,-5.1392,-5.1367,-5.1255,-5.1191,-5.1165,-5.1047,-5.1047,-5.117,-5.1297,-5.1388,-5.1394,-5.1394,-5.1394,-5.1394,-5.1394,-5.1394,-5.1394,-5.1394,-5.1472,-5.1746,-5.3366,-5.4074,-5.4376,-5.6005,-5.6596,-5.6599,-5.6601,-5.6601,-5.6601,-5.6601,-5.6601,-5.6601,-5.6601,-5.6601,-5.6601,-5.6601,-5.6601,-5.6601,-5.6581,-5.6581,-5.6579,-5.6491,-5.637,-5.6261,-5.6194,-5.6079,-5.6012,-5.6012,-5.6012,-5.6012,-5.6012,-5.6012,-5.6012,-5.6012,-5.6012,-5.6012,-5.6012,-5.6012,-5.6012,-5.6012,-5.6012,-5.6012,-5.6012,-5.6012,-5.6012,-5.6012,-5.6012,-5.5954,-5.5838,-5.4329,-5.344,-5.3323,-5.1738,-5.0898,-5.0898,-5.0898,-5.0898,-5.0898,-5.0898,-5.0898,0.0,0.0,0.0,0.0,0.0,0.0,0.0,0.0,0.0,0.0,0.0,0.0,0.0,0.0,0.0,0.0,0.0,0.0,0.0,0.0,0.0,0.0,0.0,0.0,0.0,0.0,0.0,0.0,-5.1394,-5.1394,-5.1394,-5.1394,-5.1394,-5.1394,-5.1335,-5.1284,-5.1203,-5.1211,-5.1252,-5.1302,-5.1364,-5.1394,-5.1394,-5.1394,-5.1394,-5.1394,-5.1394,-5.1394,-5.1394,-5.1394,-5.1687,-5.2253,-5.3502,-5.4309,-5.4885,-5.6141,-5.6596,-5.66,-5.6601,-5.6601,-5.6601,-5.6601,-5.6601,-5.6601,-5.6601,-5.6601,-5.6601,-5.6601,-5.6601,-5.6601,-5.6601,-5.6601,-5.6582,-5.6558,-5.6471,-5.6374,-5.6286,-5.6121,-5.6012,-5.6012,-5.6012,-5.6012,-5.6012,-5.6012,-5.6012,-5.6012,-5.6012,-5.6012,-5.6012,-5.6012,-5.6012,-5.6012,-5.6012,-5.6012,-5.6012,-5.6012,-5.6012,-5.6012,-5.6012,-5.6012,-5.6012,-5.4851,-5.4,-5.3498,-5.1796,-5.0898,-5.0898,-5.0898,-5.0898,-5.0898,-5.0898,-5.0898,0.0,0.0,0.0,0.0,0.0,0.0,0.0,0.0,0.0,0.0,0.0,0.0,0.0,0.0,0.0,0.0,0.0,0.0,0.0,0.0,0.0,0.0,0.0,0.0,0.0,0.0,0.0,0.0,-5.1394,-5.1394,-5.1394,-5.1394,-5.1394,-5.1394,-5.1394,-5.1357,-5.1252,-5.1357,-5.1394,-5.1394,-5.1394,-5.1394,-5.1394,-5.1394,-5.1394,-5.1394,-5.1394,-5.1394,-5.1394,-5.1394,-5.1902,-5.2782,-5.3659,-5.4525,-5.5415,-5.6279,-5.6597,-5.6601,-5.6601,-5.6601,-5.6601,-5.6601,-5.6601,-5.6601,-5.6601,-5.6601,-5.6601,-5.6601,-5.6601,-5.6601,-5.6601,-5.6601,-5.6601,-5.6601,-5.6553,-5.645,-5.6318,-5.6135,-5.6012,-5.6012,-5.6012,-5.6012,-5.6012,-5.6012,-5.6012,-5.6012,-5.6012,-5.6012,-5.6012,-5.6012,-5.6012,-5.6012,-5.6012,-5.6012,-5.6012,-5.6012,-5.6012,-5.6012,-5.6012,-5.6012,-5.6012,-5.5006,-5.4155,-5.3517,-5.1796,-5.0898,-5.0898,-5.0898,-5.0898,-5.0898,-5.0898,-5.0898,0.0,0.0,0.0,0.0,0.0,0.0,0.0,0.0,0.0,0.0,0.0,0.0,0.0,0.0,0.0,0.0,0.0,0.0,0.0,0.0,0.0,0.0,0.0,0.0,0.0,0.0,0.0,0.0,-5.1394,-5.1394,-5.1394,-5.1394,-5.1394,-5.1394,-5.1394,-5.1392,-5.139,-5.1392,-5.1394,-5.1394,-5.1394,-5.1394,-5.1394,-5.1394,-5.1394,-5.1394,-5.1394,-5.1394,-5.1394,-5.1394,-5.1902,-5.2782,-5.3659,-5.453,-5.5403,-5.628,-5.6598,-5.6601,-5.6601,-5.6601,-5.6601,-5.6601,-5.6601,-5.6601,-5.6601,-5.6601,-5.6601,-5.6601,-5.6601,-5.6601,-5.6601,-5.6601,-5.6601,-5.6601,-5.6553,-5.6458,-5.6242,-5.6102,-5.6012,-5.6012,-5.6012,-5.6012,-5.6012,-5.6012,-5.6012,-5.6012,-5.6012,-5.6012,-5.6012,-5.6012,-5.6012,-5.6012,-5.6012,-5.6012,-5.6012,-5.6012,-5.6012,-5.6012,-5.6012,-5.6012,-5.6012,-5.4426,-5.3556,-5.3498,-5.1796,-5.0898,-5.0898,-5.0898,-5.0898,-5.0898,-5.0898,-5.0898,0.0,0.0,0.0,0.0,0.0,0.0,0.0,0.0,0.0,0.0,0.0,0.0,0.0,0.0,0.0,0.0,0.0,0.0,0.0,0.0,0.0,0.0,0.0,0.0,0.0,0.0,0.0,0.0,0.0,-5.1394,-5.1394,-5.1394,-5.1394,-5.1394,-5.1394,-5.1394,-5.1394,-5.1394,-5.1394,-5.1394,-5.1394,-5.1394,-5.1394,-5.1394,-5.1394,-5.1394,-5.1394,-5.1394,-5.1394,-5.1394,-5.2234,-5.3561,-5.3873,-5.4862,-5.6163,-5.6476,-5.6599,-5.6601,-5.6601,-5.6601,-5.6601,-5.6601,-5.6601,-5.6601,-5.6601,-5.6601,-5.6601,-5.6601,-5.6601,-5.6601,-5.6601,-5.6601,-5.6601,-5.6601,-5.6479,-5.6359,-5.6271,-5.6128,-5.6012,-5.6012,-5.6012,-5.6012,-5.6012,-5.6012,-5.6012,-5.6012,-5.6012,-5.6012,-5.6012,-5.6012,-5.6012,-5.6012,-5.6012,-5.6012,-5.6012,-5.6012,-5.6012,-5.6012,-5.6012,-5.6012,-5.6012,-5.5432,-5.46,-5.3517,-5.2898,-5.2028,-5.0898,-5.0898,-5.0898,-5.0898,-5.0898,-5.0898,0.0,0.0,0.0,0.0,0.0,0.0,0.0,0.0,0.0,0.0,0.0,0.0,0.0,0.0,0.0,0.0,0.0,0.0,0.0,0.0,0.0,0.0,0.0,0.0,0.0,0.0,0.0,0.0,0.0,0.0,-5.1394,-5.1394,-5.1394,-5.1394,-5.1394,-5.1394,-5.1394,-5.1394,-5.1394,-5.1394,-5.1394,-5.1394,-5.1394,-5.1394,-5.1394,-5.1394,-5.1394,-5.1394,-5.1394,-5.1394,-5.2429,-5.399,-5.3994,-5.5079,-5.6593,-5.6595,-5.6599,-5.6601,-5.6601,-5.6601,-5.6601,-5.6601,-5.6601,-5.6601,-5.6601,-5.6601,-5.6601,-5.6601,-5.6601,-5.6601,-5.6601,-5.6601,-5.6601,-5.6601,-5.6479,-5.6344,-5.6316,-5.6142,-5.6012,-5.6012,-5.6012,-5.6012,-5.6012,-5.6012,-5.6012,-5.6012,-5.6012,-5.6012,-5.6012,-5.6012,-5.6012,-5.6012,-5.6012,-5.6012,-5.6012,-5.6012,-5.6012,-5.6012,-5.6012,-5.6012,-5.6012,-5.5741,-5.5064,-5.3962,-5.3362,-5.2492,-5.1351,-5.1033,-5.0898,-5.0898,-5.0898,-5.0898,0.0,0.0,0.0,0.0,0.0,0.0,0.0,0.0,0.0,0.0,0.0,0.0,0.0,0.0,0.0,0.0,0.0,0.0,0.0,0.0,0.0,0.0,0.0,0.0,0.0,0.0,0.0,0.0,-5.1394,-5.1394,-5.1394,-5.1394,-5.1394,-5.1394,-5.1394,-5.1394,-5.1394,-5.1394,-5.1394,-5.1394,-5.1394,-5.1394,-5.1394,-5.1394,-5.1394,-5.1394,-5.1394,-5.1394,-5.1394,-5.1394,-5.2429,-5.399,-5.4002,-5.5064,-5.6593,-5.6598,-5.6601,-5.6601,-5.6601,-5.6601,-5.6601,-5.6601,-5.6601,-5.6601,-5.6601,-5.6601,-5.6601,-5.6601,-5.6601,-5.6601,-5.6601,-5.6601,-5.6601,-5.6601,-5.6553,-5.6455,-5.6328,-5.6149,-5.5993,-5.6012,-5.6012,-5.6012,-5.6012,-5.6012,-5.6012,-5.6012,-5.6012,-5.6012,-5.6012,-5.6012,-5.6012,-5.6012,-5.6012,-5.6012,-5.6012,-5.6012,-5.6012,-5.6012,-5.6012,-5.6012,-5.6012,-5.5258,-5.4813,-5.4793,-5.3111,-5.2229,-5.221,-5.1331,-5.0898,-5.0898,-5.0898,-5.0898,-3.7432,0.0,0.0,0.0,0.0,0.0,0.0,0.0,0.0,0.0,0.0,0.0,0.0,0.0,0.0,0.0,0.0,0.0,0.0,0.0,0.0,0.0,0.0,0.0,0.0,0.0,0.0,0.0,-5.1394,-5.1394,-5.1394,-5.1394,-5.1394,-5.1394,-5.1394,-5.1394,-5.1394,-5.1394,-5.1394,-5.1394,-5.1394,-5.1394,-5.1394,-5.1394,-5.1394,-5.1394,-5.1394,-5.1394,-5.1394,-5.1394,-5.2429,-5.399,-5.4002,-5.5064,-5.6593,-5.6598,-5.6601,-5.6601,-5.6601,-5.6601,-5.6601,-5.6601,-5.6601,-5.6601,-5.6601,-5.6601,-5.6601,-5.6601,-5.6601,-5.6601,-5.6601,-5.6601,-5.6601,-5.6601,-5.6553,-5.6455,-5.6328,-5.6222,-5.6117,-5.6018,-5.6012,-5.6012,-5.6012,-5.6012,-5.6012,-5.6012,-5.6012,-5.6012,-5.6012,-5.6012,-5.6012,-5.6012,-5.6012,-5.6012,-5.6012,-5.6012,-5.6012,-5.6012,-5.6012,-5.6012,-5.6012,-5.5799,-5.5393,-5.4813,-5.371,-5.2821,-5.221,-5.1331,-5.0898,-5.0898,-5.0898,-5.0898,0.0,0.0,0.0,0.0,0.0,0.0,0.0,0.0,0.0,0.0,0.0,0.0,0.0,0.0,0.0,0.0,0.0,0.0,0.0,0.0,0.0,0.0,0.0,0.0,0.0,-5.1394,-5.1394,-5.1394,-5.1394,-5.1394,-5.1394,-5.1394,-5.1394,-5.1394,-5.1394,-5.1394,-5.1394,-5.1394,-5.1394,-5.1394,-5.1394,-5.1394,-5.1394,-5.1394,-5.1394,-5.1394,-5.1394,-5.1394,-5.1394,-5.1394,-5.2429,-5.3992,-5.4006,-5.5066,-5.6594,-5.6599,-5.6601,-5.6601,-5.6601,-5.6601,-5.6601,-5.6601,-5.6601,-5.6601,-5.6601,-5.6601,-5.6601,-5.6601,-5.6601,-5.6601,-5.6601,-5.6601,-5.6601,-5.6601,-5.6553,-5.6455,-5.6328,-5.6244,-5.6154,-5.6026,-5.6012,-5.6012,-5.6012,-5.6012,-5.6012,-5.6012,-5.6012,-5.6012,-5.6012,-5.6012,-5.6012,-5.6012,-5.6012,-5.6012,-5.6012,-5.6012,-5.6012,-5.6012,-5.6012,-5.6012,-5.6012,-5.6012,-5.578,-5.5316,-5.4465,-5.342,-5.221,-5.1331,-5.0898,-5.0898,-5.0898,-5.0898,0.0,0.0,0.0,0.0,0.0,0.0,-4.4094,-4.4114,0.0,0.0,0.0,0.0,0.0,0.0,0.0,0.0,0.0,0.0,0.0,0.0,0.0,0.0,0.0,0.0,-5.1394,-5.1394,-5.1394,-5.1394,-5.1394,-5.1394,-5.1394,-5.1394,-5.1394,-5.1394,-5.1394,-5.1394,-5.1394,-5.1394,-5.1394,-5.1394,-5.1394,-5.1394,-5.1394,-5.1394,-5.1394,-5.1394,-5.1394,-5.1394,-5.1394,-5.1394,-5.2429,-5.3992,-5.3991,-5.507,-5.6594,-5.6601,-5.6601,-5.6601,-5.6601,-5.6601,-5.6601,-5.6601,-5.6601,-5.6601,-5.6601,-5.6601,-5.6601,-5.6601,-5.6601,-5.6601,-5.6601,-5.6601,-5.6601,-5.6601,-5.6555,-5.6482,-5.6344,-5.6266,-5.6175,-5.6051,-5.6001,-5.6012,-5.6012,-5.6012,-5.6012,-5.6012,-5.6012,-5.6012,-5.6012,-5.6012,-5.6012,-5.6012,-5.6012,-5.6012,-5.6012,-5.6012,-5.6012,-5.6012,-5.6012,-5.6012,-5.6012,-5.6012,-5.6012,-5.6012,-5.5219,-5.3942,-5.221,-5.1331,-5.0898,-5.0898,-5.0898,-5.0898,0.0,0.0,0.0,0.0,0.0,0.0,-3.7672,-3.8824,0.0,0.0,0.0,0.0,0.0,0.0,0.0,0.0,0.0,0.0,0.0,0.0,0.0,0.0,0.0,0.0,-5.1394,-5.1394,-5.1394,-5.1394,-5.1394,-5.1394,-5.1394,-5.1394,-5.1394,-5.1394,-5.1394,-5.1394,-5.1394,-5.1394,-5.1394,-5.1394,-5.1394,-5.1394,-5.1394,-5.1394,-5.1394,-5.1394,-5.1394,-5.1394,-5.1394,-5.1394,-5.2429,-5.3992,-5.3991,-5.507,-5.6594,-5.6601,-5.6601,-5.6601,-5.6601,-5.6601,-5.6601,-5.6601,-5.6601,-5.6601,-5.6601,-5.6601,-5.6601,-5.6601,-5.6601,-5.6601,-5.6601,-5.6601,-5.6601,-5.6601,-5.6582,-5.6558,-5.6484,-5.6363,-5.6251,-5.6181,-5.6071,-5.6012,-5.6012,-5.6012,-5.6012,-5.6012,-5.6012,-5.6012,-5.6012,-5.6012,-5.6012,-5.6012,-5.6012,-5.6012,-5.6012,-5.6012,-5.6012,-5.6012,-5.6012,-5.6012,-5.6012,-5.6012,-5.6012,-5.6012,-5.5219,-5.3942,-5.221,-5.1331,-5.0898,-5.0898,-5.0898,-5.0898,0.0,0.0,0.0,-4.1223,0.0,0.0,0.0,-3.8551,-3.9156,0.0,0.0,0.0,0.0,0.0,0.0,0.0,0.0,0.0,0.0,0.0,0.0,0.0,0.0,0.0,-5.1394,-5.1394,-5.1394,-5.1394,-5.1394,-5.1394,-5.1394,-5.1394,-5.1394,-5.1394,-5.1394,-5.1394,-5.1394,-5.1394,-5.1394,-5.1394,-5.1394,-5.1394,-5.1394,-5.1394,-5.1394,-5.1394,-5.1394,-5.1394,-5.1394,-5.1394,-5.2175,-5.3387,-5.3831,-5.5067,-5.6594,-5.66,-5.6601,-5.6601,-5.6601,-5.6601,-5.6601,-5.6601,-5.6601,-5.6601,-5.6601,-5.6601,-5.6601,-5.6601,-5.6601,-5.6601,-5.6601,-5.6601,-5.6601,-5.6601,-5.658,-5.6531,-5.6513,-5.6375,-5.6233,-5.6207,-5.6087,-5.6012,-5.6012,-5.6012,-5.6012,-5.6012,-5.6012,-5.6012,-5.6012,-5.6012,-5.6012,-5.6012,-5.6012,-5.6012,-5.6012,-5.6012,-5.6012,-5.6012,-5.6012,-5.6012,-5.6012,-5.6012,-5.6012,-5.6012,-5.5219,-5.4368,-5.3478,-5.2182,-5.1331,-5.0898,-5.0898,-5.0898,0.0,0.0,0.0,0.0,0.0,-4.0975,0.0,0.0,0.0,-4.1381,0.0,0.0,0.0,0.0,0.0,0.0,0.0,0.0,0.0,0.0,0.0,0.0,0.0,0.0,0.0,-5.1004,-5.1043,-5.1375,-5.1082,-5.1043,-5.1375,-5.1394,-5.1394,-5.1394,-5.1394,-5.1394,-5.1394,-5.1394,-5.1394,-5.1394,-5.1394,-5.1394,-5.1394,-5.1394,-5.1394,-5.1394,-5.1394,-5.1394,-5.1394,-5.1394,-5.1902,-5.2782,-5.365,-5.4967,-5.6379,-5.6539,-5.6601,-5.6601,-5.6601,-5.6601,-5.6601,-5.6601,-5.6601,-5.6601,-5.6601,-5.6601,-5.6601,-5.6601,-5.6601,-5.6601,-5.6601,-5.6601,-5.6601,-5.6601,-5.6557,-5.652,-5.652,-5.6379,-5.6242,-5.6218,-5.6119,-5.6026,-5.5993,-5.6012,-5.6012,-5.6012,-5.6012,-5.6012,-5.6012,-5.6012,-5.6012,-5.6012,-5.6012,-5.6012,-5.6012,-5.6012,-5.6012,-5.6012,-5.6012,-5.6012,-5.6012,-5.6012,-5.6012,-5.6012,-5.5354,-5.4948,-5.4793,-5.3382,-5.2163,-5.1149,-5.0975,-5.0898,0.0,0.0,0.0,0.0,-4.3747,0.0,0.0,0.0,-3.8785,-3.6247,0.0,0.0,0.0,0.0,0.0,0.0,0.0,0.0,0.0,0.0,0.0,0.0,0.0,0.0,0.0,-4.956,-4.9735,-5.1277,-4.9969,-4.9774,-5.1316,-5.1394,-5.1394,-5.1394,-5.1394,-5.1394,-5.1394,-5.1394,-5.1394,-5.1394,-5.1394,-5.1394,-5.1394,-5.1394,-5.1394,-5.1394,-5.1394,-5.1394,-5.1394,-5.1394,-5.1902,-5.2782,-5.365,-5.4596,-5.554,-5.6325,-5.6601,-5.6601,-5.6601,-5.6601,-5.6601,-5.6601,-5.6601,-5.6601,-5.6601,-5.6601,-5.6601,-5.6601,-5.6601,-5.6601,-5.6601,-5.6601,-5.6601,-5.6601,-5.6582,-5.6581,-5.6581,-5.6525,-5.6436,-5.6308,-5.6222,-5.6146,-5.6018,-5.6012,-5.6012,-5.6012,-5.6012,-5.6012,-5.6012,-5.6012,-5.6012,-5.6012,-5.6012,-5.6012,-5.6012,-5.6012,-5.6012,-5.6012,-5.6012,-5.6012,-5.6012,-5.6012,-5.6012,-5.6012,-5.5915,-5.5509,-5.4793,-5.46,-5.3652,-5.2028,-5.1254,-5.0898,0.0,0.0,0.0,0.0,0.0,0.0,-3.8507,0.0,-3.6868,0.0,0.0,0.0,0.0,0.0,0.0,0.0,0.0,0.0,0.0,0.0,0.0,0.0,0.0,0.0,0.0,0.0,0.0,0.0,-4.9794,-4.956,-5.1316,-5.1394,-5.1394,-5.1394,-5.1394,-5.1394,-5.1394,-5.1394,-5.1394,-5.1394,-5.1394,-5.1394,-5.1394,-5.1394,-5.1394,-5.1394,-5.1394,-5.1394,-5.1394,-5.1394,-5.1629,-5.2078,-5.3469,-5.453,-5.5418,-5.6282,-5.6599,-5.6601,-5.6601,-5.6601,-5.6601,-5.6601,-5.6601,-5.6601,-5.6601,-5.6601,-5.6601,-5.6601,-5.6601,-5.6601,-5.6601,-5.6601,-5.6601,-5.6601,-5.6601,-5.6601,-5.6601,-5.6553,-5.6453,-5.6328,-5.6244,-5.6167,-5.6018,-5.6012,-5.6012,-5.6012,-5.6012,-5.6012,-5.6012,-5.6012,-5.6012,-5.6012,-5.6012,-5.6012,-5.6012,-5.6012,-5.6012,-5.6012,-5.6012,-5.6012,-5.6012,-5.6012,-5.6012,-5.6012,-5.6012,-5.5838,-5.5509,-5.5026,-5.4155,-5.2917,-5.2066,-5.1389,-4.7734,0.0,0.0,0.0,0.0,0.0,0.0,0.0,0.0,0.0,0.0,0.0,0.0,0.0,0.0,0.0,0.0,0.0,0.0,0.0,0.0,0.0,0.0,0.0,0.0,0.0,0.0,0.0,0.0,-4.9072,-5.1277,-5.1394,-5.1394,-5.1394,-5.1394,-5.1394,-5.1394,-5.1394,-5.1394,-5.1394,-5.1394,-5.1394,-5.1394,-5.1394,-5.1394,-5.1394,-5.1394,-5.1394,-5.1394,-5.1394,-5.1394,-5.157,-5.3327,-5.4385,-5.5077,-5.62,-5.6596,-5.66,-5.6601,-5.6601,-5.6601,-5.6601,-5.6601,-5.6601,-5.6601,-5.6601,-5.6601,-5.6601,-5.6601,-5.6601,-5.6601,-5.6601,-5.6601,-5.6601,-5.6601,-5.6601,-5.6601,-5.6558,-5.6493,-5.6377,-5.6309,-5.623,-5.6079,-5.6018,-5.6012,-5.6012,-5.6012,-5.6012,-5.6012,-5.6012,-5.6012,-5.6012,-5.6012,-5.6012,-5.6012,-5.6012,-5.6012,-5.6012,-5.6012,-5.6012,-5.6012,-5.6012,-5.6012,-5.6012,-5.6012,-5.6012,-5.6012,-5.52,-5.4349,-5.3478,-5.2616,-5.1738,0.0,0.0,0.0,-4.4211,0.0,0.0,0.0,0.0,-3.9418,0.0,0.0,0.0,0.0,0.0,0.0,0.0,0.0,0.0,0.0,0.0,0.0,0.0,0.0,0.0,0.0,0.0,0.0,0.0,0.0,0.0,-5.1219,-5.1394,-5.1394,-5.1394,-5.1394,-5.1394,-5.1394,-5.1394,-5.1394,-5.1394,-5.1394,-5.1394,-5.1394,-5.1394,-5.1394,-5.1394,-5.1394,-5.1394,-5.1394,-5.1394,-5.1394,-5.157,-5.3327,-5.4029,-5.4246,-5.5963,-5.6596,-5.66,-5.6601,-5.6601,-5.6601,-5.6601,-5.6601,-5.6601,-5.6601,-5.6601,-5.6601,-5.6601,-5.6601,-5.6601,-5.6601,-5.6601,-5.6601,-5.6601,-5.6601,-5.6601,-5.6601,-5.6601,-5.658,-5.6515,-5.6484,-5.6426,-5.6232,-5.6087,-5.6012,-5.6012,-5.6012,-5.6012,-5.6012,-5.6012,-5.6012,-5.6012,-5.6012,-5.6012,-5.6012,-5.6012,-5.6012,-5.6012,-5.6012,-5.6012,-5.6012,-5.6012,-5.6012,-5.6012,-5.6012,-5.6012,-5.6012,-5.52,-5.4349,-5.3478,-5.2616,-5.1738,0.0,0.0,-4.9455,-4.5543,0.0,0.0,0.0,0.0,0.0,0.0,0.0,0.0,0.0,0.0,0.0,0.0,0.0,0.0,0.0,0.0,0.0,0.0,0.0,0.0,0.0,0.0,0.0,0.0,-4.7256,0.0,0.0,-5.1394,-5.1394,-5.1394,-5.1394,-5.1394,-5.1394,-5.1394,-5.1394,-5.1394,-5.1394,-5.1394,-5.1394,-5.1394,-5.1394,-5.1394,-5.1394,-5.1394,-5.1394,-5.1394,-5.1746,-5.237,-5.3541,-5.4342,-5.5009,-5.6178,-5.6594,-5.6597,-5.6601,-5.6601,-5.6601,-5.6601,-5.6601,-5.6601,-5.6601,-5.6601,-5.6601,-5.6601,-5.6601,-5.6601,-5.6601,-5.6601,-5.6601,-5.6601,-5.6601,-5.6601,-5.6601,-5.6601,-5.6581,-5.6516,-5.6508,-5.6447,-5.6281,-5.6225,-5.6142,-5.6026,-5.6012,-5.6012,-5.6012,-5.6012,-5.6012,-5.6012,-5.6012,-5.6012,-5.6012,-5.6012,-5.6012,-5.6012,-5.6012,-5.6012,-5.6012,-5.6012,-5.6012,-5.6012,-5.6012,-5.6012,-5.6012,-5.52,-5.4349,-5.3478,-5.3188,-5.2279,-5.0325,-5.0379,0.0,-4.6585,-4.5121,0.0,-4.0258,0.0,-4.1733,0.0,0.0,0.0,0.0,0.0,0.0,0.0,0.0,0.0,0.0,0.0,0.0,0.0,0.0,0.0,0.0,0.0,-4.4816,-4.7686,0.0,0.0,0.0,0.0,-5.1394,-5.1394,-5.1394,-5.1394,-5.1394,-5.1394,-5.1394,-5.1394,-5.1394,-5.1394,-5.1394,-5.1394,-5.1394,-5.1394,-5.1394,-5.1394,-5.1394,-5.1394,-5.1902,-5.2782,-5.3659,-5.4537,-5.5419,-5.6276,-5.6595,-5.6599,-5.6601,-5.6601,-5.6601,-5.6601,-5.6601,-5.6601,-5.6601,-5.6601,-5.6601,-5.6601,-5.6601,-5.6601,-5.6601,-5.6601,-5.6601,-5.6601,-5.6601,-5.6601,-5.6601,-5.6601,-5.6581,-5.6532,-5.6548,-5.6497,-5.6384,-5.6374,-5.6308,-5.6129,-5.6114,-5.6093,-5.6071,-5.6064,-5.604,-5.6012,-5.6012,-5.6012,-5.6012,-5.6012,-5.6012,-5.6012,-5.6012,-5.6012,-5.6012,-5.6012,-5.6012,-5.6012,-5.6012,-5.6012,-5.6012,-5.52,-5.4503,-5.3942,-5.3633,-5.2724]},{"header":{"parameterUnit":"m.s-1","parameterCategory":1,"la1":30.6,"la2":29.2853,"lo1":-89.7004,"lo2":-87.6739,"dy":0.0162,"dx":0.0183,"nx":112,"ny":82,"refTime":"2025-03-10T06:00:00:Z","depth":0,"parameterNumber":3,"parameterNumberName":"V-component_of_WINDS"},"data":[0.0,0.0,0.0,0.0,0.0,0.0,0.0,0.0,0.0,0.0,0.0,0.0,0.0,0.0,0.0,0.0,0.0,0.0,0.0,0.0,0.0,0.0,0.0,0.0,0.0,0.0,0.0,0.0,0.0,0.0,0.0,0.0,0.0,0.0,0.0,0.0,0.0,0.0,0.0,0.0,0.0,0.0,0.0,0.0,0.0,0.0,0.0,0.0,0.0,0.0,0.0,0.0,0.0,0.0,0.0,0.0,0.0,0.0,0.0,0.0,0.0,0.0,0.0,0.0,0.0,0.0,0.0,0.0,0.0,0.0,0.0,0.0,0.0,0.0,0.0,0.0,0.0,0.0,0.0,0.0,0.0,0.0,0.0,0.0,0.0,0.0,0.0,0.0,0.0,0.0,-0.5936,-0.6209,-0.6548,-0.6855,-0.698,-0.7023,-0.6905,-0.643,0.0,0.0,0.0,0.0,0.0,0.0,0.0,0.0,0.0,0.0,0.0,0.0,0.0,0.0,0.0,0.0,0.0,0.0,0.0,0.0,0.0,0.0,0.0,0.0,0.0,0.0,0.0,0.0,0.0,0.0,0.0,0.0,0.0,0.0,0.0,0.0,0.0,0.0,0.0,0.0,0.0,0.0,0.0,0.0,0.0,0.0,0.0,0.0,0.0,0.0,0.0,0.0,0.0,0.0,0.0,0.0,0.0,0.0,0.0,0.0,0.0,0.0,0.0,0.0,0.0,0.0,0.0,0.0,0.0,0.0,0.0,0.0,0.0,0.0,0.0,0.0,0.0,0.0,0.0,0.0,0.0,0.0,0.0,0.0,0.0,0.0,0.0,0.0,0.0,0.0,0.0,0.0,0.0,0.0,0.0,0.0,0.0,0.0,0.0,0.0,0.0,0.0,0.0,0.0,-0.5774,-0.6339,-0.6524,-0.6681,-0.6921,-0.6911,-0.6769,-0.6425,0.0,0.0,0.0,0.0,0.0,0.0,0.0,0.0,0.0,0.0,0.0,0.0,0.0,0.0,0.0,0.0,0.0,0.0,0.0,0.0,0.0,0.0,0.0,0.0,0.0,0.0,0.0,0.0,0.0,0.0,0.0,0.0,0.0,0.0,0.0,0.0,0.0,0.0,0.0,0.0,0.0,0.0,0.0,0.0,0.0,0.0,0.0,0.0,0.0,0.0,0.0,0.0,0.0,0.0,0.0,0.0,0.0,0.0,0.0,0.0,0.0,0.0,0.0,0.0,0.0,0.0,0.0,0.0,0.0,0.0,0.0,0.0,0.0,0.0,0.0,0.0,0.0,0.0,0.0,0.0,0.0,0.0,0.0,0.0,0.0,0.0,0.0,0.0,0.0,0.0,0.0,0.0,0.0,0.0,0.0,0.0,0.0,0.0,0.0,0.0,0.0,0.0,0.0,-0.5302,-0.5501,-0.5869,-0.5948,-0.6131,-0.6374,-0.6318,-0.625,-0.6171,-0.6028,0.0,0.0,0.0,0.0,0.0,0.0,0.0,0.0,0.0,0.0,0.0,0.0,0.0,0.0,0.0,0.0,0.0,0.0,0.0,0.0,0.0,0.0,0.0,0.0,0.0,0.0,0.0,0.0,0.0,0.0,0.0,0.0,0.0,0.0,0.0,0.0,0.0,0.0,0.0,0.0,0.0,0.0,0.0,0.0,0.0,0.0,0.0,0.0,0.0,0.0,0.0,0.0,0.0,0.0,0.0,0.0,0.0,0.0,0.0,0.0,0.0,0.0,0.0,0.0,0.0,0.0,0.0,0.0,0.0,0.0,0.0,0.0,0.0,0.0,0.0,0.0,0.0,0.0,0.0,0.0,0.0,0.0,0.0,0.0,0.0,0.0,0.0,0.0,0.0,0.0,0.0,0.0,0.0,0.0,0.0,0.0,0.0,0.0,0.0,0.0,0.0,0.0,-0.5155,-0.5328,-0.5463,-0.5478,-0.5591,-0.5934,-0.5802,-0.5785,-0.5927,-0.5648,0.0,0.0,0.0,0.0,0.0,0.0,0.0,0.0,0.0,0.0,0.0,0.0,0.0,0.0,0.0,0.0,0.0,0.0,0.0,0.0,0.0,0.0,0.0,0.0,0.0,0.0,0.0,0.0,0.0,0.0,0.0,0.0,0.0,0.0,0.0,0.0,0.0,0.0,0.0,0.0,0.0,0.0,0.0,0.0,0.0,0.0,0.0,0.0,0.0,0.0,0.0,0.0,0.0,0.0,0.0,0.0,0.0,0.0,0.0,0.0,0.0,0.0,0.0,0.0,0.0,0.0,0.0,0.0,0.0,0.0,0.0,0.0,0.0,0.0,0.0,0.0,0.0,0.0,0.0,0.0,0.0,0.0,0.0,0.0,0.0,0.0,0.0,0.0,0.0,0.0,0.0,0.0,0.0,0.0,0.0,0.0,0.0,0.0,0.0,0.0,0.0,0.0,-0.5055,-0.5375,-0.539,-0.539,-0.5502,-0.5777,-0.5578,-0.5533,-0.5799,-0.5431,0.0,0.0,0.0,0.0,0.0,0.0,0.0,0.0,0.0,0.0,0.0,0.0,0.0,0.0,0.0,0.0,0.0,0.0,0.0,0.0,0.0,0.0,0.0,0.0,0.0,0.0,0.0,0.0,0.0,0.0,0.0,0.0,0.0,0.0,0.0,0.0,0.0,0.0,0.0,0.0,0.0,0.0,0.0,0.0,0.0,0.0,0.0,0.0,0.0,0.0,0.0,0.0,0.0,0.0,0.0,0.0,0.0,0.0,0.0,0.0,0.0,0.0,0.0,0.0,0.0,0.0,0.0,0.0,0.0,0.0,0.0,0.0,0.0,0.0,0.0,0.0,0.0,0.0,0.0,0.0,0.0,0.0,0.0,0.0,0.0,0.0,0.0,0.0,0.0,0.0,0.0,0.0,0.0,0.0,0.0,0.0,0.0,0.0,0.0,0.0,0.0,0.0,-0.4981,-0.5255,0.0,-0.5382,-0.5437,-0.5547,-0.5343,-0.5265,-0.5354,0.0,0.0,0.0,0.0,0.0,0.0,0.0,0.0,0.0,0.0,0.0,0.0,0.0,0.0,0.0,0.0,0.0,0.0,0.0,0.0,0.0,0.0,0.0,0.0,0.0,0.0,0.0,0.0,0.0,0.0,0.0,0.0,0.0,0.0,0.0,0.0,0.0,0.0,0.0,0.0,0.0,0.0,0.0,0.0,0.0,0.0,0.0,0.0,0.0,0.0,0.0,0.0,0.0,0.0,0.0,0.0,0.0,0.0,0.0,0.0,0.0,0.0,0.0,0.0,0.0,0.0,0.0,0.0,0.0,0.0,0.0,0.0,0.0,0.0,0.0,0.0,0.0,0.0,0.0,0.0,0.0,0.0,0.0,0.0,0.0,0.0,0.0,0.0,0.0,0.0,0.0,0.0,0.0,0.0,0.0,0.0,0.0,0.0,0.0,0.0,0.0,0.0,-0.4636,-0.4975,-0.5243,0.0,-0.5382,-0.5382,-0.5382,-0.5159,-0.5008,-0.4973,0.0,0.0,0.0,0.0,0.0,0.0,0.0,0.0,0.0,0.0,0.0,0.0,0.0,0.0,0.0,0.0,0.0,0.0,0.0,0.0,0.0,0.0,0.0,0.0,0.0,0.0,0.0,0.0,0.0,0.0,0.0,0.0,0.0,0.0,0.0,0.0,0.0,0.0,0.0,0.0,0.0,0.0,0.0,0.0,0.0,0.0,0.0,0.0,0.0,0.0,0.0,0.0,0.0,0.0,0.0,0.0,0.0,0.0,0.0,0.0,0.0,0.0,0.0,0.0,0.0,0.0,0.0,0.0,0.0,0.0,0.0,0.0,0.0,0.0,0.0,0.0,0.0,0.0,0.0,0.0,0.0,0.0,0.0,0.0,0.0,0.0,0.0,0.0,0.0,0.0,0.0,0.0,0.0,0.0,0.0,0.0,0.0,0.0,0.0,0.0,0.0,0.0,-0.4559,-0.5045,-0.5382,-0.5382,-0.5382,-0.5382,-0.538,-0.5045,-0.4769,0.0,0.0,0.0,0.0,0.0,0.0,0.0,0.0,0.0,0.0,0.0,0.0,0.0,0.0,0.0,0.0,0.0,0.0,0.0,0.0,0.0,0.0,0.0,0.0,0.0,0.0,0.0,0.0,0.0,0.0,0.0,0.0,0.0,0.0,0.0,0.0,0.0,0.0,0.0,0.0,0.0,0.0,0.0,0.0,0.0,0.0,0.0,0.0,0.0,0.0,0.0,0.0,0.0,0.0,0.0,0.0,0.0,0.0,0.0,0.0,0.0,0.0,0.0,0.0,0.0,0.0,0.0,0.0,0.0,0.0,0.0,0.0,0.0,0.0,0.0,0.0,0.0,0.0,0.0,0.0,0.0,0.0,0.0,0.0,0.0,0.0,0.0,0.0,0.0,0.0,0.0,0.0,0.0,0.0,0.0,0.0,0.0,0.0,0.0,0.0,0.0,0.0,0.0,-0.4471,-0.5006,-0.5382,-0.5382,-0.5382,-0.5355,-0.529,-0.4956,-0.4694,-0.4451,0.0,0.0,0.0,0.0,0.0,0.0,0.0,0.0,0.0,0.0,0.0,0.0,0.0,0.0,0.0,0.0,0.0,0.0,0.0,0.0,0.0,0.0,0.0,0.0,0.0,0.0,0.0,0.0,0.0,0.0,0.0,0.0,0.0,0.0,0.0,0.0,0.0,0.0,0.0,0.0,0.0,0.0,0.0,0.0,0.0,0.0,0.0,0.0,0.0,0.0,0.0,0.0,0.0,0.0,0.0,0.0,0.0,0.0,0.0,0.0,0.0,0.0,0.0,0.0,0.0,0.0,0.0,0.0,0.0,0.0,0.0,0.0,0.0,0.0,0.0,0.0,0.0,0.0,0.0,0.0,0.0,0.0,0.0,0.0,0.0,0.0,0.0,0.0,0.0,0.0,0.0,0.0,0.0,0.0,0.0,0.0,0.0,0.0,0.0,0.0,0.0,0.0,-0.3318,-0.4128,-0.4668,-0.47,-0.5067,-0.5304,-0.5194,-0.5026,-0.4706,-0.4275,0.0,0.0,0.0,0.0,0.0,0.0,0.0,0.0,0.0,0.0,0.0,0.0,0.0,0.0,0.0,0.0,0.0,0.0,0.0,0.0,0.0,0.0,0.0,0.0,0.0,0.0,0.0,0.0,0.0,0.0,0.0,0.0,0.0,0.0,0.0,0.0,0.0,0.0,0.0,0.0,0.0,0.0,0.0,0.0,0.0,0.0,0.0,0.0,0.0,0.0,0.0,0.0,0.0,0.0,0.0,0.0,0.0,0.0,0.0,0.0,0.0,0.0,0.0,0.0,0.0,0.0,0.0,0.0,0.0,0.0,0.0,0.0,0.0,0.0,0.0,0.0,0.0,0.0,0.0,0.0,0.0,0.0,0.0,0.0,0.0,0.0,0.0,0.0,0.0,0.0,0.0,0.0,0.0,0.0,0.0,0.0,0.0,0.0,0.0,0.0,0.0,0.0,-0.169,-0.2696,-0.3448,-0.3446,-0.4397,-0.5066,-0.5056,-0.5006,-0.4736,-0.4262,0.0,0.0,0.0,0.0,0.0,0.0,0.0,0.0,0.0,0.0,0.0,0.0,0.0,0.0,0.0,0.0,0.0,0.0,0.0,0.0,0.0,0.0,0.0,0.0,0.0,0.0,0.0,0.0,0.0,0.0,0.0,0.0,0.0,0.0,0.0,0.0,0.0,0.0,0.0,0.0,0.0,0.0,0.0,0.0,0.0,0.0,0.0,0.0,0.0,0.0,0.0,0.0,0.0,0.0,0.0,0.0,0.0,0.0,0.0,0.0,0.172,0.0,0.0,0.0,0.0,0.0,0.0,0.0,0.0,0.0,0.0,0.0,0.0,0.0,0.0,0.0,0.0,0.0,0.0,0.0,0.0,0.0,0.0,0.0,0.0,0.0,0.0,0.0,0.0,0.0,0.0,0.0,0.0,0.0,0.0,0.0,0.0,0.0,0.0,0.0,0.0,0.0,-0.1539,-0.193,-0.2248,-0.2256,-0.3216,-0.3831,-0.3777,-0.4415,-0.4696,-0.4297,-0.4012,0.0,0.0,0.0,0.0,0.0,0.0,0.0,0.0,0.0,0.0,0.0,0.0,0.0,0.0,0.0,0.0,0.0,0.0,0.0,0.0,0.0,0.0,0.0,0.0,0.0,0.0,0.0,0.0,0.0,0.0,0.0,0.0,0.0,0.0,0.0,0.0,0.0,0.0,0.0,0.0,0.0,0.0,0.0,0.0,0.0,0.0,0.0,0.0,0.0,0.0,0.0,0.0,0.0,0.0,0.0,0.0,0.0,0.0,0.0,0.0,0.1748,0.0,0.0,0.0,0.0,0.0,0.0,0.0,0.0,0.0,0.0,0.0,0.0,0.0,0.0,0.0,0.0,0.0,0.0,0.0,0.0,0.0,0.0,0.0,0.0,0.0,0.0,0.0,0.0,0.0,0.0,0.0,0.0,0.0,0.0,0.0,0.0,0.0,0.0,0.0,0.0,-0.0132,-0.0637,-0.1054,-0.1009,-0.2005,-0.2615,-0.259,-0.3461,-0.3902,-0.3555,-0.375,0.0,0.0,0.0,0.0,0.0,0.0,0.0,0.0,0.0,0.0,0.0,0.0,0.0,0.0,0.0,0.0,0.0,0.0,0.0,0.0,0.0,0.0,0.0,0.0,0.0,0.0,0.0,0.0,0.0,0.0,0.0,0.0,0.0,0.0,0.0,0.0,0.0,0.0,0.0,0.0,0.0,0.0,0.0,0.0,0.0,0.0,0.0,0.0,0.0,0.0,0.0,0.0,0.0,0.6302,0.6176,0.5884,0.6019,0.5374,0.4175,0.3015,0.228,0.1806,0.1745,0.0,0.0,0.0,0.0,0.0,0.0,0.0,0.0,0.0,0.0,0.0,0.0,0.0,0.0,0.0,0.0,0.0,0.0,0.0,0.0,0.0,0.0,0.0,0.0,0.0631,0.0474,0.0,0.0,0.0,0.0,0.0,0.0,0.0,0.0,0.0,0.0,0.0,0.0,0.1339,0.0683,0.0208,0.0211,-0.078,-0.139,-0.139,-0.2336,-0.2885,-0.2774,-0.3396,-0.3691,0.0,0.0,0.0,0.0,0.0,0.0,0.0,0.0,0.0,0.0,0.0,0.0,0.0,0.0,0.0,0.0,0.0,0.0,0.0,0.0,0.0,0.0,0.0,0.0,0.0,0.0,0.0,0.0,0.0,0.0,0.0,0.0,0.8788,0.8807,0.0,0.0,0.0,0.0,0.0,0.0,0.0,0.0,0.0,0.0,0.0,0.0,0.0,0.8965,0.9072,0.9335,0.8861,0.773,0.7878,0.7368,0.6234,0.6254,0.6164,0.5968,0.5679,0.0,0.1869,0.1808,0.0,0.0,0.0,0.0,0.0,0.0,0.0,0.0,0.0,0.0,0.0,0.0,0.0,0.0,0.0,0.0,0.0,0.0,0.0,0.0,0.0,0.0,0.1707,0.1553,0.1507,0.1499,0.0,0.0182,-0.0804,-0.0902,-0.0868,0.0,0.0,0.0,0.0,0.0,0.0,0.0,0.1386,0.14,0.137,0.1373,0.0405,-0.0202,-0.0202,-0.1211,-0.2127,-0.2933,-0.2909,-0.3143,-0.38,-0.3554,0.0,0.0,0.0,0.0,0.0,0.0,0.0,0.0,0.0,0.0,0.0,0.0,0.0,0.0,0.0,0.0,0.0,0.0,0.0,0.0,0.0,0.0,0.0,0.0,0.0,0.0,0.0,0.0,0.0,0.9199,0.9378,0.935,0.959,0.9764,0.0,0.0,0.0,0.0,0.0,0.0,0.0,0.0,0.0,0.9313,0.9602,0.9788,0.9795,1.007,0.9893,0.9324,0.9458,0.916,0.8529,0.8519,0.8121,0.729,0.718,0.6012,0.4089,0.3235,0.2938,0.2844,0.0,0.0,0.0,0.0,0.1656,0.1626,0.1694,0.1677,0.0,0.1623,0.0,0.0,0.0,0.0,0.0,0.0,0.0,0.0,0.0,0.0,0.1802,0.1739,0.1733,0.1714,0.1658,0.1094,0.0563,0.0,0.0423,0.0499,0.0635,0.0,0.0,0.0,0.0,0.1427,0.1457,0.1552,0.1617,0.1617,0.1161,0.0908,0.0908,-0.01,-0.0882,-0.124,-0.1695,-0.2318,-0.3151,-0.291,-0.2952,0.0,0.0,0.0,0.0,0.0,0.0,0.0,0.0,0.0,0.0,0.0,0.0,0.0,0.0,0.0,0.0,0.0,0.0,0.0,0.0,0.0,0.0,0.0,0.0,0.0,0.0,0.0,0.0,0.9432,0.9652,0.9462,0.9912,1.0088,0.0,0.0,0.0,0.0,0.0,0.0,0.9496,0.9637,0.9724,0.9724,1.0008,1.0098,1.0098,1.0314,1.0375,1.0334,1.0439,1.0419,1.028,1.028,0.9706,0.8648,0.8515,0.7843,0.6832,0.5081,0.4313,0.4175,0.3087,0.2658,0.265,0.263,0.244,0.2145,0.2204,0.2035,0.1714,0.17,0.0,0.1982,0.1637,0.0,0.0,0.0,0.0,0.1678,0.1725,0.1776,0.182,0.178,0.1821,0.1793,0.1702,0.1677,0.1665,0.0,0.1449,0.1423,0.1233,0.0,0.0,0.0,0.0,0.144,0.1486,0.1558,0.1608,0.1616,0.161,0.1605,0.1605,0.0837,0.029,0.0095,-0.0643,-0.1417,-0.2247,-0.212,-0.2362,-0.3108,0.0,0.0,0.0,0.0,0.0,0.0,0.0,0.0,0.0,0.0,0.0,0.0,0.0,0.0,0.0,0.0,0.0,0.0,0.0,0.0,0.0,0.0,0.0,0.0,0.0,0.0,0.0,0.0,0.0,0.9632,1.01,0.0,0.0,0.0,0.0,1.0454,1.0299,1.0269,1.0269,1.0125,1.0029,0.9963,1.0314,1.047,1.047,1.0622,1.0626,1.048,1.0487,1.0419,1.028,1.028,1.0276,1.0196,0.9978,0.9849,0.9575,0.6921,0.5704,0.5494,0.5453,0.5306,0.523,0.5234,0.451,0.3509,0.3521,0.2767,0.1807,0.1779,0.2482,0.3099,0.2014,0.2444,0.0,0.0,0.1673,0.1795,0.1799,0.1824,0.1786,0.1814,0.1805,0.1788,0.1729,0.1715,0.1634,0.0,0.1544,0.1517,0.1324,0.0,0.1373,0.1304,0.137,0.1424,0.1513,0.1553,0.1585,0.1613,0.1591,0.1623,0.1623,0.1497,0.1041,0.0046,-0.0046,-0.0453,-0.1346,-0.1314,-0.1597,-0.2343,-0.2102,0.0,0.0,0.0,0.0,0.0,0.0,0.0,0.0,0.0,0.0,0.0,0.0,0.0,0.0,0.0,0.0,0.0,0.0,0.0,0.0,0.0,0.0,0.0,0.0,0.0,0.0,0.0,0.0,1.0056,1.0674,0.0,1.0442,1.0573,1.0653,1.0519,1.0401,1.0305,1.0305,1.032,1.0334,1.0334,1.0531,1.0639,1.0639,1.0595,1.0548,1.049,1.0399,1.0331,1.0276,1.0178,1.0131,1.0124,0.9968,0.9849,0.9697,0.8686,0.7735,0.6786,0.5867,0.5446,0.5417,0.5417,0.5139,0.4749,0.4749,0.4453,0.4098,0.4081,0.4295,0.4543,0.4123,0.4299,0.4547,0.4126,0.3443,0.2892,0.2892,0.236,0.1813,0.1727,0.176,0.174,0.1719,0.1647,0.1624,0.1591,0.1577,0.1536,0.1379,0.1429,0.1425,0.1315,0.1406,0.146,0.1493,0.1523,0.1546,0.1557,0.1549,0.1542,0.1542,0.1514,0.1352,0.0972,0.0913,0.0492,-0.0435,-0.0935,-0.1604,-0.2395,-0.274,-0.3017,0.0,0.0,0.0,0.0,0.0,0.0,0.0,0.0,0.0,0.0,0.0,0.0,0.0,0.0,0.0,0.0,0.0,0.0,0.0,0.0,0.0,0.0,0.0,0.0,0.0,0.0,1.0334,1.0287,1.0965,1.1149,1.065,1.0825,1.0846,1.0535,1.0469,1.0429,1.0429,1.0517,1.0568,1.0568,1.0616,1.0643,1.0643,1.0493,1.0395,1.0341,1.0249,1.0175,1.012,1.0019,0.9936,0.9977,0.9836,0.9724,0.9669,0.9517,0.8926,0.8066,0.704,0.6619,0.6589,0.6589,0.6311,0.5919,0.5528,0.5417,0.5406,0.5351,0.5608,0.5809,0.5386,0.5518,0.5739,0.5287,0.4593,0.3999,0.3999,0.3138,0.232,0.2225,0.2249,0.2124,0.1752,0.1926,0.205,0.1651,0.1585,0.1549,0.1432,0.1474,0.1457,0.1344,0.1427,0.1469,0.1479,0.1498,0.1515,0.1477,0.1517,0.151,0.151,0.1473,0.145,0.145,0.1423,0.1091,0.0473,-0.0084,-0.0898,-0.208,-0.3113,-0.3537,-0.3379,0.0,0.0,0.0,0.0,0.0,0.0,0.0,0.0,0.0,0.0,0.0,0.0,0.0,0.0,0.0,0.0,0.0,0.0,0.0,0.0,0.0,0.0,0.0,0.9401,1.0039,1.0456,1.0388,1.1019,1.1179,1.0507,1.0829,1.096,1.0651,1.0767,1.085,1.085,1.0787,1.0784,1.0777,1.0568,1.049,1.0483,1.0344,1.0198,0.9987,0.998,0.9906,0.9829,0.9822,0.9842,0.997,0.9737,0.9686,0.9774,0.9334,0.9207,0.9204,0.9204,0.9062,0.8885,0.8885,0.8156,0.6985,0.5919,0.5528,0.5528,0.5528,0.6253,0.6903,0.5586,0.6044,0.6668,0.5386,0.499,0.4937,0.4933,0.4141,0.3281,0.3274,0.3312,0.2987,0.1874,0.2483,0.2889,0.1864,0.1618,0.156,0.153,0.15,0.147,0.1395,0.1391,0.0,0.1476,0.1479,0.1491,0.152,0.1497,0.1479,0.1479,0.1425,0.139,0.139,0.1321,0.1305,0.1304,0.1277,0.0442,-0.1333,-0.3023,-0.3923,-0.3923,0.0,0.0,0.0,0.0,0.0,0.0,0.0,0.0,0.0,0.0,0.0,0.0,0.0,0.0,0.0,0.0,0.0,0.0,0.0,0.0,0.0,0.9579,0.9737,0.9849,1.0419,1.1245,1.2385,1.2951,1.3468,1.4031,1.4185,1.4057,1.3744,1.37,1.3731,1.3731,1.275,1.2169,1.2106,1.1027,1.0443,1.0341,1.0188,1.0031,0.9984,0.9876,0.9859,0.992,0.9873,0.9842,0.997,0.9737,0.9568,0.9483,0.9306,0.9093,0.8998,0.8998,0.8974,0.8885,0.8885,0.8716,0.838,0.8042,0.7931,0.7931,0.7931,0.8084,0.8218,0.7795,0.7877,0.8002,0.7592,0.6893,0.6188,0.6212,0.4738,0.3272,0.3263,0.3248,0.3131,0.2726,0.29,0.3073,0.2697,0.2042,0.1503,0.1495,0.1486,0.147,0.1395,0.1391,0.0,0.1446,0.1448,0.1406,0.1414,0.1407,0.1448,0.1448,0.1412,0.139,0.139,0.1321,0.1296,0.1316,0.0571,-0.0722,-0.2585,-0.3558,-0.4104,0.0,0.0,0.0,0.0,0.0,0.0,0.0,0.0,0.0,0.0,0.0,0.0,0.0,0.0,0.0,0.0,0.0,0.0,0.0,0.0,0.0,0.0,1.0786,1.1166,1.1901,1.1819,1.2306,1.3887,1.4307,1.4717,1.5278,1.5313,1.5181,1.4936,1.4907,1.487,1.4711,1.3929,1.3388,1.3258,1.1853,1.108,1.0992,1.0831,1.0689,1.0689,1.0717,1.0717,1.0689,1.0111,0.9903,0.9967,0.9669,0.95,0.9456,0.9178,0.9015,0.0,0.0,0.0,0.0,0.0,0.9028,0.9028,0.9028,0.8988,0.8871,0.8807,0.8781,0.8686,0.8564,0.8465,0.8381,0.8316,0.7779,0.7241,0.7268,0.5925,0.4487,0.3986,0.3851,0.3719,0.3139,0.3093,0.3095,0.2969,0.213,0.0,0.1462,0.1462,0.1455,0.1393,0.1391,0.1391,0.1391,0.1391,0.1391,0.1391,0.1391,0.1391,0.1391,0.1353,0.0,0.0,0.0,0.1093,0.1029,0.0039,0.0,0.0,0.0,0.0,0.0,0.0,0.0,0.0,-0.4577,-0.4558,0.0,0.0,0.0,0.0,0.0,0.0,0.0,0.0,0.0,0.0,0.0,0.0,0.0,0.0,0.0,0.0,1.2475,1.3184,1.4723,1.4007,1.38,1.5182,1.5457,1.5572,1.5623,1.5604,1.5517,1.5378,1.5344,1.5242,1.4974,0.0,0.0,0.0,0.0,1.2123,1.1979,1.1967,1.1901,1.1724,1.1939,1.1939,1.1752,1.0529,0.996,0.9936,0.9568,0.9449,0.9523,0.9053,0.8885,0.8885,0.8885,0.8885,0.8902,0.91,0.92,0.9187,0.9204,0.0,0.0,0.8754,0.8686,0.8611,0.835,0.831,0.8214,0.8029,0.7988,0.7988,0.7988,0.7188,0.6182,0.5211,0.4897,0.4489,0.3404,0.3122,0.3043,0.2948,0.2089,0.1391,0.1391,0.1391,0.1391,0.1391,0.1391,0.1391,0.1391,0.1391,0.1391,0.1391,0.0,0.0,0.139,0.1335,0.1302,0.1305,0.1048,0.0817,0.0571,-0.0304,-0.1175,-0.1934,-0.3071,-0.3986,-0.474,-0.4898,-0.5018,-0.501,-0.4697,-0.4667,0.0,0.0,0.0,0.0,0.0,0.0,0.0,0.0,0.0,0.0,0.0,0.0,0.0,0.0,0.0,1.2547,1.3532,1.4792,1.6363,1.6366,1.635,1.6918,1.7077,1.7526,1.8553,1.8661,1.8563,1.8308,1.8105,1.7966,1.7914,1.664,1.5804,1.5629,1.4287,1.2969,1.1744,1.2999,1.3118,1.2024,0.0,0.0,1.2224,1.0569,0.9866,0.9846,0.9523,0.9327,0.9282,0.9022,0.8885,0.8885,0.8885,0.8885,0.8902,0.91,0.9079,0.8994,0.9169,0.8977,0.875,0.872,0.855,0.8343,0.834,0.8184,0.0,0.7998,0.7988,0.7988,0.7988,0.7188,0.6313,0.6015,0.5338,0.4651,0.4178,0.3569,0.3076,0.2938,0.2068,0.1391,0.1391,0.1391,0.1391,0.1391,0.1391,0.1391,0.1391,0.1391,0.1391,0.1391,0.1413,0.1409,0.1388,0.1359,0.128,0.1304,0.1048,0.0744,0.039,-0.0428,-0.1361,-0.237,-0.33,-0.4167,-0.4937,-0.4979,-0.5018,-0.5018,-0.504,-0.5072,0.0,0.0,0.0,0.0,0.0,0.0,0.0,0.0,0.0,0.0,0.0,0.9946,1.0182,0.0,1.1942,1.3496,1.4359,1.556,1.7748,1.8028,1.8073,1.821,1.8325,1.8615,1.9219,1.9271,1.9163,1.8897,1.8758,1.8565,1.8294,1.7532,1.6971,1.678,1.5553,1.4584,1.3876,1.4645,1.4699,1.4028,1.3355,1.3049,1.2987,1.0884,0.9852,0.9703,0.9479,0.9354,0.92,0.8998,0.8885,0.8885,0.8885,0.8984,0.9055,0.9183,0.911,0.9045,0.9045,0.8899,0.8686,0.8537,0.8391,0.8255,0.8177,0.8102,0.7988,0.7988,0.7988,0.7988,0.7988,0.7536,0.6969,0.6365,0.5391,0.4579,0.435,0.3203,0.2357,0.2827,0.2106,0.1391,0.1391,0.1391,0.1391,0.1391,0.1391,0.1391,0.1391,0.1391,0.1391,0.1391,0.1408,0.1402,0.1388,0.1239,0.1112,0.0978,0.0716,0.0471,0.0157,-0.0235,-0.0902,-0.1879,-0.2737,-0.3558,-0.4384,-0.4818,-0.5078,-0.5195,-0.5252,-0.532,0.0,0.0,0.0,0.0,0.0,0.0,0.0,0.0,0.9448,0.9888,1.0044,1.022,1.039,1.078,1.1761,1.3979,1.4859,1.6078,1.8355,1.8944,1.9078,1.9078,1.9078,1.9078,1.9078,1.903,1.8915,1.8704,1.8589,1.8336,1.7895,1.7823,1.7702,1.7491,1.6766,1.6205,1.5915,1.6255,1.6277,1.598,1.4877,1.412,1.3731,1.1363,1.0025,0.9554,0.9374,0.9225,0.9103,0.8988,0.8885,0.8885,0.8885,0.9011,0.9173,0.92,0.9173,0.9055,0.8971,0.8801,0.8584,0.8347,0.8252,0.8204,0.8025,0.7988,0.7988,0.7988,0.7988,0.7982,0.7955,0.7902,0.7504,0.6387,0.5282,0.442,0.4084,0.2628,0.1659,0.2464,0.1973,0.1391,0.1391,0.1391,0.1391,0.1391,0.1391,0.1391,0.1391,0.1391,0.1391,0.1391,0.1408,0.1395,0.132,0.1119,0.0873,0.0555,0.0397,0.0199,0.0,0.0,-0.0394,-0.1293,-0.2074,-0.2934,-0.3791,-0.4621,-0.5113,-0.5342,-0.5364,-0.5413,0.9374,0.9123,0.892,0.8754,0.891,0.919,0.0,0.0,0.9634,0.9777,0.9927,1.0094,1.0282,1.1449,1.2512,1.2951,1.5144,1.685,1.7173,1.8291,1.9078,1.9078,1.9078,1.9078,1.9078,1.8861,1.8716,1.8686,1.8239,1.7937,1.7877,1.7654,1.7509,1.7485,1.7613,1.7034,1.5672,1.7265,1.7375,1.598,1.5859,1.5176,1.399,1.2266,1.0759,0.9391,0.911,0.8922,0.8905,0.8892,0.8885,0.8885,0.8885,0.8895,0.8977,0.9106,0.8988,0.8777,0.8841,0.8665,0.8316,0.8333,0.8177,0.8012,0.7995,0.7988,0.7988,0.7988,0.7988,0.7958,0.7872,0.7824,0.75,0.6215,0.5221,0.4221,0.3247,0.22,0.1436,0.1524,0.148,0.1391,0.1391,0.1391,0.1391,0.1391,0.1391,0.1391,0.1391,0.1391,0.1391,0.1391,0.1408,0.1284,0.1073,0.102,0.0809,0.0366,0.0331,0.0207,0.0,0.0,-0.0401,-0.1293,-0.2074,-0.2934,-0.3791,-0.4621,-0.5031,-0.5059,-0.5159,-0.5382,0.9805,0.9554,0.0,0.0,0.9517,0.9669,0.9642,0.9825,1.0019,1.0076,1.0205,1.0354,1.0507,1.104,1.1753,0.0,1.3792,1.5159,1.678,1.7501,1.8099,1.8798,1.8849,1.8909,1.906,1.8837,1.8625,1.8469,1.8094,1.7811,1.7654,1.7539,1.7551,1.7702,1.7974,1.7815,1.7159,1.7929,1.7905,1.7078,1.5419,1.4395,1.3788,1.1499,1.006,0.9296,0.9028,0.8885,0.8885,0.8885,0.8885,0.8885,0.8885,0.8885,0.8892,0.9008,0.8893,0.8706,0.8682,0.8496,0.8255,0.8167,0.8092,0.7988,0.7988,0.7988,0.7988,0.7988,0.7988,0.7955,0.7851,0.7359,0.6721,0.6069,0.4702,0.3438,0.3006,0.2107,0.1391,0.1391,0.1391,0.1391,0.1391,0.1391,0.1391,0.1391,0.1391,0.1391,0.1391,0.1391,0.1339,0.1192,0.1193,0.1088,0.0792,0.0684,0.0558,0.0333,0.0209,0.0083,0.0,0.0,-0.0161,-0.0549,-0.1371,-0.2192,-0.3051,-0.3873,-0.4604,-0.5222,-0.5271,-0.5453,0.9941,0.0,0.0,0.9795,0.9998,1.0071,0.9981,1.0181,1.0402,1.0402,1.0483,1.0588,1.07,1.0721,1.1049,1.2033,1.2557,1.353,1.5549,1.6147,1.6824,1.8,1.8107,1.8262,1.8843,1.8619,1.8384,1.8191,1.7919,1.7678,1.7491,1.7551,1.7678,1.7865,1.8149,1.8257,1.8179,1.8179,1.804,1.7762,1.5283,1.3931,1.3511,1.0738,0.9361,0.9204,0.9001,0.8885,0.8885,0.8885,0.8885,0.8885,0.8885,0.8885,0.8885,0.8885,0.8815,0.8625,0.8476,0.833,0.8187,0.8025,0.7988,0.7988,0.7988,0.7988,0.7988,0.7988,0.7988,0.7944,0.7801,0.6953,0.6081,0.5557,0.4158,0.2823,0.2553,0.1928,0.1391,0.1391,0.1391,0.1391,0.1391,0.1391,0.1391,0.1391,0.1345,0.13,0.13,0.1256,0.1115,0.0923,0.0978,0.0884,0.0554,0.0477,0.0348,0.0213,0.0085,0.0,0.0,0.0,0.0,0.0,-0.1119,-0.1956,-0.2553,-0.3709,-0.4627,-0.541,-0.541,-0.5483,0.0,0.0,0.9815,0.9819,1.0154,1.0439,1.0297,1.0493,1.0707,1.0707,1.0711,1.0714,1.0721,1.0721,1.0721,1.0787,1.1901,1.2816,1.2947,1.4023,1.5238,1.6503,1.655,1.6977,0.0,1.8064,1.7895,1.7883,1.7642,1.7491,1.7485,1.7726,1.7865,1.7871,1.8149,1.8161,1.7889,1.7883,1.775,1.7491,1.5978,1.4576,1.3339,1.0494,0.9217,0.9204,0.9001,0.8885,0.8885,0.8885,0.8885,0.8885,0.8885,0.8885,0.8885,0.8885,0.8747,0.8469,0.8378,0.8177,0.7995,0.7992,0.7988,0.7988,0.7988,0.7988,0.7988,0.7988,0.7988,0.7924,0.7682,0.6885,0.5873,0.4649,0.3624,0.2644,0.1659,0.1436,0.1391,0.1391,0.1391,0.1391,0.1391,0.1391,0.1391,0.1391,0.1256,0.1121,0.1121,0.0897,0.0717,0.0717,0.0717,0.0622,0.0436,0.0399,0.0267,0.0044,0.0,0.0,0.0,0.0,0.0,0.0,-0.176,-0.268,-0.268,-0.4478,-0.5363,-0.541,-0.541,-0.5436,0.0,0.0,1.0148,1.0243,1.0456,1.0629,1.0582,1.0649,1.0721,1.0721,1.0639,1.0568,1.0568,1.049,1.046,1.0555,1.0957,1.1601,1.2572,1.3141,1.3809,1.4849,1.5732,0.0,0.0,0.0,0.0,1.7871,1.763,1.7557,1.7732,1.7823,1.7962,1.8143,1.8245,1.8161,1.7877,1.7871,1.7286,1.6031,1.3755,1.1918,1.0608,0.9649,0.91,0.9008,0.8905,0.8885,0.8885,0.8885,0.8885,0.8885,0.8885,0.8885,0.8858,0.871,0.857,0.8476,0.8428,0.8248,0.7988,0.7988,0.7988,0.7988,0.7988,0.7988,0.7988,0.7988,0.7988,0.7793,0.6918,0.5944,0.4906,0.3679,0.2624,0.1793,0.148,0.1391,0.1391,0.1391,0.1391,0.1391,0.1391,0.13,0.1121,0.0942,0.1031,0.1031,0.0852,0.0762,0.0628,0.0493,0.0493,0.0403,0.0133,0.0134,0.009,0.0,0.0,0.0,0.0,0.0,-0.0301,-0.0925,-0.1512,-0.2434,-0.3648,-0.4235,-0.486,-0.5445,-0.5445,-0.5513,0.9873,1.0086,1.0327,1.0524,1.0649,1.0721,1.0721,1.0721,1.0704,1.0649,1.0521,1.0415,1.0415,1.0253,1.0181,1.0385,1.0415,1.0755,1.1702,1.1885,1.2307,1.3327,1.4133,1.4689,0.0,0.0,0.0,1.7726,1.7575,1.7557,1.7726,1.7823,1.7956,1.8137,1.8143,1.8058,1.7877,1.7256,1.5898,1.3752,1.2021,1.0459,0.9076,0.9076,0.9025,0.8885,0.8885,0.8885,0.8885,0.8885,0.8885,0.8885,0.8885,0.8885,0.8854,0.8655,0.853,0.8465,0.836,0.8197,0.7988,0.7988,0.7988,0.7988,0.7988,0.7988,0.7939,0.7537,0.7437,0.7155,0.5943,0.4868,0.3926,0.311,0.2139,0.1391,0.1391,0.1391,0.1391,0.1391,0.1345,0.13,0.13,0.1121,0.0852,0.0628,0.0718,0.0807,0.0628,0.0494,0.0404,0.0269,0.0269,0.018,0.0,0.0,0.0,0.0,0.0,-0.0134,-0.0484,-0.0484,-0.0961,-0.1936,-0.2279,-0.3008,-0.4167,-0.4511,-0.4975,-0.5572,-0.5572,-0.5613,0.992,1.0178,1.0371,1.0649,1.0721,1.0717,1.0711,1.0704,1.0653,1.05,1.0351,1.0243,0.0,0.0,0.9907,1.0209,1.027,1.0331,1.0473,1.0375,1.0725,0.0,0.0,0.0,0.0,0.0,0.0,1.7226,0.0,1.7414,1.7438,1.7679,1.7751,1.7691,1.7751,1.7745,1.7673,1.5957,1.3757,1.112,1.1,1.0241,0.8885,0.8885,0.8885,0.8885,0.8885,0.8885,0.8885,0.8885,0.8885,0.8885,0.8885,0.8885,0.8865,0.8757,0.8608,0.8438,0.8093,0.7988,0.7988,0.7988,0.7988,0.7988,0.7988,0.7939,0.769,0.6686,0.6334,0.6061,0.4824,0.3813,0.3076,0.2883,0.2095,0.1391,0.1391,0.1391,0.1391,0.1391,0.1211,0.1076,0.1076,0.0852,0.0628,0.0403,0.0359,0.0359,0.0359,0.018,0.0,0.0,0.0,0.0,0.0,0.0,0.0,0.0,-0.0045,-0.0449,-0.1345,-0.1436,-0.1928,-0.2957,-0.3851,-0.4344,-0.4389,-0.5285,-0.5688,-0.5688,-0.5688,-0.5688,1.0171,1.0409,1.0626,1.07,1.0721,1.069,1.0575,1.047,1.0348,1.0195,0.9958,0.9747,0.0,0.0,0.0,0.9907,1.0131,0.0,1.0473,1.046,0.0,1.0565,0.0,1.2012,1.2182,1.3379,0.0,0.0,1.5354,1.5937,1.6358,1.6436,1.6046,1.513,1.598,1.5959,1.476,1.3145,1.1907,1.1064,0.9987,0.9248,0.8885,0.8885,0.8885,0.8885,0.8885,0.8885,0.8885,0.8885,0.8885,0.8885,0.8885,0.8885,0.8851,0.8638,0.8516,0.8438,0.8093,0.7988,0.7988,0.7988,0.7988,0.7988,0.7988,0.7437,0.6736,0.6487,0.5832,0.497,0.3854,0.3316,0.2897,0.2036,0.152,0.1166,0.1166,0.1166,0.1166,0.1166,0.1121,0.0987,0.0628,0.0538,0.0404,0.0135,0.009,0.009,0.009,0.0045,0.0,0.0,0.0,0.0,0.0,0.0,0.0,0.0,-0.0673,-0.1166,-0.1391,-0.2107,-0.2956,-0.3941,-0.4164,-0.4659,-0.5329,-0.5599,-0.5688,-0.5688,-0.5688,-0.5688,1.0203,1.0541,1.0721,1.0721,1.067,1.0582,1.0432,1.0287,1.0117,0.99,0.9673,0.0,0.0,0.0,0.0,0.0,0.0,0.0,1.0276,1.0297,1.0236,0.0,1.0598,0.0,1.0857,1.197,1.2674,0.0,1.3912,1.4662,1.4967,1.4982,1.4681,1.3956,1.462,1.4227,1.2687,1.1769,1.0911,1.0118,0.9307,0.8885,0.8885,0.8885,0.8885,0.8885,0.0,0.8885,0.8885,0.8885,0.8885,0.8885,0.8885,0.8885,0.8854,0.8669,0.854,0.8448,0.8221,0.8096,0.7988,0.7988,0.7988,0.7889,0.7437,0.6886,0.6184,0.5281,0.4578,0.3874,0.2772,0.2467,0.2267,0.1545,0.1226,0.106,0.0968,0.0922,0.0919,0.0819,0.0812,0.0673,0.0269,0.0224,0.018,0.0045,0.0,0.0,0.0,0.0,0.0,0.0,0.0,0.0,0.0,0.0,-0.018,-0.0584,-0.1122,-0.1793,-0.2643,-0.3226,-0.3941,-0.4882,-0.4926,-0.5196,-0.5688,-0.5688,-0.5688,-0.5688,-0.5688,-0.5688,0.9828,1.0353,1.0452,1.0651,1.0605,1.0449,1.0287,1.0117,0.9845,0.9608,0.0,0.0,0.9296,0.0,0.9303,0.9534,0.0,0.988,0.9994,1.0,0.9987,0.9987,0.9852,0.9822,0.9822,1.0591,1.1221,1.1438,1.2526,1.3246,1.3426,1.3426,1.3426,1.3426,1.3246,1.2517,1.1039,1.1035,1.0357,0.8885,0.8885,0.8885,0.8885,0.8885,0.8885,0.8885,0.8885,0.0,0.8885,0.8885,0.8885,0.8885,0.8885,0.8885,0.8865,0.8767,0.8625,0.8492,0.8347,0.8197,0.8015,0.7995,0.7889,0.764,0.6686,0.6184,0.5582,0.3725,0.3073,0.2772,0.1818,0.1594,0.1473,0.1277,0.1112,0.0954,0.0715,0.0668,0.0617,0.0419,0.0412,0.0317,0.0045,0.0,0.0,0.0,0.0,0.0,0.0,0.0,0.0,0.0,0.0,0.0,0.0,-0.0135,-0.0539,-0.1345,-0.1659,-0.2553,-0.4208,-0.4433,-0.4882,-0.5688,-0.5688,-0.5688,-0.5688,-0.5688,-0.5688,-0.5688,-0.5688,-0.5688,0.8511,0.8958,0.9244,1.0386,1.0605,1.0422,1.0214,0.9883,0.0,0.0,0.0,0.8977,0.8849,0.9005,0.0,0.9391,0.0,0.0,0.0,0.0,0.9987,0.0,0.0,0.0,0.0,0.0,0.0,0.0,0.0,1.0967,1.1993,1.2049,1.2049,1.2049,1.1027,1.0211,0.9729,0.9722,0.9457,0.8885,0.8885,0.8885,0.8885,0.8885,0.8885,0.8885,0.8885,0.0,0.8885,0.8885,0.8885,0.8885,0.8885,0.8885,0.8865,0.8767,0.8693,0.8648,0.8499,0.835,0.8211,0.8029,0.7388,0.6637,0.6437,0.5181,0.3676,0.3324,0.2572,0.1818,0.1667,0.1444,0.1277,0.1228,0.087,0.0524,0.0477,0.0429,0.0429,0.0427,0.0378,0.033,0.0047,0.0,0.0,0.0,0.0,0.0,0.0,0.0,0.0,0.0,0.0,0.0,0.0,-0.0718,-0.1211,-0.1391,-0.2911,-0.3941,-0.43,-0.506,-0.5555,-0.5688,-0.5688,-0.5688,-0.5688,-0.5688,-0.5688,-0.5688,-0.5688,-0.5688,0.7075,0.8038,0.8759,0.9363,0.9845,1.0185,0.989,0.0,0.0,0.0,0.0,0.8861,0.8842,0.9008,0.0,0.0,0.0,0.0,0.0,0.0,0.0,0.0,0.0,0.0,0.0,0.0,0.0,0.0,0.0,1.0061,1.0668,1.0728,1.0728,1.0728,1.0049,0.9605,0.9384,0.9361,0.9154,0.8885,0.8885,0.8885,0.8885,0.8885,0.8885,0.8885,0.8885,0.0,0.8885,0.8885,0.8885,0.8885,0.8885,0.8885,0.8875,0.8801,0.8777,0.8699,0.8625,0.8082,0.7437,0.7337,0.6892,0.6184,0.5079,0.4026,0.3073,0.2521,0.2019,0.1566,0.1415,0.1305,0.1147,0.0847,0.0495,0.0197,0.0197,0.0195,0.0194,0.0194,0.0192,0.0143,0.0,0.0,0.0,0.0,0.0,0.0,0.0,0.0,0.0,0.0,0.0,0.0,0.0,-0.0404,-0.1122,-0.2107,-0.3047,-0.403,-0.4971,-0.5466,-0.5688,-0.5688,-0.5688,-0.5688,-0.5688,-0.5688,-0.5688,-0.5688,-0.5688,-0.5688,0.5592,0.682,0.7747,0.7905,0.8797,0.9464,0.9211,0.9174,0.0,0.0,0.0,0.8885,0.8885,0.9032,0.9173,0.0,0.0,0.0,0.0,0.0,0.0,0.0,0.0,0.0,0.0,0.0,0.0,0.0,0.0,0.0,0.9822,0.9822,0.9822,0.9822,0.9683,0.9537,0.9384,0.9286,0.9083,0.8885,0.8885,0.8885,0.8885,0.8885,0.8885,0.8885,0.8885,0.0,0.0,0.8895,0.8902,0.8981,0.8895,0.8885,0.8885,0.8885,0.8807,0.8703,0.8432,0.7671,0.6648,0.616,0.5869,0.5386,0.3743,0.3033,0.2671,0.1818,0.1617,0.1516,0.1263,0.1162,0.096,0.0455,0.0152,0.0,0.0,0.0,0.0,0.0,0.0,0.0,0.0,0.0,0.0,0.0,0.0,0.0,0.0,0.0,0.0,0.0,0.0,0.0,0.0,-0.0404,-0.1256,-0.2823,-0.3269,-0.4164,-0.5644,-0.5688,-0.5688,-0.5688,-0.5688,-0.5688,-0.5688,-0.5688,-0.5688,-0.5688,-0.5688,-0.5688,0.4085,0.459,0.502,0.6263,0.7321,0.801,0.7659,0.0,0.0,0.0,0.8842,0.8885,0.8885,0.8895,0.0,0.0,0.0,0.0,0.0,0.0,0.0,0.0,0.0,0.0,0.0,0.0,0.0,0.0,0.0,0.0,0.9822,0.9822,0.9822,0.9822,0.9683,0.9537,0.9384,0.9286,0.9083,0.8885,0.8885,0.8885,0.8885,0.8885,0.8885,0.8885,0.8885,0.0,0.0,0.8991,0.9015,0.9176,0.8991,0.8885,0.8885,0.8885,0.8875,0.8751,0.7636,0.7103,0.6557,0.4454,0.3679,0.3485,0.334,0.2555,0.1717,0.1617,0.1617,0.1516,0.1263,0.101,0.0707,0.0152,0.0,0.0,0.0,0.0,0.0,0.0,0.0,0.0,0.0,0.0,0.0,0.0,0.0,0.0,0.0,0.0,0.0,0.0,0.0,0.0,0.0,-0.1614,-0.2688,-0.2867,-0.4478,-0.5508,-0.5688,-0.5688,-0.5688,-0.5688,-0.5688,-0.5688,-0.5688,-0.5688,-0.5688,-0.5688,-0.5688,-0.5688,0.2819,0.3592,0.441,0.483,0.6404,0.7718,0.7359,0.0,0.0,0.8754,0.8832,0.8854,0.8818,0.8821,0.8927,0.0,0.8964,0.0,0.0,0.0,0.0,0.0,0.0,0.0,0.0,0.0,0.0,0.0,0.0,0.0,0.9822,0.9822,0.9822,0.9822,0.9595,0.9442,0.9381,0.9144,0.8994,0.8885,0.8885,0.8885,0.8885,0.8885,0.8885,0.8885,0.8885,0.0,0.0,0.8998,0.9022,0.9193,0.8994,0.8885,0.8885,0.8885,0.8436,0.7768,0.7263,0.6134,0.4693,0.3863,0.2964,0.2296,0.2313,0.2045,0.1669,0.1669,0.1566,0.1354,0.1082,0.0662,0.0253,0.0051,0.0,0.0,0.0,0.0,0.0,0.0,0.0,0.0,0.0,0.0,0.0,0.0,0.0,0.0,0.0,0.0,0.0,0.0,0.0,-0.0279,-0.0931,-0.1674,-0.2648,-0.3901,-0.469,-0.531,-0.5793,-0.5836,-0.5803,-0.5691,-0.5688,-0.5688,-0.5688,-0.5688,-0.5688,-0.5691,-0.5803,-0.5798,0.2059,0.2817,0.363,0.3476,0.5247,0.6935,0.0,0.0,0.8828,0.8682,0.8801,0.8851,0.8798,0.8828,0.8797,0.0,0.8828,0.8937,0.9183,0.0,0.0,0.0,0.0,0.0,0.0,0.0,0.0,0.0,0.0,0.0,0.9822,0.9822,0.9822,0.9822,0.9534,0.9381,0.9381,0.9086,0.8885,0.8885,0.8885,0.8885,0.8885,0.8885,0.8885,0.8885,0.8885,0.0,0.0,0.8998,0.9022,0.9193,0.8994,0.8885,0.8881,0.8491,0.7823,0.6985,0.6316,0.4936,0.3468,0.3178,0.248,0.1731,0.1623,0.1557,0.1598,0.1598,0.1333,0.1009,0.0783,0.036,0.0,0.0,0.0,0.0,0.0,0.0,0.0,0.0,0.0,0.0,0.0,0.0,0.0,0.0,0.0,-0.0099,-0.0445,-0.0489,-0.0582,-0.092,-0.0969,-0.1109,-0.1572,-0.214,-0.3137,-0.461,-0.4944,-0.5383,-0.5915,-0.5956,-0.592,-0.5839,-0.5839,-0.5839,-0.5839,-0.5839,-0.5839,-0.5839,-0.592,-0.5915,0.1977,0.2083,0.2121,0.2026,0.3817,0.5461,0.0,0.7041,0.8797,0.8547,0.8726,0.8885,0.8881,0.8815,0.876,0.8858,0.8811,0.0,0.0,0.0,0.0,0.0,0.0,0.0,0.0,0.0,0.0,0.0,0.0,0.0,0.9822,0.9822,0.9822,0.9822,0.9534,0.9381,0.9381,0.9086,0.8885,0.8885,0.8885,0.8885,0.8885,0.8885,0.8885,0.0,0.0,0.0,0.0,0.8998,0.9022,0.9193,0.8994,0.8885,0.8771,0.7543,0.7096,0.6763,0.4418,0.3635,0.3413,0.2186,0.1795,0.1738,0.1401,0.1315,0.1281,0.1281,0.0854,0.0425,0.0417,0.0208,0.0,0.0,0.0,0.0,0.0,0.0,0.0,0.0,0.0,0.0,0.0,0.0,0.0,0.0,0.0,-0.0404,-0.1462,-0.1562,-0.2015,-0.307,-0.3172,-0.2727,-0.1671,-0.3469,-0.4658,-0.4705,-0.5561,-0.6086,-0.6083,-0.6083,-0.6083,-0.6081,-0.6081,-0.6081,-0.6081,-0.6081,-0.6081,-0.6081,-0.6083,-0.6083,0.194,0.1974,0.1996,0.1967,0.3729,0.5445,0.5191,0.7096,0.8824,0.8679,0.8798,0.8851,0.8801,0.8828,0.8828,0.8875,0.0,0.0,0.0,0.0,0.0,0.0,0.0,0.0,0.0,0.0,0.0,0.0,0.0,0.0,0.9822,0.973,0.9676,0.9676,0.9486,0.933,0.9282,0.9035,0.8885,0.8885,0.8885,0.8885,0.8885,0.8885,0.8885,0.0,0.0,0.0,0.0,0.8998,0.9022,0.9193,0.8994,0.838,0.7598,0.7263,0.6091,0.4583,0.386,0.3079,0.2297,0.1907,0.1795,0.1739,0.1402,0.1281,0.1215,0.0828,0.0548,0.038,0.0162,0.0053,0.0,0.0,0.0,0.0,0.0,0.0,0.0,0.0,0.0,0.0,0.0,0.0,-0.0252,-0.0958,-0.111,-0.1462,-0.2569,-0.267,-0.2821,-0.3173,-0.3879,-0.4161,-0.3813,-0.4402,-0.5094,-0.5831,-0.6126,-0.629,-0.6262,-0.6259,-0.617,-0.6086,-0.6086,-0.6086,-0.6086,-0.6086,-0.613,-0.6257,-0.6124,-0.613,0.0,0.1919,0.1938,0.1919,0.3346,0.4874,0.5114,0.6785,0.833,0.8622,0.8832,0.8854,0.8815,0.8828,0.8797,0.8797,0.0,0.0,0.0,0.0,0.0,0.0,0.0,0.0,0.0,0.0,0.0,0.0,0.0,0.0,0.9656,0.9571,0.9496,0.9439,0.9344,0.9306,0.921,0.9011,0.8885,0.8885,0.8885,0.8885,0.8885,0.8885,0.8885,0.0,0.0,0.0,0.0,0.8977,0.8991,0.9006,0.8468,0.7768,0.6985,0.6091,0.4864,0.3525,0.3079,0.2409,0.1795,0.1795,0.1627,0.1402,0.1065,0.0953,0.0841,0.0393,0.0223,0.0221,0.0055,0.0,0.0,0.0,0.0,0.0,0.0,0.0,0.0,0.0,0.0,0.0,0.0,-0.0355,-0.0809,-0.1476,-0.1924,-0.2569,-0.3676,-0.3827,-0.3977,-0.4377,-0.4983,-0.5384,-0.5384,-0.5384,-0.5687,-0.6337,-0.6387,-0.6404,-0.6333,-0.6331,-0.6295,-0.6219,-0.6217,-0.6217,-0.6217,-0.6217,-0.6257,-0.6331,-0.6255,-0.6257,0.0,0.1854,0.1879,0.1879,0.2752,0.386,0.4977,0.6184,0.0,0.8507,0.8842,0.8885,0.8885,0.8821,0.873,0.874,0.0,0.0,0.0,0.0,0.0,0.0,0.0,0.0,0.0,0.0,0.0,0.0,0.0,0.0,0.9388,0.9371,0.93,0.9214,0.92,0.9193,0.9193,0.9005,0.8885,0.8885,0.8885,0.8885,0.8885,0.8885,0.8885,0.0,0.0,0.0,0.0,0.8885,0.883,0.866,0.7543,0.6985,0.6594,0.4418,0.3525,0.3301,0.2186,0.1795,0.1795,0.1795,0.1346,0.0785,0.0505,0.0393,0.0336,0.0056,0.0,0.0,0.0,0.0,0.0,0.0,0.0,0.0,0.0,0.0,0.0,0.0,-0.0051,-0.0153,-0.0104,-0.1024,-0.1782,-0.1864,-0.2711,-0.3739,-0.4794,-0.4945,-0.5292,-0.6287,-0.6387,-0.6387,-0.6387,-0.6387,-0.6387,-0.6387,-0.6387,-0.6387,-0.6387,-0.6387,-0.6387,-0.6387,-0.6387,-0.6387,-0.6387,-0.6387,-0.6387,-0.6387,-0.6387,-0.6387,0.174,0.0,0.1817,0.1817,0.2705,0.3916,0.0,0.6239,0.0,0.0,0.0,0.0,0.0,0.0,0.0,0.0,0.0,0.0,0.0,0.0,0.0,0.0,0.0,0.0,0.0,0.0,0.0,0.0,0.0,0.9418,0.9384,0.9326,0.9248,0.921,0.9045,0.8988,0.8988,0.8898,0.8885,0.8885,0.8885,0.8885,0.8885,0.8885,0.8885,0.0,0.0,0.0,0.8885,0.8885,0.838,0.7487,0.721,0.598,0.4362,0.3804,0.3023,0.2186,0.1907,0.1795,0.1739,0.1514,0.1009,0.0505,0.0449,0.028,0.0056,0.0,0.0,0.0,0.0,0.0,0.0,0.0,0.0,0.0,0.0,0.0,0.0,0.0,-0.0731,-0.1399,-0.137,-0.2369,-0.3415,-0.422,-0.4577,-0.5064,-0.6075,-0.6167,-0.6235,-0.6395,-0.6387,-0.6387,-0.6387,-0.6387,-0.6387,-0.6387,-0.6387,-0.6387,-0.6387,-0.6387,-0.6387,-0.6387,-0.6387,-0.6387,-0.6387,-0.6387,-0.6387,-0.6387,-0.6387,-0.6387,0.1709,0.1738,0.1774,0.1774,0.2271,0.3216,0.5018,0.0,0.0,0.0,0.0,0.0,0.0,0.0,0.0,0.0,0.0,0.0,0.0,0.0,0.0,0.0,0.0,0.0,0.0,0.0,0.0,0.0,0.0,0.9249,0.9181,0.91,0.9055,0.9055,0.8981,0.8885,0.8885,0.8885,0.8885,0.8885,0.8885,0.8885,0.8885,0.8885,0.8885,0.0,0.0,0.0,0.8885,0.8885,0.8214,0.7041,0.6536,0.5196,0.3525,0.2967,0.2353,0.1795,0.1795,0.1683,0.1514,0.1234,0.0785,0.0393,0.028,0.0112,0.0,0.0,0.0,0.0,0.0,0.0,0.0,0.0,0.0,0.0,0.0,0.0,0.0,0.0,-0.0951,-0.1793,-0.1824,-0.3204,-0.4526,-0.5099,-0.5607,-0.614,-0.6607,-0.6654,-0.6594,-0.6476,-0.6419,-0.6408,-0.6465,-0.6419,-0.6387,-0.6387,-0.6387,-0.6387,-0.6387,-0.6387,-0.6387,-0.6387,-0.6387,-0.6387,-0.6387,-0.6387,-0.6387,-0.6387,-0.6387,-0.6387,0.1698,0.1723,0.1804,0.1804,0.1808,0.2367,0.0,0.0,0.0,0.0,0.0,0.0,0.0,0.0,0.0,0.0,0.0,0.0,0.0,0.0,0.0,0.0,0.0,0.0,0.0,0.0,0.0,0.0,0.0,0.9066,0.8892,0.8885,0.8885,0.8885,0.8885,0.8885,0.8885,0.8885,0.8885,0.8885,0.8885,0.8885,0.8885,0.8885,0.8885,0.8885,0.0,0.0,0.8881,0.8716,0.7931,0.6705,0.5586,0.4414,0.3191,0.2186,0.1795,0.1795,0.1739,0.1514,0.1177,0.0897,0.0617,0.028,0.0056,0.0,0.0,0.0,0.0,0.0,0.0,0.0,0.0,0.0,0.0,-0.0055,-0.022,-0.0271,-0.0321,-0.0537,-0.1498,-0.236,-0.2348,-0.4108,-0.5489,-0.5515,-0.627,-0.685,-0.6831,-0.6738,-0.6668,-0.6649,-0.6554,-0.6484,-0.6638,-0.65,-0.6441,-0.6441,-0.6408,-0.6387,-0.6387,-0.6387,-0.6387,-0.6387,-0.6387,-0.6387,-0.6387,-0.6387,-0.6387,-0.6387,-0.6387,-0.6387,0.1721,0.1762,0.1804,0.1804,0.1824,0.2179,0.0,0.0,0.0,0.0,0.0,0.0,0.0,0.0,0.0,0.0,0.0,0.0,0.0,0.0,0.0,0.0,0.0,0.0,0.0,0.0,0.0,0.0,0.0,0.8905,0.8885,0.8885,0.8885,0.8885,0.8885,0.8885,0.8885,0.8885,0.8885,0.8885,0.8885,0.8885,0.8885,0.8885,0.8885,0.8885,0.0,0.8885,0.8826,0.782,0.6702,0.553,0.436,0.3135,0.2074,0.1851,0.1795,0.1739,0.1458,0.1177,0.0897,0.0561,0.028,0.0056,0.0,0.0,0.0,0.0,0.0,0.0,0.0,0.0,0.0,0.0,0.0,-0.0279,-0.1283,-0.1541,-0.1802,-0.2824,-0.4005,-0.486,-0.4834,-0.6001,-0.6885,-0.6901,-0.7056,-0.7119,-0.697,-0.694,-0.6891,-0.6785,-0.6757,-0.6755,-0.6774,-0.6757,-0.6747,-0.6747,-0.65,-0.6387,-0.6387,-0.6387,-0.6387,-0.6387,-0.6387,-0.6387,-0.6387,-0.6387,-0.6387,-0.6387,-0.6387,-0.6387,0.1642,0.1669,0.1759,0.1721,0.1772,0.2098,0.0,0.0,0.0,0.0,0.0,0.0,0.0,0.0,0.0,0.0,0.0,0.0,0.0,0.0,0.0,0.0,0.0,0.0,0.0,0.0,0.0,0.0,0.0,0.0,0.7934,0.8546,0.8885,0.8885,0.8885,0.8885,0.8885,0.8885,0.8885,0.8885,0.8885,0.8885,0.8885,0.8885,0.8885,0.8885,0.0,0.8546,0.7878,0.7318,0.6033,0.4359,0.3804,0.2856,0.1795,0.1795,0.1795,0.1741,0.1417,0.113,0.0842,0.051,0.0226,0.0,0.0,0.0,0.0,0.0,0.0,0.0,0.0,0.0,0.0,0.0,-0.0504,-0.112,-0.1679,-0.2336,-0.2938,-0.3519,-0.4559,-0.5378,-0.5419,-0.6374,-0.721,-0.721,-0.721,-0.7191,-0.7139,-0.7024,-0.6964,-0.6907,-0.6842,-0.6828,-0.6896,-0.6839,-0.6801,-0.6801,-0.6635,-0.6484,-0.6484,-0.6422,-0.6416,-0.6481,-0.6484,-0.6567,-0.6632,-0.6632,-0.6632,-0.6632,-0.6632,-0.6632,0.1642,0.166,0.174,0.171,0.0,0.2043,0.2988,0.0,0.0,0.0,0.0,0.0,0.0,0.0,0.0,0.0,0.0,0.0,0.0,0.0,0.0,0.0,0.0,0.0,0.0,0.0,0.0,0.0,0.0,0.0,0.7096,0.7989,0.8605,0.8881,0.8885,0.8885,0.8885,0.8885,0.8885,0.8885,0.8885,0.8885,0.8885,0.8885,0.8885,0.8885,0.8885,0.8214,0.7096,0.6816,0.5477,0.358,0.3301,0.2639,0.1806,0.1806,0.1753,0.1649,0.1324,0.1032,0.0739,0.0403,0.0172,0.0,0.0,0.0,0.0,0.0,0.0,0.0,0.0,0.0,-0.0056,-0.0336,-0.112,-0.1959,-0.2519,-0.3357,-0.4083,-0.4362,-0.52,-0.5817,-0.5817,-0.6596,-0.721,-0.721,-0.721,-0.721,-0.721,-0.7133,-0.7024,-0.7024,-0.694,-0.6923,-0.7016,-0.694,-0.6885,-0.6885,-0.6744,-0.6662,-0.6662,-0.657,-0.6564,-0.666,-0.6662,-0.6709,-0.6801,-0.6801,-0.6801,-0.6801,-0.6801,-0.6801,0.1691,0.172,0.1798,0.18,0.0,0.0,0.0,0.0,0.0,0.0,0.0,0.0,0.0,0.0,0.0,0.0,0.0,0.0,0.0,0.0,0.0,0.0,0.0,0.0,0.0,0.0,0.0,0.0,0.0,0.0,0.7041,0.7207,0.7768,0.8881,0.8885,0.8885,0.8885,0.8885,0.8885,0.8885,0.8885,0.8885,0.8885,0.8885,0.8885,0.8885,0.8885,0.8214,0.7041,0.5975,0.4749,0.3469,0.2353,0.1869,0.178,0.178,0.1623,0.1409,0.1058,0.0705,0.0411,0.0118,0.0,0.0,0.0,0.0,0.0,0.0,0.0,0.0,0.0,0.0,-0.028,-0.14,-0.1735,-0.2407,-0.4643,-0.5202,-0.5592,-0.6707,-0.6988,-0.7099,-0.7099,-0.7154,-0.721,-0.721,-0.721,-0.721,-0.721,-0.7202,-0.7196,-0.7196,-0.7191,-0.7188,-0.7196,-0.7191,-0.7185,-0.7185,-0.6915,-0.679,-0.679,-0.6782,-0.6779,-0.679,-0.679,-0.6793,-0.6801,-0.6801,-0.6801,-0.6801,-0.6801,-0.6801,0.1652,0.1658,0.1671,0.1743,0.0,0.0,0.0,0.0,0.0,0.0,0.0,0.0,0.0,0.0,0.0,0.0,0.0,0.0,0.0,0.0,0.0,0.0,0.0,0.0,0.0,0.0,0.0,0.0,0.0,0.0,0.5977,0.6705,0.7654,0.8881,0.8885,0.8885,0.8885,0.8885,0.8885,0.8885,0.8885,0.8885,0.8885,0.8885,0.8885,0.8881,0.81,0.7093,0.5975,0.4751,0.358,0.2412,0.1985,0.1773,0.1785,0.1862,0.1641,0.1357,0.1013,0.0653,0.0354,0.006,0.0,0.0,0.0,0.0,0.0,0.0,0.0,0.0,0.0,-0.0574,-0.1255,-0.1786,-0.3034,-0.4383,-0.535,-0.6171,-0.6864,-0.7323,-0.738,-0.738,-0.738,-0.738,-0.7355,-0.7279,-0.7269,-0.7239,-0.7221,-0.721,-0.721,-0.721,-0.721,-0.721,-0.721,-0.721,-0.721,-0.721,-0.7005,-0.6915,-0.6915,-0.6842,-0.6836,-0.6915,-0.6915,-0.695,-0.7076,-0.7076,-0.7076,-0.7076,-0.7076,-0.7076,0.1642,0.1638,0.1652,0.0,0.0,0.0,0.0,0.0,0.0,0.0,0.0,0.0,0.0,0.0,0.0,0.0,0.0,0.0,0.0,0.0,0.0,0.0,0.0,0.0,0.0,0.0,0.0,0.0,0.0,0.0,0.0,0.5922,0.7093,0.8269,0.8716,0.8885,0.8885,0.8885,0.8885,0.8885,0.8885,0.8885,0.8881,0.8491,0.8325,0.8269,0.7093,0.5922,0.4749,0.3914,0.2912,0.1798,0.1828,0.1789,0.1858,0.1889,0.1608,0.1258,0.1029,0.0664,0.024,0.0061,0.0,0.0,0.0,0.0,0.0,0.0,0.0,-0.012,-0.0538,-0.1235,-0.1973,-0.2463,-0.4076,-0.5675,-0.6147,-0.693,-0.7519,-0.7519,-0.7519,-0.7519,-0.7519,-0.7519,-0.7491,-0.735,-0.7336,-0.735,-0.7228,-0.7211,-0.7198,-0.7215,-0.721,-0.721,-0.721,-0.721,-0.721,-0.721,-0.7136,-0.7037,-0.7037,-0.6959,-0.6953,-0.7037,-0.7037,-0.713,-0.721,-0.721,-0.721,-0.721,-0.721,-0.721,0.173,0.1682,0.0,0.0,0.0,0.0,0.0,0.0,0.0,0.0,0.0,0.0,0.0,0.0,0.0,0.0,0.0,0.0,0.0,0.0,0.0,0.0,0.0,0.0,0.0,0.0,0.0,0.0,0.0,0.0,0.0,0.4749,0.5919,0.7041,0.8269,0.8881,0.8885,0.8885,0.8885,0.8885,0.8881,0.8881,0.8881,0.7654,0.7096,0.7041,0.5864,0.4693,0.358,0.358,0.2856,0.1798,0.1829,0.1859,0.189,0.192,0.1524,0.0988,0.0988,0.0556,0.0,0.0,0.0,0.0,0.0,0.0,0.0,0.0,0.0,-0.0309,-0.1665,-0.1989,-0.2295,-0.3529,-0.4817,-0.6048,-0.7227,-0.7521,-0.7521,-0.7521,-0.7521,-0.7521,-0.7521,-0.7521,-0.7521,-0.7521,-0.7521,-0.7475,-0.7296,-0.728,-0.729,-0.7226,-0.7213,-0.7213,-0.721,-0.721,-0.721,-0.721,-0.721,-0.721,-0.721,-0.721,-0.721,-0.721,-0.721,-0.721,-0.721,-0.721,-0.721,-0.721,-0.721,-0.721,0.1659,0.162,0.0,0.0,0.0,0.0,0.0,0.0,0.0,0.0,0.0,0.0,0.0,0.0,0.0,0.0,0.0,0.0,0.0,0.0,0.0,0.0,0.0,0.0,0.0,0.0,0.0,0.0,0.0,0.0,0.0,0.3914,0.5031,0.7041,0.7432,0.8045,0.8881,0.8885,0.8885,0.8881,0.8045,0.81,0.8881,0.7654,0.7096,0.6985,0.4973,0.3914,0.3525,0.2688,0.2146,0.1829,0.186,0.1891,0.1861,0.1708,0.1353,0.0988,0.0741,0.037,0.0,0.0,0.0,0.0,0.0,0.0,0.0,0.0,0.0,-0.0309,-0.1665,-0.2692,-0.3642,-0.4978,-0.6199,-0.7246,-0.7687,-0.7766,-0.7766,-0.7766,-0.7766,-0.7766,-0.7766,-0.7766,-0.7739,-0.766,-0.7646,-0.7603,-0.7481,-0.7464,-0.7418,-0.7296,-0.7282,-0.7247,-0.7218,-0.721,-0.721,-0.721,-0.721,-0.721,-0.721,-0.721,-0.721,-0.721,-0.721,-0.721,-0.721,-0.721,-0.721,-0.721,-0.721,-0.721,0.1626,0.0,0.0,0.0,0.0,0.0,0.0,0.0,0.0,0.0,0.0,0.0,0.0,0.0,0.0,0.0,0.0,0.0,0.0,0.0,0.0,0.0,0.0,0.0,0.0,0.0,0.0,0.0,0.0,0.0,0.0,0.3358,0.4472,0.6369,0.6871,0.7657,0.8881,0.8885,0.8885,0.8881,0.7657,0.7487,0.8156,0.6482,0.5701,0.5588,0.3692,0.2912,0.2856,0.2074,0.1812,0.1786,0.1874,0.1904,0.1875,0.1597,0.1297,0.0926,0.0617,0.0309,0.0,0.0,0.0,0.0,0.0,0.0,0.0,0.0,0.0,-0.0432,-0.228,-0.3324,-0.4244,-0.56,-0.6843,-0.7788,-0.7856,-0.7872,-0.7872,-0.7872,-0.7872,-0.7872,-0.7872,-0.7872,-0.7847,-0.778,-0.7731,-0.7674,-0.76,-0.7548,-0.7491,-0.7415,-0.7352,-0.7377,-0.7307,-0.7298,-0.7298,-0.7298,-0.7298,-0.7277,-0.7228,-0.7235,-0.721,-0.721,-0.721,-0.721,-0.721,-0.721,-0.721,-0.721,-0.721,-0.721,0.0,0.0,0.0,0.0,0.0,0.0,0.0,0.0,0.0,0.0,0.0,0.0,0.0,0.0,0.0,0.0,0.0,0.0,0.0,0.0,0.0,0.0,0.0,0.0,0.0,0.0,0.0,0.0,0.0,0.0,0.0,0.2856,0.397,0.5194,0.6369,0.7543,0.8716,0.883,0.883,0.8716,0.7543,0.6874,0.6705,0.4585,0.3525,0.3358,0.2298,0.1795,0.1795,0.1795,0.1812,0.1786,0.1874,0.1904,0.1875,0.1535,0.1235,0.0926,0.0556,0.0247,0.0,0.0,0.0,0.0,0.0,0.0,0.0,0.0,0.0,-0.0555,-0.3077,-0.3753,-0.4122,-0.5536,-0.695,-0.7872,-0.7872,-0.7872,-0.7872,-0.7872,-0.7872,-0.7872,-0.7872,-0.7872,-0.7872,-0.7872,-0.7782,-0.7717,-0.7717,-0.7619,-0.7546,-0.7538,-0.7535,-0.7532,-0.7519,-0.7519,-0.7519,-0.7519,-0.7519,-0.7467,-0.7298,-0.7236,-0.7221,-0.721,-0.721,-0.721,-0.721,-0.721,-0.721,-0.721,-0.721,-0.721,0.0,0.0,0.0,0.0,0.0,0.0,0.0,0.0,0.0,0.0,0.0,0.0,0.0,0.0,0.0,0.0,0.0,0.0,0.0,0.0,0.0,0.0,0.0,0.0,0.0,0.0,0.0,0.0,0.0,0.0,0.1795,0.2018,0.2744,0.397,0.5139,0.6311,0.7487,0.8436,0.8436,0.0,0.6311,0.5252,0.4362,0.3804,0.3079,0.2186,0.1907,0.1795,0.1795,0.1795,0.1812,0.1786,0.1874,0.1904,0.1814,0.1289,0.105,0.0926,0.0309,0.0062,0.0,0.0,0.0,0.0,0.0,0.0,0.0,0.0,0.0,-0.037,-0.1973,-0.2403,-0.3018,-0.5352,-0.695,-0.7872,-0.7872,-0.7872,-0.7872,-0.7872,-0.7872,-0.7872,-0.7872,-0.7872,-0.7872,-0.7872,-0.785,-0.7834,-0.7834,-0.7812,-0.7761,-0.7671,-0.7663,-0.7622,-0.7527,-0.7519,-0.7519,-0.7519,-0.7519,-0.7508,-0.7481,-0.7361,-0.7252,-0.7213,-0.721,-0.721,-0.721,-0.721,-0.721,-0.721,-0.721,-0.721,0.0,0.0,0.0,0.0,0.0,0.0,0.0,0.0,0.0,0.0,0.0,0.0,0.0,0.0,0.0,0.0,0.0,0.0,0.0,0.0,0.0,0.0,0.0,0.0,0.0,0.0,0.0,0.0,0.0,0.1795,0.1795,0.1795,0.2353,0.358,0.4193,0.5363,0.7096,0.7204,0.7204,0.7096,0.5363,0.3916,0.2744,0.2744,0.2409,0.1795,0.1795,0.1795,0.1795,0.1795,0.1812,0.1786,0.1874,0.1904,0.1814,0.1228,0.0988,0.0926,0.0247,0.0,0.0,0.0,0.0,0.0,0.0,0.0,0.0,0.0,0.0,-0.0309,-0.1665,-0.1973,-0.2527,-0.4492,-0.5965,-0.7133,-0.7747,-0.7872,-0.7872,-0.7872,-0.7872,-0.7872,-0.7872,-0.7872,-0.7872,-0.7872,-0.7872,-0.7872,-0.7872,-0.7872,-0.7847,-0.7788,-0.7782,-0.7758,-0.7693,-0.7687,-0.7687,-0.7687,-0.7687,-0.7663,-0.7608,-0.7489,-0.7366,-0.7244,-0.724,-0.721,-0.721,-0.721,-0.721,-0.721,-0.721,-0.721,0.0,0.0,0.0,0.0,0.0,0.0,0.0,0.0,0.0,0.0,0.0,0.0,0.0,0.0,0.0,0.0,0.0,0.0,0.0,0.0,0.0,0.0,0.0,0.0,0.0,0.0,0.0,0.0,0.0,0.1795,0.1795,0.1795,0.2242,0.3246,0.3469,0.4529,0.6482,0.5753,0.5753,0.6482,0.4306,0.2744,0.1795,0.1795,0.1795,0.1795,0.1795,0.1795,0.1795,0.1795,0.181,0.1779,0.1872,0.1842,0.1747,0.1227,0.0988,0.0803,0.0185,0.0,0.0,0.0,0.0,0.0,0.0,0.0,0.0,0.0,0.0,-0.0247,-0.1357,-0.1665,-0.1973,-0.3262,-0.4614,-0.5904,-0.7255,-0.7747,-0.7872,-0.7872,-0.7872,-0.7872,-0.7872,-0.7872,-0.7872,-0.7872,-0.7872,-0.7872,-0.7872,-0.7872,-0.7872,-0.7872,-0.7872,-0.7872,-0.7872,-0.7872,-0.7872,-0.7872,-0.7872,-0.7828,-0.7733,-0.7595,-0.747,-0.7312,-0.7228,-0.721,-0.721,-0.721,-0.721,-0.721,-0.721,-0.721,0.0,0.0,0.0,0.0,0.0,0.0,0.0,0.0,0.0,0.0,0.0,0.0,0.0,0.0,0.0,0.0,0.0,0.0,0.0,0.0,0.0,0.0,0.0,0.0,0.0,0.0,0.0,0.0,0.1795,0.1795,0.1795,0.1795,0.1851,0.2018,0.3079,0.3748,0.4083,0.4972,0.4972,0.4027,0.2688,0.1963,0.1795,0.1795,0.1795,0.1795,0.1795,0.1795,0.1795,0.1795,0.1797,0.1807,0.1864,0.1711,0.1424,0.11,0.0803,0.0494,0.0123,0.0,0.0,0.0,0.0,0.0,0.0,0.0,0.0,0.0,0.0,-0.0062,-0.0247,-0.0247,-0.0617,-0.1911,-0.3263,-0.4551,-0.5906,-0.7072,-0.7872,-0.7872,-0.7872,-0.7872,-0.7872,-0.7872,-0.7872,-0.7872,-0.7872,-0.7872,-0.7872,-0.7872,-0.7872,-0.7872,-0.7872,-0.7872,-0.7872,-0.7872,-0.7872,-0.7872,-0.7872,-0.7864,-0.7847,-0.7635,-0.751,-0.7494,-0.7271,-0.721,-0.721,-0.721,-0.721,-0.721,-0.721,-0.721,0.0,0.0,0.0,0.0,0.0,0.0,0.0,0.0,0.0,0.0,0.0,0.0,0.0,0.0,0.0,0.0,0.0,0.0,0.0,0.0,0.0,0.0,0.0,0.0,0.0,0.0,0.0,0.0,0.1795,0.1795,0.1795,0.1795,0.1795,0.1795,0.2297,0.2912,0.358,0.3469,0.3135,0.2576,0.2074,0.1795,0.1795,0.1795,0.1795,0.1795,0.1795,0.1795,0.1795,0.1795,0.1805,0.1825,0.1868,0.1719,0.1377,0.1102,0.0803,0.0432,0.0123,0.0,0.0,0.0,0.0,0.0,0.0,0.0,0.0,0.0,0.0,0.0,0.0,0.0,-0.0123,-0.074,-0.191,-0.3201,-0.4492,-0.6394,-0.7872,-0.7872,-0.7872,-0.7872,-0.7872,-0.7872,-0.7872,-0.7872,-0.7872,-0.7872,-0.7872,-0.7872,-0.7872,-0.7872,-0.7872,-0.7872,-0.7872,-0.7872,-0.7872,-0.7872,-0.7872,-0.7872,-0.7872,-0.7709,-0.7589,-0.7519,-0.7279,-0.721,-0.721,-0.721,-0.721,-0.721,-0.721,-0.721,0.0,0.0,0.0,0.0,0.0,0.0,0.0,0.0,0.0,0.0,0.0,0.0,0.0,0.0,0.0,0.0,0.0,0.0,0.0,0.0,0.0,0.0,0.0,0.0,0.0,0.0,0.0,0.0,0.1795,0.1795,0.1795,0.1795,0.1795,0.1795,0.1795,0.2242,0.3135,0.2242,0.1795,0.1795,0.1795,0.1795,0.1795,0.1795,0.1795,0.1795,0.1795,0.1795,0.1795,0.1795,0.1812,0.1786,0.1874,0.1666,0.127,0.1044,0.0741,0.0309,0.0062,0.0,0.0,0.0,0.0,0.0,0.0,0.0,0.0,0.0,0.0,0.0,0.0,0.0,0.0,0.0,-0.1049,-0.2465,-0.4062,-0.6272,-0.7872,-0.7872,-0.7872,-0.7872,-0.7872,-0.7872,-0.7872,-0.7872,-0.7872,-0.7872,-0.7872,-0.7872,-0.7872,-0.7872,-0.7872,-0.7872,-0.7872,-0.7872,-0.7872,-0.7872,-0.7872,-0.7872,-0.7872,-0.7731,-0.7611,-0.7521,-0.7279,-0.721,-0.721,-0.721,-0.721,-0.721,-0.721,-0.721,0.0,0.0,0.0,0.0,0.0,0.0,0.0,0.0,0.0,0.0,0.0,0.0,0.0,0.0,0.0,0.0,0.0,0.0,0.0,0.0,0.0,0.0,0.0,0.0,0.0,0.0,0.0,0.0,0.1795,0.1795,0.1795,0.1795,0.1795,0.1795,0.1795,0.1851,0.1907,0.1851,0.1795,0.1795,0.1795,0.1795,0.1795,0.1795,0.1795,0.1795,0.1795,0.1795,0.1795,0.1795,0.1812,0.1786,0.1874,0.1487,0.0907,0.0982,0.0617,0.0,0.0,0.0,0.0,0.0,0.0,0.0,0.0,0.0,0.0,0.0,0.0,0.0,0.0,0.0,0.0,0.0,-0.1049,-0.2712,-0.523,-0.6888,-0.7872,-0.7872,-0.7872,-0.7872,-0.7872,-0.7872,-0.7872,-0.7872,-0.7872,-0.7872,-0.7872,-0.7872,-0.7872,-0.7872,-0.7872,-0.7872,-0.7872,-0.7872,-0.7872,-0.7872,-0.7872,-0.7872,-0.7872,-0.7649,-0.7527,-0.7519,-0.7279,-0.721,-0.721,-0.721,-0.721,-0.721,-0.721,-0.721,0.0,0.0,0.0,0.0,0.0,0.0,0.0,0.0,0.0,0.0,0.0,0.0,0.0,0.0,0.0,0.0,0.0,0.0,0.0,0.0,0.0,0.0,0.0,0.0,0.0,0.0,0.0,0.0,0.0,0.1795,0.1795,0.1795,0.1795,0.1795,0.1795,0.1795,0.1795,0.1795,0.1795,0.1795,0.1795,0.1795,0.1795,0.1795,0.1795,0.1795,0.1795,0.1795,0.1795,0.1795,0.1824,0.187,0.1881,0.1497,0.098,0.0986,0.0556,0.0,0.0,0.0,0.0,0.0,0.0,0.0,0.0,0.0,0.0,0.0,0.0,0.0,0.0,0.0,0.0,0.0,-0.1664,-0.3447,-0.4429,-0.6333,-0.7872,-0.7872,-0.7872,-0.7872,-0.7872,-0.7872,-0.7872,-0.7872,-0.7872,-0.7872,-0.7872,-0.7872,-0.7872,-0.7872,-0.7872,-0.7872,-0.7872,-0.7872,-0.7872,-0.7872,-0.7872,-0.7872,-0.7872,-0.779,-0.7674,-0.7521,-0.7434,-0.7312,-0.721,-0.721,-0.721,-0.721,-0.721,-0.721,0.0,0.0,0.0,0.0,0.0,0.0,0.0,0.0,0.0,0.0,0.0,0.0,0.0,0.0,0.0,0.0,0.0,0.0,0.0,0.0,0.0,0.0,0.0,0.0,0.0,0.0,0.0,0.0,0.0,0.0,0.1795,0.1795,0.1795,0.1795,0.1795,0.1795,0.1795,0.1795,0.1795,0.1795,0.1795,0.1795,0.1795,0.1795,0.1795,0.1795,0.1795,0.1795,0.1795,0.1795,0.1831,0.1885,0.1768,0.1442,0.0988,0.0864,0.0494,0.0,0.0,0.0,0.0,0.0,0.0,0.0,0.0,0.0,0.0,0.0,0.0,0.0,0.0,0.0,0.0,0.0,-0.1664,-0.3384,-0.3815,-0.6025,-0.7872,-0.7872,-0.7872,-0.7872,-0.7872,-0.7872,-0.7872,-0.7872,-0.7872,-0.7872,-0.7872,-0.7872,-0.7872,-0.7872,-0.7872,-0.7872,-0.7872,-0.7872,-0.7872,-0.7872,-0.7872,-0.7872,-0.7872,-0.7834,-0.7739,-0.7584,-0.75,-0.7377,-0.7217,-0.7229,-0.721,-0.721,-0.721,-0.721,0.0,0.0,0.0,0.0,0.0,0.0,0.0,0.0,0.0,0.0,0.0,0.0,0.0,0.0,0.0,0.0,0.0,0.0,0.0,0.0,0.0,0.0,0.0,0.0,0.0,0.0,0.0,0.0,0.1795,0.1795,0.1795,0.1795,0.1795,0.1795,0.1795,0.1795,0.1795,0.1795,0.1795,0.1795,0.1795,0.1795,0.1795,0.1795,0.1795,0.1795,0.1795,0.1795,0.1795,0.1795,0.1831,0.1885,0.1532,0.1262,0.0988,0.0617,0.0309,0.0,0.0,0.0,0.0,0.0,0.0,0.0,0.0,0.0,0.0,0.0,0.0,0.0,0.0,0.0,0.0,0.0,-0.1049,-0.2341,-0.363,-0.5963,-0.7869,-0.7872,-0.7872,-0.7872,-0.7872,-0.7872,-0.7872,-0.7872,-0.7872,-0.7872,-0.7872,-0.7872,-0.7872,-0.7872,-0.7872,-0.7872,-0.7872,-0.7872,-0.7872,-0.7872,-0.7872,-0.7872,-0.7872,-0.7766,-0.7703,-0.7701,-0.7464,-0.7282,-0.728,-0.7214,-0.721,-0.721,-0.721,-0.721,0.1471,0.0,0.0,0.0,0.0,0.0,0.0,0.0,0.0,0.0,0.0,0.0,0.0,0.0,0.0,0.0,0.0,0.0,0.0,0.0,0.0,0.0,0.0,0.0,0.0,0.0,0.0,0.0,0.1795,0.1795,0.1795,0.1795,0.1795,0.1795,0.1795,0.1795,0.1795,0.1795,0.1795,0.1795,0.1795,0.1795,0.1795,0.1795,0.1795,0.1795,0.1795,0.1795,0.1795,0.1795,0.1831,0.1885,0.1532,0.1262,0.0988,0.0617,0.0309,0.0,0.0,0.0,0.0,0.0,0.0,0.0,0.0,0.0,0.0,0.0,0.0,0.0,0.0,0.0,0.0,0.0,-0.1049,-0.2341,-0.363,-0.5228,-0.6766,-0.7686,-0.7872,-0.7872,-0.7872,-0.7872,-0.7872,-0.7872,-0.7872,-0.7872,-0.7872,-0.7872,-0.7872,-0.7872,-0.7872,-0.7872,-0.7872,-0.7872,-0.7872,-0.7872,-0.7872,-0.7872,-0.7872,-0.7842,-0.7785,-0.7703,-0.7548,-0.7423,-0.728,-0.7214,-0.721,-0.721,-0.721,-0.721,0.0,0.0,0.0,0.0,0.0,0.0,0.0,0.0,0.0,0.0,0.0,0.0,0.0,0.0,0.0,0.0,0.0,0.0,0.0,0.0,0.0,0.0,0.0,0.0,0.0,0.1795,0.1795,0.1795,0.1795,0.1795,0.1795,0.1795,0.1795,0.1795,0.1795,0.1795,0.1795,0.1795,0.1795,0.1795,0.1795,0.1795,0.1795,0.1795,0.1795,0.1795,0.1795,0.1795,0.1795,0.1795,0.1831,0.1826,0.1355,0.1141,0.0926,0.0494,0.0185,0.0,0.0,0.0,0.0,0.0,0.0,0.0,0.0,0.0,0.0,0.0,0.0,0.0,0.0,0.0,0.0,0.0,-0.1049,-0.2341,-0.363,-0.4983,-0.6274,-0.7625,-0.7872,-0.7872,-0.7872,-0.7872,-0.7872,-0.7872,-0.7872,-0.7872,-0.7872,-0.7872,-0.7872,-0.7872,-0.7872,-0.7872,-0.7872,-0.7872,-0.7872,-0.7872,-0.7872,-0.7872,-0.7872,-0.7872,-0.7839,-0.7774,-0.7655,-0.7508,-0.728,-0.7214,-0.721,-0.721,-0.721,-0.721,0.0,0.0,0.0,0.0,0.0,0.0,0.154,0.154,0.0,0.0,0.0,0.0,0.0,0.0,0.0,0.0,0.0,0.0,0.0,0.0,0.0,0.0,0.0,0.0,0.1795,0.1795,0.1795,0.1795,0.1795,0.1795,0.1795,0.1795,0.1795,0.1795,0.1795,0.1795,0.1795,0.1795,0.1795,0.1795,0.1795,0.1795,0.1795,0.1795,0.1795,0.1795,0.1795,0.1795,0.1795,0.1795,0.1831,0.1826,0.1178,0.0961,0.0926,0.0247,0.0,0.0,0.0,0.0,0.0,0.0,0.0,0.0,0.0,0.0,0.0,0.0,0.0,0.0,0.0,0.0,0.0,0.0,-0.0925,-0.2157,-0.3384,-0.4737,-0.609,-0.7441,-0.7808,-0.7872,-0.7872,-0.7872,-0.7872,-0.7872,-0.7872,-0.7872,-0.7872,-0.7872,-0.7872,-0.7872,-0.7872,-0.7872,-0.7872,-0.7872,-0.7872,-0.7872,-0.7872,-0.7872,-0.7872,-0.7872,-0.7872,-0.7872,-0.7761,-0.7581,-0.728,-0.7214,-0.721,-0.721,-0.721,-0.721,0.0,0.0,0.0,0.0,0.0,0.0,0.1316,0.1356,0.0,0.0,0.0,0.0,0.0,0.0,0.0,0.0,0.0,0.0,0.0,0.0,0.0,0.0,0.0,0.0,0.1795,0.1795,0.1795,0.1795,0.1795,0.1795,0.1795,0.1795,0.1795,0.1795,0.1795,0.1795,0.1795,0.1795,0.1795,0.1795,0.1795,0.1795,0.1795,0.1795,0.1795,0.1795,0.1795,0.1795,0.1795,0.1795,0.1831,0.1826,0.1178,0.0961,0.0926,0.0247,0.0,0.0,0.0,0.0,0.0,0.0,0.0,0.0,0.0,0.0,0.0,0.0,0.0,0.0,0.0,0.0,0.0,0.0,-0.0185,-0.074,-0.2096,-0.3386,-0.4674,-0.6029,-0.7133,-0.7872,-0.7872,-0.7872,-0.7872,-0.7872,-0.7872,-0.7872,-0.7872,-0.7872,-0.7872,-0.7872,-0.7872,-0.7872,-0.7872,-0.7872,-0.7872,-0.7872,-0.7872,-0.7872,-0.7872,-0.7872,-0.7872,-0.7872,-0.7761,-0.7581,-0.728,-0.7214,-0.721,-0.721,-0.721,-0.721,0.0,0.0,0.0,0.2657,0.0,0.0,0.0,0.1346,0.1367,0.0,0.0,0.0,0.0,0.0,0.0,0.0,0.0,0.0,0.0,0.0,0.0,0.0,0.0,0.0,0.1795,0.1795,0.1795,0.1795,0.1795,0.1795,0.1795,0.1795,0.1795,0.1795,0.1795,0.1795,0.1795,0.1795,0.1795,0.1795,0.1795,0.1795,0.1795,0.1795,0.1795,0.1795,0.1795,0.1795,0.1795,0.1795,0.1822,0.1806,0.1351,0.1081,0.0926,0.0432,0.0123,0.0,0.0,0.0,0.0,0.0,0.0,0.0,0.0,0.0,0.0,0.0,0.0,0.0,0.0,0.0,0.0,0.0,-0.0494,-0.1172,-0.185,-0.351,-0.5105,-0.5784,-0.7011,-0.7872,-0.7872,-0.7872,-0.7872,-0.7872,-0.7872,-0.7872,-0.7872,-0.7872,-0.7872,-0.7872,-0.7872,-0.7872,-0.7872,-0.7872,-0.7872,-0.7872,-0.7872,-0.7872,-0.7872,-0.7872,-0.7872,-0.7872,-0.7761,-0.7641,-0.7516,-0.7334,-0.7214,-0.721,-0.721,-0.721,0.0,0.0,0.0,0.0,0.0,0.1834,0.0,0.0,0.0,0.1445,0.0,0.0,0.0,0.0,0.0,0.0,0.0,0.0,0.0,0.0,0.0,0.0,0.0,0.0,0.0,0.1781,0.1782,0.1794,0.1784,0.1782,0.1794,0.1795,0.1795,0.1795,0.1795,0.1795,0.1795,0.1795,0.1795,0.1795,0.1795,0.1795,0.1795,0.1795,0.1795,0.1795,0.1795,0.1795,0.1795,0.1795,0.1812,0.1786,0.1522,0.1199,0.0923,0.0617,0.0309,0.0,0.0,0.0,0.0,0.0,0.0,0.0,0.0,0.0,0.0,0.0,0.0,0.0,0.0,0.0,0.0,0.0,-0.0802,-0.1603,-0.1603,-0.3448,-0.523,-0.5475,-0.658,-0.7625,-0.7869,-0.7872,-0.7872,-0.7872,-0.7872,-0.7872,-0.7872,-0.7872,-0.7872,-0.7872,-0.7872,-0.7872,-0.7872,-0.7872,-0.7872,-0.7872,-0.7872,-0.7872,-0.7872,-0.7872,-0.7872,-0.7872,-0.778,-0.7722,-0.7701,-0.7502,-0.7331,-0.7245,-0.7221,-0.721,0.0,0.0,0.0,0.0,0.4164,0.0,0.0,0.0,0.1354,0.1266,0.0,0.0,0.0,0.0,0.0,0.0,0.0,0.0,0.0,0.0,0.0,0.0,0.0,0.0,0.0,0.1731,0.1737,0.1791,0.1745,0.1738,0.1792,0.1795,0.1795,0.1795,0.1795,0.1795,0.1795,0.1795,0.1795,0.1795,0.1795,0.1795,0.1795,0.1795,0.1795,0.1795,0.1795,0.1795,0.1795,0.1795,0.1812,0.1786,0.1522,0.1191,0.0848,0.0614,0.0309,0.0,0.0,0.0,0.0,0.0,0.0,0.0,0.0,0.0,0.0,0.0,0.0,0.0,0.0,0.0,0.0,0.0,-0.0123,-0.0247,-0.0247,-0.1418,-0.2773,-0.3937,-0.5228,-0.6521,-0.7686,-0.7872,-0.7872,-0.7872,-0.7872,-0.7872,-0.7872,-0.7872,-0.7872,-0.7872,-0.7872,-0.7872,-0.7872,-0.7872,-0.7872,-0.7872,-0.7872,-0.7872,-0.7872,-0.7872,-0.7872,-0.7872,-0.7858,-0.7801,-0.7701,-0.7674,-0.754,-0.7312,-0.7203,-0.721,0.0,0.0,0.0,0.0,0.0,0.0,0.2862,0.0,0.1408,0.0,0.0,0.0,0.0,0.0,0.0,0.0,0.0,0.0,0.0,0.0,0.0,0.0,0.0,0.0,0.0,0.0,0.0,0.0,0.1739,0.1731,0.1792,0.1795,0.1795,0.1795,0.1795,0.1795,0.1795,0.1795,0.1795,0.1795,0.1795,0.1795,0.1795,0.1795,0.1795,0.1795,0.1795,0.1795,0.1795,0.1795,0.1803,0.1819,0.1692,0.1487,0.1149,0.086,0.0556,0.0247,0.0062,0.0,0.0,0.0,0.0,0.0,0.0,0.0,0.0,0.0,0.0,0.0,0.0,0.0,0.0,0.0,0.0,0.0,0.0,-0.1049,-0.2403,-0.363,-0.4983,-0.6337,-0.7686,-0.7872,-0.7872,-0.7872,-0.7872,-0.7872,-0.7872,-0.7872,-0.7872,-0.7872,-0.7872,-0.7872,-0.7872,-0.7872,-0.7872,-0.7872,-0.7872,-0.7872,-0.7872,-0.7872,-0.7872,-0.7872,-0.7872,-0.7847,-0.7801,-0.7733,-0.7611,-0.7437,-0.7317,-0.7222,1.0092,0.0,0.0,0.0,0.0,0.0,0.0,0.0,0.0,0.0,0.0,0.0,0.0,0.0,0.0,0.0,0.0,0.0,0.0,0.0,0.0,0.0,0.0,0.0,0.0,0.0,0.0,0.0,0.0,0.1714,0.1791,0.1795,0.1795,0.1795,0.1795,0.1795,0.1795,0.1795,0.1795,0.1795,0.1795,0.1795,0.1795,0.1795,0.1795,0.1795,0.1795,0.1795,0.1795,0.1795,0.1795,0.1801,0.1862,0.178,0.1502,0.1104,0.0803,0.0432,0.0123,0.0,0.0,0.0,0.0,0.0,0.0,0.0,0.0,0.0,0.0,0.0,0.0,0.0,0.0,0.0,0.0,0.0,0.0,-0.074,-0.1849,-0.314,-0.4185,-0.5352,-0.7072,-0.7686,-0.7872,-0.7872,-0.7872,-0.7872,-0.7872,-0.7872,-0.7872,-0.7872,-0.7872,-0.7872,-0.7872,-0.7872,-0.7872,-0.7872,-0.7872,-0.7872,-0.7872,-0.7872,-0.7872,-0.7872,-0.7872,-0.7872,-0.7872,-0.7758,-0.7638,-0.7516,-0.7336,-0.7271,0.0,0.0,0.0,0.8594,0.0,0.0,0.0,0.0,0.2066,0.0,0.0,0.0,0.0,0.0,0.0,0.0,0.0,0.0,0.0,0.0,0.0,0.0,0.0,0.0,0.0,0.0,0.0,0.0,0.0,0.0,0.1789,0.1795,0.1795,0.1795,0.1795,0.1795,0.1795,0.1795,0.1795,0.1795,0.1795,0.1795,0.1795,0.1795,0.1795,0.1795,0.1795,0.1795,0.1795,0.1795,0.1795,0.1801,0.1862,0.1887,0.1835,0.1221,0.0803,0.0432,0.0123,0.0,0.0,0.0,0.0,0.0,0.0,0.0,0.0,0.0,0.0,0.0,0.0,0.0,0.0,0.0,0.0,0.0,0.0,-0.0062,-0.0432,-0.1788,-0.2096,-0.2957,-0.5538,-0.7011,-0.7872,-0.7872,-0.7872,-0.7872,-0.7872,-0.7872,-0.7872,-0.7872,-0.7872,-0.7872,-0.7872,-0.7872,-0.7872,-0.7872,-0.7872,-0.7872,-0.7872,-0.7872,-0.7872,-0.7872,-0.7872,-0.7872,-0.7872,-0.7758,-0.7638,-0.7516,-0.7336,-0.7271,0.0,0.0,1.0062,0.9111,0.0,0.0,0.0,0.0,0.0,0.0,0.0,0.0,0.0,0.0,0.0,0.0,0.0,0.0,0.0,0.0,0.0,0.0,0.0,0.0,0.0,0.0,0.0,0.0,0.165,0.0,0.0,0.1795,0.1795,0.1795,0.1795,0.1795,0.1795,0.1795,0.1795,0.1795,0.1795,0.1795,0.1795,0.1795,0.1795,0.1795,0.1795,0.1795,0.1795,0.1795,0.1807,0.1829,0.187,0.1898,0.1801,0.1226,0.0926,0.0741,0.0185,0.0,0.0,0.0,0.0,0.0,0.0,0.0,0.0,0.0,0.0,0.0,0.0,0.0,0.0,0.0,0.0,0.0,0.0,0.0,-0.037,-0.1727,-0.1973,-0.2526,-0.4306,-0.4981,-0.5839,-0.7625,-0.7872,-0.7872,-0.7872,-0.7872,-0.7872,-0.7872,-0.7872,-0.7872,-0.7872,-0.7872,-0.7872,-0.7872,-0.7872,-0.7872,-0.7872,-0.7872,-0.7872,-0.7872,-0.7872,-0.7872,-0.7872,-0.7758,-0.7638,-0.7516,-0.7475,-0.7347,1.0582,1.0421,0.0,0.9478,0.8414,0.0,0.53,0.0,0.3193,0.0,0.0,0.0,0.0,0.0,0.0,0.0,0.0,0.0,0.0,0.0,0.0,0.0,0.0,0.0,0.0,0.0,0.1565,0.1665,0.0,0.0,0.0,0.0,0.1795,0.1795,0.1795,0.1795,0.1795,0.1795,0.1795,0.1795,0.1795,0.1795,0.1795,0.1795,0.1795,0.1795,0.1795,0.1795,0.1795,0.1795,0.1812,0.1786,0.1874,0.1904,0.1814,0.1228,0.0864,0.0556,0.0123,0.0,0.0,0.0,0.0,0.0,0.0,0.0,0.0,0.0,0.0,0.0,0.0,0.0,0.0,0.0,0.0,0.0,0.0,0.0,-0.0247,-0.111,-0.1296,-0.1726,-0.3017,-0.3201,-0.3937,-0.6147,-0.6455,-0.6639,-0.7133,-0.7194,-0.7378,-0.7872,-0.7872,-0.7872,-0.7872,-0.7872,-0.7872,-0.7872,-0.7872,-0.7872,-0.7872,-0.7872,-0.7872,-0.7872,-0.7872,-0.7872,-0.7872,-0.7758,-0.766,-0.7581,-0.7538,-0.741]}]]